<?xml version="1.0" encoding="UTF-8"?>
<gpx version="1.1" creator="Swiss Map online 2.4.3.201302181115" xmlns="http://www.topografix.com/GPX/1/1">
  <metadata>
    <author>
      <name>Federal Office of Topography Switzerland</name>
    </author>
  </metadata>
  <trk>
    <name>Vers l Eglise Bretaye</name>
    <trkseg>
      <trkpt lat="46.353660225920194" lon="7.134541010250315">
        <time>2013-06-23T17:24:21.000+02:00</time>
      </trkpt>
      <trkpt lat="46.35355259292418" lon="7.134658537943681">
        <time>2013-06-23T17:24:21.000+02:00</time>
      </trkpt>
      <trkpt lat="46.35346295090704" lon="7.134775964580251">
        <time>2013-06-23T17:24:21.000+02:00</time>
      </trkpt>
      <trkpt lat="46.353436416854834" lon="7.1349450048651715">
        <time>2013-06-23T17:24:21.000+02:00</time>
      </trkpt>
      <trkpt lat="46.353472747037905" lon="7.1350747188040895">
        <time>2013-06-23T17:24:21.000+02:00</time>
      </trkpt>
      <trkpt lat="46.353554541541484" lon="7.1353860630820485">
        <time>2013-06-23T17:24:21.000+02:00</time>
      </trkpt>
      <trkpt lat="46.35361820519931" lon="7.13564554243899">
        <time>2013-06-23T17:24:21.000+02:00</time>
      </trkpt>
      <trkpt lat="46.35365508975738" lon="7.135983122001909">
        <time>2013-06-23T17:24:21.000+02:00</time>
      </trkpt>
      <trkpt lat="46.353682561876866" lon="7.13616485343912">
        <time>2013-06-23T17:24:21.000+02:00</time>
      </trkpt>
      <trkpt lat="46.353728371182335" lon="7.136476400618292">
        <time>2013-06-23T17:24:21.000+02:00</time>
      </trkpt>
      <trkpt lat="46.35378289838005" lon="7.136683965749384">
        <time>2013-06-23T17:24:21.000+02:00</time>
      </trkpt>
      <trkpt lat="46.353855312546045" lon="7.136852456624303">
        <time>2013-06-23T17:24:21.000+02:00</time>
      </trkpt>
      <trkpt lat="46.35398156148699" lon="7.136968681905237">
        <time>2013-06-23T17:24:21.000+02:00</time>
      </trkpt>
      <trkpt lat="46.3541167021727" lon="7.137045882843117">
        <time>2013-06-23T17:24:21.000+02:00</time>
      </trkpt>
      <trkpt lat="46.35425170457036" lon="7.137071117410418">
        <time>2013-06-23T17:24:21.000+02:00</time>
      </trkpt>
      <trkpt lat="46.35442268916853" lon="7.137096152453158">
        <time>2013-06-23T17:24:21.000+02:00</time>
      </trkpt>
      <trkpt lat="46.35450389100893" lon="7.137186645482215">
        <time>2013-06-23T17:24:21.000+02:00</time>
      </trkpt>
      <trkpt lat="46.35452240017493" lon="7.1373814219876515">
        <time>2013-06-23T17:24:21.000+02:00</time>
      </trkpt>
      <trkpt lat="46.35450520278404" lon="7.137680331954499">
        <time>2013-06-23T17:24:21.000+02:00</time>
      </trkpt>
      <trkpt lat="46.35455087008758" lon="7.137939918085113">
        <time>2013-06-23T17:24:21.000+02:00</time>
      </trkpt>
      <trkpt lat="46.354632966502926" lon="7.1383681988781165">
        <time>2013-06-23T17:24:21.000+02:00</time>
      </trkpt>
      <trkpt lat="46.35469682961012" lon="7.138705637655097">
        <time>2013-06-23T17:24:21.000+02:00</time>
      </trkpt>
      <trkpt lat="46.35482369491471" lon="7.13905572191776">
        <time>2013-06-23T17:24:21.000+02:00</time>
      </trkpt>
      <trkpt lat="46.35487814876623" lon="7.139237310141588">
        <time>2013-06-23T17:24:21.000+02:00</time>
      </trkpt>
      <trkpt lat="46.35491464551392" lon="7.13943198963497">
        <time>2013-06-23T17:24:21.000+02:00</time>
      </trkpt>
      <trkpt lat="46.354960274544226" lon="7.139678587334442">
        <time>2013-06-23T17:24:21.000+02:00</time>
      </trkpt>
      <trkpt lat="46.35496085680161" lon="7.139899448951746">
        <time>2013-06-23T17:24:21.000+02:00</time>
      </trkpt>
      <trkpt lat="46.35493424666858" lon="7.140042507688479">
        <time>2013-06-23T17:24:21.000+02:00</time>
      </trkpt>
      <trkpt lat="46.35488068390057" lon="7.140198706330789">
        <time>2013-06-23T17:24:21.000+02:00</time>
      </trkpt>
      <trkpt lat="46.35480940324837" lon="7.140458938004731">
        <time>2013-06-23T17:24:21.000+02:00</time>
      </trkpt>
      <trkpt lat="46.354819320947435" lon="7.140809667964486">
        <time>2013-06-23T17:24:21.000+02:00</time>
      </trkpt>
      <trkpt lat="46.35482865776078" lon="7.140939536956068">
        <time>2013-06-23T17:24:21.000+02:00</time>
      </trkpt>
      <trkpt lat="46.354784498411014" lon="7.141251586983491">
        <time>2013-06-23T17:24:21.000+02:00</time>
      </trkpt>
      <trkpt lat="46.35458836652442" lon="7.141928242064463">
        <time>2013-06-23T17:24:21.000+02:00</time>
      </trkpt>
      <trkpt lat="46.35447261359715" lon="7.142383591590329">
        <time>2013-06-23T17:24:21.000+02:00</time>
      </trkpt>
      <trkpt lat="46.354348337753386" lon="7.143020872155219">
        <time>2013-06-23T17:24:21.000+02:00</time>
      </trkpt>
      <trkpt lat="46.354276847495" lon="7.143203147387451">
        <time>2013-06-23T17:24:21.000+02:00</time>
      </trkpt>
      <trkpt lat="46.35399872985531" lon="7.143490479232371">
        <time>2013-06-23T17:24:21.000+02:00</time>
      </trkpt>
      <trkpt lat="46.35375669507889" lon="7.143816587636678">
        <time>2013-06-23T17:24:21.000+02:00</time>
      </trkpt>
      <trkpt lat="46.35360478364826" lon="7.144207163375723">
        <time>2013-06-23T17:24:21.000+02:00</time>
      </trkpt>
      <trkpt lat="46.35355118141598" lon="7.144350362567113">
        <time>2013-06-23T17:24:21.000+02:00</time>
      </trkpt>
      <trkpt lat="46.35325651725889" lon="7.145196414622684">
        <time>2013-06-23T17:24:21.000+02:00</time>
      </trkpt>
      <trkpt lat="46.35319428788926" lon="7.145482566320979">
        <time>2013-06-23T17:24:21.000+02:00</time>
      </trkpt>
      <trkpt lat="46.353078352940045" lon="7.14587293952842">
        <time>2013-06-23T17:24:21.000+02:00</time>
      </trkpt>
      <trkpt lat="46.352792170966175" lon="7.146524057461851">
        <time>2013-06-23T17:24:21.000+02:00</time>
      </trkpt>
      <trkpt lat="46.35263138837693" lon="7.146966632218487">
        <time>2013-06-23T17:24:21.000+02:00</time>
      </trkpt>
      <trkpt lat="46.35255096303129" lon="7.147174927326295">
        <time>2013-06-23T17:24:21.000+02:00</time>
      </trkpt>
      <trkpt lat="46.35243508897053" lon="7.147591274825666">
        <time>2013-06-23T17:24:21.000+02:00</time>
      </trkpt>
      <trkpt lat="46.35238191575584" lon="7.147903353828919">
        <time>2013-06-23T17:24:21.000+02:00</time>
      </trkpt>
      <trkpt lat="46.35234653305896" lon="7.148137388639242">
        <time>2013-06-23T17:24:21.000+02:00</time>
      </trkpt>
      <trkpt lat="46.35231158222147" lon="7.148540309162758">
        <time>2013-06-23T17:24:21.000+02:00</time>
      </trkpt>
      <trkpt lat="46.352231718570074" lon="7.148969451342475">
        <time>2013-06-23T17:24:21.000+02:00</time>
      </trkpt>
      <trkpt lat="46.35214259249745" lon="7.149294710596093">
        <time>2013-06-23T17:24:21.000+02:00</time>
      </trkpt>
      <trkpt lat="46.3520264125718" lon="7.1495941299653145">
        <time>2013-06-23T17:24:21.000+02:00</time>
      </trkpt>
      <trkpt lat="46.351838499012445" lon="7.149984868229091">
        <time>2013-06-23T17:24:21.000+02:00</time>
      </trkpt>
      <trkpt lat="46.35163249387534" lon="7.150336726001367">
        <time>2013-06-23T17:24:21.000+02:00</time>
      </trkpt>
      <trkpt lat="46.351390769381396" lon="7.1507926998535005">
        <time>2013-06-23T17:24:21.000+02:00</time>
      </trkpt>
      <trkpt lat="46.35136391465595" lon="7.150844806809723">
        <time>2013-06-23T17:24:21.000+02:00</time>
      </trkpt>
      <trkpt lat="46.351257351956804" lon="7.151390999647619">
        <time>2013-06-23T17:24:21.000+02:00</time>
      </trkpt>
      <trkpt lat="46.35127675728612" lon="7.151949516988755">
        <time>2013-06-23T17:24:21.000+02:00</time>
      </trkpt>
      <trkpt lat="46.35132301535345" lon="7.152455928659752">
        <time>2013-06-23T17:24:21.000+02:00</time>
      </trkpt>
      <trkpt lat="46.351405646170186" lon="7.153118044281308">
        <time>2013-06-23T17:24:21.000+02:00</time>
      </trkpt>
      <trkpt lat="46.35141500158871" lon="7.153260898252672">
        <time>2013-06-23T17:24:21.000+02:00</time>
      </trkpt>
      <trkpt lat="46.35135288254585" lon="7.153598995048453">
        <time>2013-06-23T17:24:21.000+02:00</time>
      </trkpt>
      <trkpt lat="46.35132609185079" lon="7.153677082581739">
        <time>2013-06-23T17:24:21.000+02:00</time>
      </trkpt>
      <trkpt lat="46.3512182431231" lon="7.153716621484118">
        <time>2013-06-23T17:24:21.000+02:00</time>
      </trkpt>
      <trkpt lat="46.35100234972952" lon="7.153717753282335">
        <time>2013-06-23T17:24:21.000+02:00</time>
      </trkpt>
      <trkpt lat="46.35062492803152" lon="7.153875623895341">
        <time>2013-06-23T17:24:21.000+02:00</time>
      </trkpt>
      <trkpt lat="46.35031024666092" lon="7.153942227277663">
        <time>2013-06-23T17:24:21.000+02:00</time>
      </trkpt>
      <trkpt lat="46.349887553312996" lon="7.153983413882459">
        <time>2013-06-23T17:24:21.000+02:00</time>
      </trkpt>
      <trkpt lat="46.34976164812439" lon="7.153997064090366">
        <time>2013-06-23T17:24:21.000+02:00</time>
      </trkpt>
      <trkpt lat="46.34947369239842" lon="7.1539595999532235">
        <time>2013-06-23T17:24:21.000+02:00</time>
      </trkpt>
      <trkpt lat="46.34923032277581" lon="7.153766014609985">
        <time>2013-06-23T17:24:21.000+02:00</time>
      </trkpt>
      <trkpt lat="46.34900523791518" lon="7.1536892506456775">
        <time>2013-06-23T17:24:21.000+02:00</time>
      </trkpt>
      <trkpt lat="46.3488257838166" lon="7.153872059494385">
        <time>2013-06-23T17:24:21.000+02:00</time>
      </trkpt>
      <trkpt lat="46.348538708809535" lon="7.154185335675603">
        <time>2013-06-23T17:24:21.000+02:00</time>
      </trkpt>
      <trkpt lat="46.348556765123135" lon="7.154211222195272">
        <time>2013-06-23T17:24:21.000+02:00</time>
      </trkpt>
      <trkpt lat="46.3482516980643" lon="7.154524589078505">
        <time>2013-06-23T17:24:21.000+02:00</time>
      </trkpt>
      <trkpt lat="46.34825179574233" lon="7.154563559875395">
        <time>2013-06-23T17:24:21.000+02:00</time>
      </trkpt>
      <trkpt lat="46.34831443900195" lon="7.154433327959564">
        <time>2013-06-23T17:24:21.000+02:00</time>
      </trkpt>
      <trkpt lat="46.34809052654234" lon="7.154824210695894">
        <time>2013-06-23T17:24:21.000+02:00</time>
      </trkpt>
      <trkpt lat="46.347893534442186" lon="7.155188969128464">
        <time>2013-06-23T17:24:21.000+02:00</time>
      </trkpt>
      <trkpt lat="46.347678582495305" lon="7.155566808748755">
        <time>2013-06-23T17:24:21.000+02:00</time>
      </trkpt>
      <trkpt lat="46.347481620406455" lon="7.1559445518079015">
        <time>2013-06-23T17:24:21.000+02:00</time>
      </trkpt>
      <trkpt lat="46.347428165246484" lon="7.156152673640346">
        <time>2013-06-23T17:24:21.000+02:00</time>
      </trkpt>
      <trkpt lat="46.34751880037824" lon="7.156424998041637">
        <time>2013-06-23T17:24:21.000+02:00</time>
      </trkpt>
      <trkpt lat="46.34769951968142" lon="7.156748817271721">
        <time>2013-06-23T17:24:21.000+02:00</time>
      </trkpt>
      <trkpt lat="46.34783496977978" lon="7.1569559601467745">
        <time>2013-06-23T17:24:21.000+02:00</time>
      </trkpt>
      <trkpt lat="46.3478801089701" lon="7.157020677941779">
        <time>2013-06-23T17:24:21.000+02:00</time>
      </trkpt>
      <trkpt lat="46.34784454618997" lon="7.157189736584063">
        <time>2013-06-23T17:24:21.000+02:00</time>
      </trkpt>
      <trkpt lat="46.347683432064585" lon="7.1575153283182225">
        <time>2013-06-23T17:24:21.000+02:00</time>
      </trkpt>
      <trkpt lat="46.34764764311429" lon="7.15759345516286">
        <time>2013-06-23T17:24:21.000+02:00</time>
      </trkpt>
      <trkpt lat="46.34770187410016" lon="7.15769709716986">
        <time>2013-06-23T17:24:21.000+02:00</time>
      </trkpt>
      <trkpt lat="46.347738210424545" lon="7.157839802777161">
        <time>2013-06-23T17:24:21.000+02:00</time>
      </trkpt>
      <trkpt lat="46.34768513757015" lon="7.15820380531749">
        <time>2013-06-23T17:24:21.000+02:00</time>
      </trkpt>
      <trkpt lat="46.34758692524009" lon="7.15850308836241">
        <time>2013-06-23T17:24:21.000+02:00</time>
      </trkpt>
      <trkpt lat="46.34740768793866" lon="7.15877680701245">
        <time>2013-06-23T17:24:21.000+02:00</time>
      </trkpt>
      <trkpt lat="46.347183343995624" lon="7.158998795165069">
        <time>2013-06-23T17:24:21.000+02:00</time>
      </trkpt>
      <trkpt lat="46.34703064378756" lon="7.159090511768584">
        <time>2013-06-23T17:24:21.000+02:00</time>
      </trkpt>
      <trkpt lat="46.34687819968014" lon="7.159286147378476">
        <time>2013-06-23T17:24:21.000+02:00</time>
      </trkpt>
      <trkpt lat="46.34673484676879" lon="7.159520705409136">
        <time>2013-06-23T17:24:21.000+02:00</time>
      </trkpt>
      <trkpt lat="46.34660977209049" lon="7.1598720787806025">
        <time>2013-06-23T17:24:21.000+02:00</time>
      </trkpt>
      <trkpt lat="46.34654728223413" lon="7.160067249652475">
        <time>2013-06-23T17:24:21.000+02:00</time>
      </trkpt>
      <trkpt lat="46.346467215547335" lon="7.160431380171913">
        <time>2013-06-23T17:24:21.000+02:00</time>
      </trkpt>
      <trkpt lat="46.34642316177359" lon="7.1608083155210345">
        <time>2013-06-23T17:24:21.000+02:00</time>
      </trkpt>
      <trkpt lat="46.34637007938707" lon="7.161172306357382">
        <time>2013-06-23T17:24:21.000+02:00</time>
      </trkpt>
      <trkpt lat="46.346307904990645" lon="7.16149737292675">
        <time>2013-06-23T17:24:21.000+02:00</time>
      </trkpt>
      <trkpt lat="46.34623676582583" lon="7.16183547435358">
        <time>2013-06-23T17:24:21.000+02:00</time>
      </trkpt>
      <trkpt lat="46.34612951665833" lon="7.162121798859973">
        <time>2013-06-23T17:24:21.000+02:00</time>
      </trkpt>
      <trkpt lat="46.34600395899151" lon="7.16227831633456">
        <time>2013-06-23T17:24:21.000+02:00</time>
      </trkpt>
      <trkpt lat="46.345914288380115" lon="7.162395681107313">
        <time>2013-06-23T17:24:21.000+02:00</time>
      </trkpt>
      <trkpt lat="46.34578869869334" lon="7.162539207647533">
        <time>2013-06-23T17:24:21.000+02:00</time>
      </trkpt>
      <trkpt lat="46.34567185132575" lon="7.162578770622479">
        <time>2013-06-23T17:24:21.000+02:00</time>
      </trkpt>
      <trkpt lat="46.34558151594999" lon="7.162423351900492">
        <time>2013-06-23T17:24:21.000+02:00</time>
      </trkpt>
      <trkpt lat="46.345572488732294" lon="7.162410407982735">
        <time>2013-06-23T17:24:21.000+02:00</time>
      </trkpt>
      <trkpt lat="46.34551851536831" lon="7.1624106822696865">
        <time>2013-06-23T17:24:21.000+02:00</time>
      </trkpt>
      <trkpt lat="46.345446677502" lon="7.162463006385074">
        <time>2013-06-23T17:24:21.000+02:00</time>
      </trkpt>
      <trkpt lat="46.3453208978926" lon="7.162528594113951">
        <time>2013-06-23T17:24:21.000+02:00</time>
      </trkpt>
      <trkpt lat="46.34518590119148" lon="7.162503300457936">
        <time>2013-06-23T17:24:21.000+02:00</time>
      </trkpt>
      <trkpt lat="46.34503294501319" lon="7.1624910878345025">
        <time>2013-06-23T17:24:21.000+02:00</time>
      </trkpt>
      <trkpt lat="46.34487111986127" lon="7.162530878832608">
        <time>2013-06-23T17:24:21.000+02:00</time>
      </trkpt>
      <trkpt lat="46.34473602821464" lon="7.162466617089079">
        <time>2013-06-23T17:24:21.000+02:00</time>
      </trkpt>
      <trkpt lat="46.34451082261543" lon="7.162337865932248">
        <time>2013-06-23T17:24:21.000+02:00</time>
      </trkpt>
      <trkpt lat="46.34438488476946" lon="7.162338506089354">
        <time>2013-06-23T17:24:21.000+02:00</time>
      </trkpt>
      <trkpt lat="46.344268132453045" lon="7.162417036428591">
        <time>2013-06-23T17:24:21.000+02:00</time>
      </trkpt>
      <trkpt lat="46.3440974700129" lon="7.162521819180777">
        <time>2013-06-23T17:24:21.000+02:00</time>
      </trkpt>
      <trkpt lat="46.34393561321215" lon="7.162548620162955">
        <time>2013-06-23T17:24:21.000+02:00</time>
      </trkpt>
      <trkpt lat="46.34380951713865" lon="7.162484313780109">
        <time>2013-06-23T17:24:21.000+02:00</time>
      </trkpt>
      <trkpt lat="46.34361148820242" lon="7.162433362546985">
        <time>2013-06-23T17:24:21.000+02:00</time>
      </trkpt>
      <trkpt lat="46.343467495924656" lon="7.16240811563517">
        <time>2013-06-23T17:24:21.000+02:00</time>
      </trkpt>
      <trkpt lat="46.34341342758238" lon="7.1623694225708014">
        <time>2013-06-23T17:24:21.000+02:00</time>
      </trkpt>
      <trkpt lat="46.34329658027986" lon="7.162408984180859">
        <time>2013-06-23T17:24:21.000+02:00</time>
      </trkpt>
      <trkpt lat="46.34314362409751" lon="7.162396772246249">
        <time>2013-06-23T17:24:21.000+02:00</time>
      </trkpt>
      <trkpt lat="46.34301733791302" lon="7.1622545330353375">
        <time>2013-06-23T17:24:21.000+02:00</time>
      </trkpt>
      <trkpt lat="46.34299931511643" lon="7.162241635496374">
        <time>2013-06-23T17:24:21.000+02:00</time>
      </trkpt>
      <trkpt lat="46.34284661229741" lon="7.1623333359283485">
        <time>2013-06-23T17:24:21.000+02:00</time>
      </trkpt>
      <trkpt lat="46.34281968894725" lon="7.162359451047531">
        <time>2013-06-23T17:24:21.000+02:00</time>
      </trkpt>
      <trkpt lat="46.342802140971386" lon="7.162541388041823">
        <time>2013-06-23T17:24:21.000+02:00</time>
      </trkpt>
      <trkpt lat="46.3428022042539" lon="7.162567365978238">
        <time>2013-06-23T17:24:21.000+02:00</time>
      </trkpt>
      <trkpt lat="46.342739361879545" lon="7.162619641593683">
        <time>2013-06-23T17:24:21.000+02:00</time>
      </trkpt>
      <trkpt lat="46.342577441795974" lon="7.1626204637850215">
        <time>2013-06-23T17:24:21.000+02:00</time>
      </trkpt>
      <trkpt lat="46.34255045511542" lon="7.162620600816426">
        <time>2013-06-23T17:24:21.000+02:00</time>
      </trkpt>
      <trkpt lat="46.34238847176238" lon="7.16259544526315">
        <time>2013-06-23T17:24:21.000+02:00</time>
      </trkpt>
      <trkpt lat="46.34225360163051" lon="7.1626221081527115">
        <time>2013-06-23T17:24:21.000+02:00</time>
      </trkpt>
      <trkpt lat="46.3421368807466" lon="7.162713623612182">
        <time>2013-06-23T17:24:21.000+02:00</time>
      </trkpt>
      <trkpt lat="46.342001978966955" lon="7.1627272973078835">
        <time>2013-06-23T17:24:21.000+02:00</time>
      </trkpt>
      <trkpt lat="46.3418579551346" lon="7.162689061621446">
        <time>2013-06-23T17:24:21.000+02:00</time>
      </trkpt>
      <trkpt lat="46.34167782251708" lon="7.16259905402454">
        <time>2013-06-23T17:24:21.000+02:00</time>
      </trkpt>
      <trkpt lat="46.341533672068515" lon="7.162508864245331">
        <time>2013-06-23T17:24:21.000+02:00</time>
      </trkpt>
      <trkpt lat="46.34144346325028" lon="7.162405412043587">
        <time>2013-06-23T17:24:21.000+02:00</time>
      </trkpt>
      <trkpt lat="46.34138033602115" lon="7.162340788883658">
        <time>2013-06-23T17:24:21.000+02:00</time>
      </trkpt>
      <trkpt lat="46.34126317204735" lon="7.1622504630711505">
        <time>2013-06-23T17:24:21.000+02:00</time>
      </trkpt>
      <trkpt lat="46.341047215258364" lon="7.162225583663098">
        <time>2013-06-23T17:24:21.000+02:00</time>
      </trkpt>
      <trkpt lat="46.34085815009187" lon="7.162161601706783">
        <time>2013-06-23T17:24:21.000+02:00</time>
      </trkpt>
      <trkpt lat="46.34079511779888" lon="7.162135944990764">
        <time>2013-06-23T17:24:21.000+02:00</time>
      </trkpt>
      <trkpt lat="46.34065109377087" lon="7.16209771171941">
        <time>2013-06-23T17:24:21.000+02:00</time>
      </trkpt>
      <trkpt lat="46.34051612868296" lon="7.162085409725715">
        <time>2013-06-23T17:24:21.000+02:00</time>
      </trkpt>
      <trkpt lat="46.34045319146031" lon="7.1620987184792755">
        <time>2013-06-23T17:24:21.000+02:00</time>
      </trkpt>
      <trkpt lat="46.34032741207514" lon="7.162164301023738">
        <time>2013-06-23T17:24:21.000+02:00</time>
      </trkpt>
      <trkpt lat="46.34019247868205" lon="7.162164987282186">
        <time>2013-06-23T17:24:21.000+02:00</time>
      </trkpt>
      <trkpt lat="46.340030495236356" lon="7.162139834176356">
        <time>2013-06-23T17:24:21.000+02:00</time>
      </trkpt>
      <trkpt lat="46.33994947182067" lon="7.1621142693933075">
        <time>2013-06-23T17:24:21.000+02:00</time>
      </trkpt>
      <trkpt lat="46.339814538429025" lon="7.162114955770987">
        <time>2013-06-23T17:24:21.000+02:00</time>
      </trkpt>
      <trkpt lat="46.33967970010568" lon="7.162154606810729">
        <time>2013-06-23T17:24:21.000+02:00</time>
      </trkpt>
      <trkpt lat="46.339571753392796" lon="7.162155155830217">
        <time>2013-06-23T17:24:21.000+02:00</time>
      </trkpt>
      <trkpt lat="46.339544956809725" lon="7.162233222222808">
        <time>2013-06-23T17:24:21.000+02:00</time>
      </trkpt>
      <trkpt lat="46.33952740903758" lon="7.162415148297429">
        <time>2013-06-23T17:24:21.000+02:00</time>
      </trkpt>
      <trkpt lat="46.33947375217792" lon="7.162545304276198">
        <time>2013-06-23T17:24:21.000+02:00</time>
      </trkpt>
      <trkpt lat="46.339330518993776" lon="7.162831774315379">
        <time>2013-06-23T17:24:21.000+02:00</time>
      </trkpt>
      <trkpt lat="46.33921417702845" lon="7.163079141735785">
        <time>2013-06-23T17:24:21.000+02:00</time>
      </trkpt>
      <trkpt lat="46.33901715839959" lon="7.163443810690901">
        <time>2013-06-23T17:24:21.000+02:00</time>
      </trkpt>
      <trkpt lat="46.338856057839735" lon="7.163782319041374">
        <time>2013-06-23T17:24:21.000+02:00</time>
      </trkpt>
      <trkpt lat="46.33866771784806" lon="7.1640170578118205">
        <time>2013-06-23T17:24:21.000+02:00</time>
      </trkpt>
      <trkpt lat="46.338452107610436" lon="7.164135039797965">
        <time>2013-06-23T17:24:21.000+02:00</time>
      </trkpt>
      <trkpt lat="46.33820941622479" lon="7.164214193442076">
        <time>2013-06-23T17:24:21.000+02:00</time>
      </trkpt>
      <trkpt lat="46.33809263118168" lon="7.164279722985455">
        <time>2013-06-23T17:24:21.000+02:00</time>
      </trkpt>
      <trkpt lat="46.33792187274128" lon="7.164345524573317">
        <time>2013-06-23T17:24:21.000+02:00</time>
      </trkpt>
      <trkpt lat="46.33771497486307" lon="7.164346568484851">
        <time>2013-06-23T17:24:21.000+02:00</time>
      </trkpt>
      <trkpt lat="46.33742708551075" lon="7.164335033185018">
        <time>2013-06-23T17:24:21.000+02:00</time>
      </trkpt>
      <trkpt lat="46.3372112863796" lon="7.164375085415504">
        <time>2013-06-23T17:24:21.000+02:00</time>
      </trkpt>
      <trkpt lat="46.33707641584468" lon="7.1644017413481516">
        <time>2013-06-23T17:24:21.000+02:00</time>
      </trkpt>
      <trkpt lat="46.336869580825805" lon="7.164428760132536">
        <time>2013-06-23T17:24:21.000+02:00</time>
      </trkpt>
      <trkpt lat="46.336626606427544" lon="7.1643910227150815">
        <time>2013-06-23T17:24:21.000+02:00</time>
      </trkpt>
      <trkpt lat="46.33643763681022" lon="7.164366000773001">
        <time>2013-06-23T17:24:21.000+02:00</time>
      </trkpt>
      <trkpt lat="46.33624885578023" lon="7.164418903425848">
        <time>2013-06-23T17:24:21.000+02:00</time>
      </trkpt>
      <trkpt lat="46.33602434381199" lon="7.164575885971211">
        <time>2013-06-23T17:24:21.000+02:00</time>
      </trkpt>
      <trkpt lat="46.335773096033186" lon="7.1648369015056215">
        <time>2013-06-23T17:24:21.000+02:00</time>
      </trkpt>
      <trkpt lat="46.33553068644716" lon="7.165032933204246">
        <time>2013-06-23T17:24:21.000+02:00</time>
      </trkpt>
      <trkpt lat="46.33528799445086" lon="7.165112078583977">
        <time>2013-06-23T17:24:21.000+02:00</time>
      </trkpt>
      <trkpt lat="46.33509043687569" lon="7.165255932667121">
        <time>2013-06-23T17:24:21.000+02:00</time>
      </trkpt>
      <trkpt lat="46.33484787000439" lon="7.16538702468779">
        <time>2013-06-23T17:24:21.000+02:00</time>
      </trkpt>
      <trkpt lat="46.33465018686998" lon="7.165478928517667">
        <time>2013-06-23T17:24:21.000+02:00</time>
      </trkpt>
      <trkpt lat="46.334488360706764" lon="7.1655187030166685">
        <time>2013-06-23T17:24:21.000+02:00</time>
      </trkpt>
      <trkpt lat="46.33428158802805" lon="7.165571690131939">
        <time>2013-06-23T17:24:21.000+02:00</time>
      </trkpt>
      <trkpt lat="46.33412897639287" lon="7.165702327195128">
        <time>2013-06-23T17:24:21.000+02:00</time>
      </trkpt>
      <trkpt lat="46.33398526636422" lon="7.16579395779573">
        <time>2013-06-23T17:24:21.000+02:00</time>
      </trkpt>
      <trkpt lat="46.333805574023245" lon="7.1658857684287876">
        <time>2013-06-23T17:24:21.000+02:00</time>
      </trkpt>
      <trkpt lat="46.33363484591869" lon="7.165964546560919">
        <time>2013-06-23T17:24:21.000+02:00</time>
      </trkpt>
      <trkpt lat="46.333491291860504" lon="7.166121109364364">
        <time>2013-06-23T17:24:21.000+02:00</time>
      </trkpt>
      <trkpt lat="46.33335663949605" lon="7.166238666135687">
        <time>2013-06-23T17:24:21.000+02:00</time>
      </trkpt>
      <trkpt lat="46.333185973564916" lon="7.166343415854921">
        <time>2013-06-23T17:24:21.000+02:00</time>
      </trkpt>
      <trkpt lat="46.33296139656612" lon="7.166474408367885">
        <time>2013-06-23T17:24:21.000+02:00</time>
      </trkpt>
      <trkpt lat="46.33278182839203" lon="7.166618161328903">
        <time>2013-06-23T17:24:21.000+02:00</time>
      </trkpt>
      <trkpt lat="46.332638242275486" lon="7.166761733407325">
        <time>2013-06-23T17:24:21.000+02:00</time>
      </trkpt>
      <trkpt lat="46.332512647097104" lon="7.166905214808556">
        <time>2013-06-23T17:24:21.000+02:00</time>
      </trkpt>
      <trkpt lat="46.33241397616168" lon="7.167022587761969">
        <time>2013-06-23T17:24:21.000+02:00</time>
      </trkpt>
      <trkpt lat="46.3323332651082" lon="7.167126883978663">
        <time>2013-06-23T17:24:21.000+02:00</time>
      </trkpt>
      <trkpt lat="46.332297345100116" lon="7.167153036591366">
        <time>2013-06-23T17:24:21.000+02:00</time>
      </trkpt>
      <trkpt lat="46.33213545613635" lon="7.167166831539532">
        <time>2013-06-23T17:24:21.000+02:00</time>
      </trkpt>
      <trkpt lat="46.332000522739214" lon="7.167167505274857">
        <time>2013-06-23T17:24:21.000+02:00</time>
      </trkpt>
      <trkpt lat="46.331856624894414" lon="7.1671812102781125">
        <time>2013-06-23T17:24:21.000+02:00</time>
      </trkpt>
      <trkpt lat="46.33166793587903" lon="7.167273057628203">
        <time>2013-06-23T17:24:21.000+02:00</time>
      </trkpt>
      <trkpt lat="46.33152428676571" lon="7.167390652481613">
        <time>2013-06-23T17:24:21.000+02:00</time>
      </trkpt>
      <trkpt lat="46.33138953986359" lon="7.167469243120987">
        <time>2013-06-23T17:24:21.000+02:00</time>
      </trkpt>
      <trkpt lat="46.33130889052999" lon="7.1675995091600315">
        <time>2013-06-23T17:24:21.000+02:00</time>
      </trkpt>
      <trkpt lat="46.331201285414565" lon="7.167742895477996">
        <time>2013-06-23T17:24:21.000+02:00</time>
      </trkpt>
      <trkpt lat="46.33119238298767" lon="7.167781898890736">
        <time>2013-06-23T17:24:21.000+02:00</time>
      </trkpt>
      <trkpt lat="46.33110304793222" lon="7.168042070549736">
        <time>2013-06-23T17:24:21.000+02:00</time>
      </trkpt>
      <trkpt lat="46.33095986283722" lon="7.168354454285384">
        <time>2013-06-23T17:24:21.000+02:00</time>
      </trkpt>
      <trkpt lat="46.33079893323883" lon="7.168770814542802">
        <time>2013-06-23T17:25:21.000+02:00</time>
      </trkpt>
      <trkpt lat="46.330547984743426" lon="7.16916164604809">
        <time>2013-06-23T17:26:21.000+02:00</time>
      </trkpt>
      <trkpt lat="46.33029684983974" lon="7.1694745580364145">
        <time>2013-06-23T17:27:21.000+02:00</time>
      </trkpt>
      <trkpt lat="46.33017146701858" lon="7.1697089286763385">
        <time>2013-06-23T17:27:21.000+02:00</time>
      </trkpt>
      <trkpt lat="46.32992002267782" lon="7.169891977018428">
        <time>2013-06-23T17:27:21.000+02:00</time>
      </trkpt>
      <trkpt lat="46.32972255140544" lon="7.1700747570718715">
        <time>2013-06-23T17:28:21.000+02:00</time>
      </trkpt>
      <trkpt lat="46.32965077157083" lon="7.17015302751747">
        <time>2013-06-23T17:28:21.000+02:00</time>
      </trkpt>
      <trkpt lat="46.329470614152946" lon="7.1700500296034635">
        <time>2013-06-23T17:28:21.000+02:00</time>
      </trkpt>
      <trkpt lat="46.3294526538136" lon="7.170063104259942">
        <time>2013-06-23T17:28:21.000+02:00</time>
      </trkpt>
      <trkpt lat="46.32948854370641" lon="7.1700239691462535">
        <time>2013-06-23T17:28:21.000+02:00</time>
      </trkpt>
      <trkpt lat="46.329380596982304" lon="7.170024502434965">
        <time>2013-06-23T17:28:21.000+02:00</time>
      </trkpt>
      <trkpt lat="46.32928189205115" lon="7.170128877222904">
        <time>2013-06-23T17:28:21.000+02:00</time>
      </trkpt>
      <trkpt lat="46.32918327930079" lon="7.170272208789768">
        <time>2013-06-23T17:28:21.000+02:00</time>
      </trkpt>
      <trkpt lat="46.32913870120947" lon="7.170441244999842">
        <time>2013-06-23T17:28:21.000+02:00</time>
      </trkpt>
      <trkpt lat="46.32906695185031" lon="7.1705324998127065">
        <time>2013-06-23T17:28:21.000+02:00</time>
      </trkpt>
      <trkpt lat="46.328977149861146" lon="7.170597871726418">
        <time>2013-06-23T17:28:21.000+02:00</time>
      </trkpt>
      <trkpt lat="46.32883358941796" lon="7.170754408883397">
        <time>2013-06-23T17:28:21.000+02:00</time>
      </trkpt>
      <trkpt lat="46.32871695407067" lon="7.170884841116827">
        <time>2013-06-23T17:28:21.000+02:00</time>
      </trkpt>
      <trkpt lat="46.328618217673416" lon="7.170976227484088">
        <time>2013-06-23T17:28:21.000+02:00</time>
      </trkpt>
      <trkpt lat="46.328474472733824" lon="7.171054849305353">
        <time>2013-06-23T17:28:21.000+02:00</time>
      </trkpt>
      <trkpt lat="46.328339631320134" lon="7.171094469899539">
        <time>2013-06-23T17:28:21.000+02:00</time>
      </trkpt>
      <trkpt lat="46.32826782012947" lon="7.171159751506743">
        <time>2013-06-23T17:28:21.000+02:00</time>
      </trkpt>
      <trkpt lat="46.32816923671535" lon="7.171316064008369">
        <time>2013-06-23T17:28:21.000+02:00</time>
      </trkpt>
      <trkpt lat="46.32808827667042" lon="7.171316462041072">
        <time>2013-06-23T17:28:21.000+02:00</time>
      </trkpt>
      <trkpt lat="46.32805217186856" lon="7.1712646971449185">
        <time>2013-06-23T17:28:21.000+02:00</time>
      </trkpt>
      <trkpt lat="46.32794413320736" lon="7.1712262716838175">
        <time>2013-06-23T17:28:21.000+02:00</time>
      </trkpt>
      <trkpt lat="46.32792617273299" lon="7.1712393455846195">
        <time>2013-06-23T17:28:21.000+02:00</time>
      </trkpt>
      <trkpt lat="46.327737602976384" lon="7.171383113708834">
        <time>2013-06-23T17:28:21.000+02:00</time>
      </trkpt>
      <trkpt lat="46.32756711599121" lon="7.17156574845692">
        <time>2013-06-23T17:28:21.000+02:00</time>
      </trkpt>
      <trkpt lat="46.32745950586697" lon="7.1717091170575475">
        <time>2013-06-23T17:28:21.000+02:00</time>
      </trkpt>
      <trkpt lat="46.327379035102545" lon="7.171917279127928">
        <time>2013-06-23T17:28:21.000+02:00</time>
      </trkpt>
      <trkpt lat="46.32731643288821" lon="7.1720734113013815">
        <time>2013-06-23T17:28:21.000+02:00</time>
      </trkpt>
      <trkpt lat="46.32722666055604" lon="7.172151763818237">
        <time>2013-06-23T17:28:21.000+02:00</time>
      </trkpt>
      <trkpt lat="46.32710093645875" lon="7.172243277594695">
        <time>2013-06-23T17:28:21.000+02:00</time>
      </trkpt>
      <trkpt lat="46.32699317288828" lon="7.1723217176376455">
        <time>2013-06-23T17:28:21.000+02:00</time>
      </trkpt>
      <trkpt lat="46.326912456968444" lon="7.172425995589622">
        <time>2013-06-23T17:28:21.000+02:00</time>
      </trkpt>
      <trkpt lat="46.32683167995411" lon="7.172504302913934">
        <time>2013-06-23T17:28:21.000+02:00</time>
      </trkpt>
      <trkpt lat="46.32676898547618" lon="7.172621477407443">
        <time>2013-06-23T17:28:21.000+02:00</time>
      </trkpt>
      <trkpt lat="46.32667924324397" lon="7.17271281335318">
        <time>2013-06-23T17:28:21.000+02:00</time>
      </trkpt>
      <trkpt lat="46.326607492059885" lon="7.17280406104058">
        <time>2013-06-23T17:28:21.000+02:00</time>
      </trkpt>
      <trkpt lat="46.32650857135726" lon="7.172817529884408">
        <time>2013-06-23T17:28:21.000+02:00</time>
      </trkpt>
      <trkpt lat="46.32643663733548" lon="7.172830866757715">
        <time>2013-06-23T17:28:21.000+02:00</time>
      </trkpt>
      <trkpt lat="46.32635589049602" lon="7.172922157840846">
        <time>2013-06-23T17:28:21.000+02:00</time>
      </trkpt>
      <trkpt lat="46.32632003005282" lon="7.172974273823734">
        <time>2013-06-23T17:28:21.000+02:00</time>
      </trkpt>
      <trkpt lat="46.32631106493828" lon="7.172987302808715">
        <time>2013-06-23T17:28:21.000+02:00</time>
      </trkpt>
      <trkpt lat="46.32626623934313" lon="7.173052447669174">
        <time>2013-06-23T17:28:21.000+02:00</time>
      </trkpt>
      <trkpt lat="46.326203392157716" lon="7.173104695265323">
        <time>2013-06-23T17:28:21.000+02:00</time>
      </trkpt>
      <trkpt lat="46.326149601358196" lon="7.173182868814048">
        <time>2013-06-23T17:28:21.000+02:00</time>
      </trkpt>
      <trkpt lat="46.32611377121161" lon="7.1732479694152715">
        <time>2013-06-23T17:28:21.000+02:00</time>
      </trkpt>
      <trkpt lat="46.326095840918185" lon="7.173274027191839">
        <time>2013-06-23T17:28:21.000+02:00</time>
      </trkpt>
      <trkpt lat="46.326068945466815" lon="7.173313113824467">
        <time>2013-06-23T17:28:21.000+02:00</time>
      </trkpt>
      <trkpt lat="46.32605098475252" lon="7.173326186585003">
        <time>2013-06-23T17:28:21.000+02:00</time>
      </trkpt>
      <trkpt lat="46.3260329632235" lon="7.173313289399374">
        <time>2013-06-23T17:28:21.000+02:00</time>
      </trkpt>
      <trkpt lat="46.32601494169299" lon="7.173300392222292">
        <time>2013-06-23T17:28:21.000+02:00</time>
      </trkpt>
      <trkpt lat="46.32600594613218" lon="7.173300436118101">
        <time>2013-06-23T17:28:21.000+02:00</time>
      </trkpt>
      <trkpt lat="46.32599695057136" lon="7.173300480013895">
        <time>2013-06-23T17:28:21.000+02:00</time>
      </trkpt>
      <trkpt lat="46.325987894188415" lon="7.173274553993718">
        <time>2013-06-23T17:28:21.000+02:00</time>
      </trkpt>
      <trkpt lat="46.325987833360315" lon="7.173248584077821">
        <time>2013-06-23T17:28:21.000+02:00</time>
      </trkpt>
      <trkpt lat="46.32599670724706" lon="7.173196600333242">
        <time>2013-06-23T17:28:21.000+02:00</time>
      </trkpt>
      <trkpt lat="46.32601466794636" lon="7.173183527542957">
        <time>2013-06-23T17:28:21.000+02:00</time>
      </trkpt>
      <trkpt lat="46.32602345050972" lon="7.1730925888630015">
        <time>2013-06-23T17:28:21.000+02:00</time>
      </trkpt>
      <trkpt lat="46.32601424187869" lon="7.173001738044159">
        <time>2013-06-23T17:28:21.000+02:00</time>
      </trkpt>
      <trkpt lat="46.32598728563966" lon="7.173014854837423">
        <time>2013-06-23T17:28:21.000+02:00</time>
      </trkpt>
      <trkpt lat="46.32596929451827" lon="7.173014942723455">
        <time>2013-06-23T17:28:21.000+02:00</time>
      </trkpt>
      <trkpt lat="46.32592440803497" lon="7.173054117266231">
        <time>2013-06-23T17:28:21.000+02:00</time>
      </trkpt>
      <trkpt lat="46.32584350886131" lon="7.1730804825406835">
        <time>2013-06-23T17:28:21.000+02:00</time>
      </trkpt>
      <trkpt lat="46.32580761791622" lon="7.173119613013174">
        <time>2013-06-23T17:28:21.000+02:00</time>
      </trkpt>
      <trkpt lat="46.32578959636378" lon="7.173106715953724">
        <time>2013-06-23T17:28:21.000+02:00</time>
      </trkpt>
      <trkpt lat="46.32575349238206" lon="7.173054952056723">
        <time>2013-06-23T17:28:21.000+02:00</time>
      </trkpt>
      <trkpt lat="46.32572638393735" lon="7.173003144283722">
        <time>2013-06-23T17:28:21.000+02:00</time>
      </trkpt>
      <trkpt lat="46.32569945813979" lon="7.173029245895751">
        <time>2013-06-23T17:28:21.000+02:00</time>
      </trkpt>
      <trkpt lat="46.32569049301907" lon="7.17304227472295">
        <time>2013-06-23T17:28:21.000+02:00</time>
      </trkpt>
      <trkpt lat="46.32567259320858" lon="7.173081317247009">
        <time>2013-06-23T17:28:21.000+02:00</time>
      </trkpt>
      <trkpt lat="46.32565469338467" lon="7.173120359745364">
        <time>2013-06-23T17:28:21.000+02:00</time>
      </trkpt>
      <trkpt lat="46.32564566739305" lon="7.173107418794505">
        <time>2013-06-23T17:28:21.000+02:00</time>
      </trkpt>
      <trkpt lat="46.325600476531555" lon="7.1730167443740385">
        <time>2013-06-23T17:28:21.000+02:00</time>
      </trkpt>
      <trkpt lat="46.3255823940774" lon="7.172977877675864">
        <time>2013-06-23T17:28:21.000+02:00</time>
      </trkpt>
      <trkpt lat="46.32553735537843" lon="7.172952127719319">
        <time>2013-06-23T17:28:21.000+02:00</time>
      </trkpt>
      <trkpt lat="46.32551030779479" lon="7.172926289890892">
        <time>2013-06-23T17:28:21.000+02:00</time>
      </trkpt>
      <trkpt lat="46.32547417327177" lon="7.172861541544498">
        <time>2013-06-23T17:28:21.000+02:00</time>
      </trkpt>
      <trkpt lat="46.3254289212702" lon="7.172744897966009">
        <time>2013-06-23T17:28:21.000+02:00</time>
      </trkpt>
      <trkpt lat="46.325374734558444" lon="7.172654268210476">
        <time>2013-06-23T17:28:21.000+02:00</time>
      </trkpt>
      <trkpt lat="46.32530264812892" lon="7.1726026810515116">
        <time>2013-06-23T17:28:21.000+02:00</time>
      </trkpt>
      <trkpt lat="46.325248644276456" lon="7.172589960334067">
        <time>2013-06-23T17:28:21.000+02:00</time>
      </trkpt>
      <trkpt lat="46.325167653741644" lon="7.172577371686093">
        <time>2013-06-23T17:28:21.000+02:00</time>
      </trkpt>
      <trkpt lat="46.32509562827127" lon="7.172551754314387">
        <time>2013-06-23T17:28:21.000+02:00</time>
      </trkpt>
      <trkpt lat="46.32505949353463" lon="7.172487006710664">
        <time>2013-06-23T17:28:21.000+02:00</time>
      </trkpt>
      <trkpt lat="46.32503241533876" lon="7.17244818461133">
        <time>2013-06-23T17:28:21.000+02:00</time>
      </trkpt>
      <trkpt lat="46.32499634156938" lon="7.172409406593022">
        <time>2013-06-23T17:28:21.000+02:00</time>
      </trkpt>
      <trkpt lat="46.32493334213546" lon="7.172396730183542">
        <time>2013-06-23T17:28:21.000+02:00</time>
      </trkpt>
      <trkpt lat="46.32487933826043" lon="7.172384009756966">
        <time>2013-06-23T17:28:21.000+02:00</time>
      </trkpt>
      <trkpt lat="46.32481630830707" lon="7.172358348726501">
        <time>2013-06-23T17:28:21.000+02:00</time>
      </trkpt>
      <trkpt lat="46.32474428278788" lon="7.172332731810353">
        <time>2013-06-23T17:28:21.000+02:00</time>
      </trkpt>
      <trkpt lat="46.32466323117877" lon="7.172294174379983">
        <time>2013-06-23T17:28:21.000+02:00</time>
      </trkpt>
      <trkpt lat="46.32455525393218" lon="7.172281718497329">
        <time>2013-06-23T17:28:21.000+02:00</time>
      </trkpt>
      <trkpt lat="46.32446526780464" lon="7.172269174533911">
        <time>2013-06-23T17:28:21.000+02:00</time>
      </trkpt>
      <trkpt lat="46.32437528167592" lon="7.1722566306119795">
        <time>2013-06-23T17:28:21.000+02:00</time>
      </trkpt>
      <trkpt lat="46.32428532607594" lon="7.172257071282327">
        <time>2013-06-23T17:28:21.000+02:00</time>
      </trkpt>
      <trkpt lat="46.32420439656451" lon="7.172270452415834">
        <time>2013-06-23T17:28:21.000+02:00</time>
      </trkpt>
      <trkpt lat="46.324186435971434" lon="7.172283525072353">
        <time>2013-06-23T17:28:21.000+02:00</time>
      </trkpt>
      <trkpt lat="46.324087454285056" lon="7.172271025255392">
        <time>2013-06-23T17:28:21.000+02:00</time>
      </trkpt>
      <trkpt lat="46.324015550857645" lon="7.1722973467435605">
        <time>2013-06-23T17:28:21.000+02:00</time>
      </trkpt>
      <trkpt lat="46.32394367794504" lon="7.172336652631358">
        <time>2013-06-23T17:28:21.000+02:00</time>
      </trkpt>
      <trkpt lat="46.32393471290439" lon="7.172349681151979">
        <time>2013-06-23T17:28:21.000+02:00</time>
      </trkpt>
      <trkpt lat="46.323880922629115" lon="7.172427852185477">
        <time>2013-06-23T17:28:21.000+02:00</time>
      </trkpt>
      <trkpt lat="46.32380917167989" lon="7.172519095552308">
        <time>2013-06-23T17:28:21.000+02:00</time>
      </trkpt>
      <trkpt lat="46.32373714619903" lon="7.172493478897421">
        <time>2013-06-23T17:28:21.000+02:00</time>
      </trkpt>
      <trkpt lat="46.323728150639084" lon="7.172493522924802">
        <time>2013-06-23T17:28:21.000+02:00</time>
      </trkpt>
      <trkpt lat="46.32370116395929" lon="7.172493655006856">
        <time>2013-06-23T17:28:21.000+02:00</time>
      </trkpt>
      <trkpt lat="46.32366515121679" lon="7.172480846713209">
        <time>2013-06-23T17:28:21.000+02:00</time>
      </trkpt>
      <trkpt lat="46.323602243301366" lon="7.172507123694396">
        <time>2013-06-23T17:28:21.000+02:00</time>
      </trkpt>
      <trkpt lat="46.32353027882212" lon="7.172507475894059">
        <time>2013-06-23T17:28:21.000+02:00</time>
      </trkpt>
      <trkpt lat="46.32344928828198" lon="7.172494887766231">
        <time>2013-06-23T17:28:21.000+02:00</time>
      </trkpt>
      <trkpt lat="46.32335924117112" lon="7.172456375045219">
        <time>2013-06-23T17:28:21.000+02:00</time>
      </trkpt>
      <trkpt lat="46.32333216296604" lon="7.172417554174846">
        <time>2013-06-23T17:28:21.000+02:00</time>
      </trkpt>
      <trkpt lat="46.32330511526212" lon="7.172391717659942">
        <time>2013-06-23T17:28:21.000+02:00</time>
      </trkpt>
      <trkpt lat="46.323296028154495" lon="7.1723528087598645">
        <time>2013-06-23T17:28:21.000+02:00</time>
      </trkpt>
      <trkpt lat="46.323268980435856" lon="7.172326972294333">
        <time>2013-06-23T17:28:21.000+02:00</time>
      </trkpt>
      <trkpt lat="46.32325992383085" lon="7.172301047736896">
        <time>2013-06-23T17:28:21.000+02:00</time>
      </trkpt>
      <trkpt lat="46.323232876100434" lon="7.172275211314264">
        <time>2013-06-23T17:28:21.000+02:00</time>
      </trkpt>
      <trkpt lat="46.32320585889344" lon="7.172262359210366">
        <time>2013-06-23T17:28:21.000+02:00</time>
      </trkpt>
      <trkpt lat="46.3231697850623" lon="7.172223582617676">
        <time>2013-06-23T17:28:21.000+02:00</time>
      </trkpt>
      <trkpt lat="46.32313377228982" lon="7.172210774627989">
        <time>2013-06-23T17:28:21.000+02:00</time>
      </trkpt>
      <trkpt lat="46.323088702881435" lon="7.172172042200938">
        <time>2013-06-23T17:28:21.000+02:00</time>
      </trkpt>
      <trkpt lat="46.32307065068138" lon="7.172146161839543">
        <time>2013-06-23T17:28:21.000+02:00</time>
      </trkpt>
      <trkpt lat="46.323061655121734" lon="7.172146205923819">
        <time>2013-06-23T17:28:21.000+02:00</time>
      </trkpt>
      <trkpt lat="46.32308858071393" lon="7.172120105141021">
        <time>2013-06-23T17:28:21.000+02:00</time>
      </trkpt>
      <trkpt lat="46.32304357237021" lon="7.172107341329672">
        <time>2013-06-23T17:28:21.000+02:00</time>
      </trkpt>
      <trkpt lat="46.323007498486184" lon="7.172068564955534">
        <time>2013-06-23T17:28:21.000+02:00</time>
      </trkpt>
      <trkpt lat="46.3229805118074" lon="7.1720686972466625">
        <time>2013-06-23T17:28:21.000+02:00</time>
      </trkpt>
      <trkpt lat="46.32296252068824" lon="7.172068785440676">
        <time>2013-06-23T17:28:21.000+02:00</time>
      </trkpt>
      <trkpt lat="46.32288162175045" lon="7.172095150743996">
        <time>2013-06-23T17:28:21.000+02:00</time>
      </trkpt>
      <trkpt lat="46.32287265673785" lon="7.172108179049925">
        <time>2013-06-23T17:28:21.000+02:00</time>
      </trkpt>
      <trkpt lat="46.32280974891025" lon="7.1721344560790765">
        <time>2013-06-23T17:28:21.000+02:00</time>
      </trkpt>
      <trkpt lat="46.32272884995754" lon="7.172160821210582">
        <time>2013-06-23T17:28:21.000+02:00</time>
      </trkpt>
      <trkpt lat="46.322665881040685" lon="7.172161129781196">
        <time>2013-06-23T17:28:21.000+02:00</time>
      </trkpt>
      <trkpt lat="46.32263901651067" lon="7.172213198656034">
        <time>2013-06-23T17:28:21.000+02:00</time>
      </trkpt>
      <trkpt lat="46.32263011254694" lon="7.17225219519545">
        <time>2013-06-23T17:28:21.000+02:00</time>
      </trkpt>
      <trkpt lat="46.322612121427795" lon="7.172252283328159">
        <time>2013-06-23T17:28:21.000+02:00</time>
      </trkpt>
      <trkpt lat="46.32260312586823" lon="7.172252327394492">
        <time>2013-06-23T17:28:21.000+02:00</time>
      </trkpt>
      <trkpt lat="46.32256708256765" lon="7.172226535378662">
        <time>2013-06-23T17:28:21.000+02:00</time>
      </trkpt>
      <trkpt lat="46.32254906091518" lon="7.172213639383567">
        <time>2013-06-23T17:28:21.000+02:00</time>
      </trkpt>
      <trkpt lat="46.322549030380316" lon="7.172200655247394">
        <time>2013-06-23T17:28:21.000+02:00</time>
      </trkpt>
      <trkpt lat="46.32253088656463" lon="7.172135822737865">
        <time>2013-06-23T17:28:21.000+02:00</time>
      </trkpt>
      <trkpt lat="46.32252186046133" lon="7.172122882693754">
        <time>2013-06-23T17:28:21.000+02:00</time>
      </trkpt>
      <trkpt lat="46.32250380825033" lon="7.1720970026184245">
        <time>2013-06-23T17:28:21.000+02:00</time>
      </trkpt>
      <trkpt lat="46.32247666881591" lon="7.1720322143000415">
        <time>2013-06-23T17:28:21.000+02:00</time>
      </trkpt>
      <trkpt lat="46.32245858602559" lon="7.171993350161866">
        <time>2013-06-23T17:28:21.000+02:00</time>
      </trkpt>
      <trkpt lat="46.322449437650704" lon="7.171928473709595">
        <time>2013-06-23T17:28:21.000+02:00</time>
      </trkpt>
      <trkpt lat="46.32243132425281" lon="7.171876625517509">
        <time>2013-06-23T17:28:21.000+02:00</time>
      </trkpt>
      <trkpt lat="46.32240424584979" lon="7.171837805598226">
        <time>2013-06-23T17:28:21.000+02:00</time>
      </trkpt>
      <trkpt lat="46.322386162992814" lon="7.171798941576469">
        <time>2013-06-23T17:28:21.000+02:00</time>
      </trkpt>
      <trkpt lat="46.32235011958927" lon="7.171773149964058">
        <time>2013-06-23T17:28:21.000+02:00</time>
      </trkpt>
      <trkpt lat="46.32233215905449" lon="7.171786222338915">
        <time>2013-06-23T17:28:21.000+02:00</time>
      </trkpt>
      <trkpt lat="46.322305080620566" lon="7.171747402535441">
        <time>2013-06-23T17:28:21.000+02:00</time>
      </trkpt>
      <trkpt lat="46.322287028323906" lon="7.171721522687936">
        <time>2013-06-23T17:28:21.000+02:00</time>
      </trkpt>
      <trkpt lat="46.32227797158061" lon="7.171695598699474">
        <time>2013-06-23T17:28:21.000+02:00</time>
      </trkpt>
      <trkpt lat="46.32231370902193" lon="7.171591549429349">
        <time>2013-06-23T17:28:21.000+02:00</time>
      </trkpt>
      <trkpt lat="46.32232255153539" lon="7.171526584845312">
        <time>2013-06-23T17:28:21.000+02:00</time>
      </trkpt>
      <trkpt lat="46.32230452980338" lon="7.171513689140182">
        <time>2013-06-23T17:28:21.000+02:00</time>
      </trkpt>
      <trkpt lat="46.32228644683527" lon="7.1714748252974925">
        <time>2013-06-23T17:28:21.000+02:00</time>
      </trkpt>
      <trkpt lat="46.32231337227223" lon="7.1714487245544625">
        <time>2013-06-23T17:28:21.000+02:00</time>
      </trkpt>
      <trkpt lat="46.32233139401164" lon="7.171461620240156">
        <time>2013-06-23T17:28:21.000+02:00</time>
      </trkpt>
      <trkpt lat="46.32236740686798" lon="7.171474427544805">
        <time>2013-06-23T17:28:21.000+02:00</time>
      </trkpt>
      <trkpt lat="46.32239436292599" lon="7.171461310861499">
        <time>2013-06-23T17:28:21.000+02:00</time>
      </trkpt>
      <trkpt lat="46.32245733184048" lon="7.171461001482113">
        <time>2013-06-23T17:28:21.000+02:00</time>
      </trkpt>
      <trkpt lat="46.32249322220944" lon="7.171421872326352">
        <time>2013-06-23T17:28:21.000+02:00</time>
      </trkpt>
      <trkpt lat="46.32250218714304" lon="7.171408843998214">
        <time>2013-06-23T17:28:21.000+02:00</time>
      </trkpt>
      <trkpt lat="46.322529143193556" lon="7.171395727249875">
        <time>2013-06-23T17:28:21.000+02:00</time>
      </trkpt>
      <trkpt lat="46.32256503354004" lon="7.171356597999353">
        <time>2013-06-23T17:28:21.000+02:00</time>
      </trkpt>
      <trkpt lat="46.32253798559479" lon="7.171330762376637">
        <time>2013-06-23T17:28:21.000+02:00</time>
      </trkpt>
      <trkpt lat="46.322519933202834" lon="7.171304882556639">
        <time>2013-06-23T17:28:21.000+02:00</time>
      </trkpt>
      <trkpt lat="46.32251090700466" lon="7.171291942653081">
        <time>2013-06-23T17:28:21.000+02:00</time>
      </trkpt>
      <trkpt lat="46.32251981063782" lon="7.1712529460419985">
        <time>2013-06-23T17:28:21.000+02:00</time>
      </trkpt>
      <trkpt lat="46.32254670537584" lon="7.171213860942043">
        <time>2013-06-23T17:28:21.000+02:00</time>
      </trkpt>
      <trkpt lat="46.32261863919957" lon="7.171200522884825">
        <time>2013-06-23T17:28:21.000+02:00</time>
      </trkpt>
      <trkpt lat="46.32262760410774" lon="7.1711874944901455">
        <time>2013-06-23T17:28:21.000+02:00</time>
      </trkpt>
      <trkpt lat="46.32265449882327" lon="7.171148409280333">
        <time>2013-06-23T17:28:21.000+02:00</time>
      </trkpt>
      <trkpt lat="46.32265431485919" lon="7.171070504316232">
        <time>2013-06-23T17:28:21.000+02:00</time>
      </trkpt>
      <trkpt lat="46.32265422285708" lon="7.171031551834383">
        <time>2013-06-23T17:28:21.000+02:00</time>
      </trkpt>
      <trkpt lat="46.322654192186725" lon="7.171018567673796">
        <time>2013-06-23T17:28:21.000+02:00</time>
      </trkpt>
      <trkpt lat="46.32268111751881" lon="7.17099246652832">
        <time>2013-06-23T17:28:21.000+02:00</time>
      </trkpt>
      <trkpt lat="46.32270804284492" lon="7.1709663653569935">
        <time>2013-06-23T17:28:21.000+02:00</time>
      </trkpt>
      <trkpt lat="46.32273484543285" lon="7.170888327440655">
        <time>2013-06-23T17:28:21.000+02:00</time>
      </trkpt>
      <trkpt lat="46.32275271379495" lon="7.170836302120364">
        <time>2013-06-23T17:28:21.000+02:00</time>
      </trkpt>
      <trkpt lat="46.3227705207343" lon="7.170758308389452">
        <time>2013-06-23T17:28:21.000+02:00</time>
      </trkpt>
      <trkpt lat="46.32278835832908" lon="7.170693298799885">
        <time>2013-06-23T17:28:21.000+02:00</time>
      </trkpt>
      <trkpt lat="46.322788204768614" lon="7.170628377837955">
        <time>2013-06-23T17:28:21.000+02:00</time>
      </trkpt>
      <trkpt lat="46.32281503784779" lon="7.170563323838739">
        <time>2013-06-23T17:28:21.000+02:00</time>
      </trkpt>
      <trkpt lat="46.32284184015817" lon="7.170485285570247">
        <time>2013-06-23T17:28:21.000+02:00</time>
      </trkpt>
      <trkpt lat="46.32287760723181" lon="7.170394218639483">
        <time>2013-06-23T17:28:21.000+02:00</time>
      </trkpt>
      <trkpt lat="46.322913435735494" lon="7.170329120033052">
        <time>2013-06-23T17:28:21.000+02:00</time>
      </trkpt>
      <trkpt lat="46.32294026864293" lon="7.17026406573637">
        <time>2013-06-23T17:28:21.000+02:00</time>
      </trkpt>
      <trkpt lat="46.32298509263073" lon="7.170198922562845">
        <time>2013-06-23T17:28:21.000+02:00</time>
      </trkpt>
      <trkpt lat="46.32302988580788" lon="7.170120795032158">
        <time>2013-06-23T17:28:21.000+02:00</time>
      </trkpt>
      <trkpt lat="46.32303885059198" lon="7.170107766360955">
        <time>2013-06-23T17:28:21.000+02:00</time>
      </trkpt>
      <trkpt lat="46.3230747097134" lon="7.1700556516331755">
        <time>2013-06-23T17:28:21.000+02:00</time>
      </trkpt>
      <trkpt lat="46.3230746789312" lon="7.170042667372765">
        <time>2013-06-23T17:28:21.000+02:00</time>
      </trkpt>
      <trkpt lat="46.32309248532434" lon="7.169964672920266">
        <time>2013-06-23T17:28:21.000+02:00</time>
      </trkpt>
      <trkpt lat="46.3231014500905" lon="7.169951644208325">
        <time>2013-06-23T17:28:21.000+02:00</time>
      </trkpt>
      <trkpt lat="46.32314633549754" lon="7.169912469139035">
        <time>2013-06-23T17:28:21.000+02:00</time>
      </trkpt>
      <trkpt lat="46.32316420341172" lon="7.169860443104461">
        <time>2013-06-23T17:28:21.000+02:00</time>
      </trkpt>
      <trkpt lat="46.32320905797824" lon="7.169808283622313">
        <time>2013-06-23T17:28:21.000+02:00</time>
      </trkpt>
      <trkpt lat="46.32326300052024" lon="7.169795032489901">
        <time>2013-06-23T17:28:21.000+02:00</time>
      </trkpt>
      <trkpt lat="46.32331688143209" lon="7.169755812695017">
        <time>2013-06-23T17:28:21.000+02:00</time>
      </trkpt>
      <trkpt lat="46.32336170512811" lon="7.169690668651352">
        <time>2013-06-23T17:28:21.000+02:00</time>
      </trkpt>
      <trkpt lat="46.323397625713525" lon="7.169664522013657">
        <time>2013-06-23T17:28:21.000+02:00</time>
      </trkpt>
      <trkpt lat="46.3234695593565" lon="7.169651181697948">
        <time>2013-06-23T17:28:21.000+02:00</time>
      </trkpt>
      <trkpt lat="46.32351438299252" lon="7.169586037385114">
        <time>2013-06-23T17:28:21.000+02:00</time>
      </trkpt>
      <trkpt lat="46.323523409385814" lon="7.169598977244212">
        <time>2013-06-23T17:28:21.000+02:00</time>
      </trkpt>
      <trkpt lat="46.323532435777615" lon="7.169611917107608">
        <time>2013-06-23T17:28:21.000+02:00</time>
      </trkpt>
      <trkpt lat="46.323541462167945" lon="7.169624856975299">
        <time>2013-06-23T17:28:21.000+02:00</time>
      </trkpt>
      <trkpt lat="46.323586039034936" lon="7.169455837496833">
        <time>2013-06-23T17:28:21.000+02:00</time>
      </trkpt>
      <trkpt lat="46.32363073911621" lon="7.169338755312247">
        <time>2013-06-23T17:28:21.000+02:00</time>
      </trkpt>
      <trkpt lat="46.323702240463355" lon="7.169143632770723">
        <time>2013-06-23T17:28:21.000+02:00</time>
      </trkpt>
      <trkpt lat="46.32371108157343" lon="7.169078666130016">
        <time>2013-06-23T17:28:21.000+02:00</time>
      </trkpt>
      <trkpt lat="46.32371995354638" lon="7.16902668388207">
        <time>2013-06-23T17:28:21.000+02:00</time>
      </trkpt>
      <trkpt lat="46.323719922646255" lon="7.1690136994681914">
        <time>2013-06-23T17:28:21.000+02:00</time>
      </trkpt>
      <trkpt lat="46.3237379137634" lon="7.169013610262094">
        <time>2013-06-23T17:28:21.000+02:00</time>
      </trkpt>
      <trkpt lat="46.32387256897333" lon="7.168896081161563">
        <time>2013-06-23T17:28:21.000+02:00</time>
      </trkpt>
      <trkpt lat="46.32391757767977" lon="7.168908842509257">
        <time>2013-06-23T17:28:21.000+02:00</time>
      </trkpt>
      <trkpt lat="46.32391763950258" lon="7.168934811431296">
        <time>2013-06-23T17:28:21.000+02:00</time>
      </trkpt>
      <trkpt lat="46.323962648204734" lon="7.168947572821618">
        <time>2013-06-23T17:28:21.000+02:00</time>
      </trkpt>
      <trkpt lat="46.323971674671064" lon="7.168960512681372">
        <time>2013-06-23T17:28:21.000+02:00</time>
      </trkpt>
      <trkpt lat="46.32397173648204" lon="7.16898648162931">
        <time>2013-06-23T17:28:21.000+02:00</time>
      </trkpt>
      <trkpt lat="46.323971674671064" lon="7.168960512681372">
        <time>2013-06-23T17:28:21.000+02:00</time>
      </trkpt>
      <trkpt lat="46.32397170557729" lon="7.168973497155333">
        <time>2013-06-23T17:28:21.000+02:00</time>
      </trkpt>
      <trkpt lat="46.32396289542475" lon="7.169051448596422">
        <time>2013-06-23T17:28:21.000+02:00</time>
      </trkpt>
      <trkpt lat="46.32398091743788" lon="7.169064343878611">
        <time>2013-06-23T17:28:21.000+02:00</time>
      </trkpt>
      <trkpt lat="46.3240619392531" lon="7.169089911515219">
        <time>2013-06-23T17:28:21.000+02:00</time>
      </trkpt>
      <trkpt lat="46.324079930370466" lon="7.169089822333749">
        <time>2013-06-23T17:28:21.000+02:00</time>
      </trkpt>
      <trkpt lat="46.324152141929964" lon="7.169193341744271">
        <time>2013-06-23T17:28:21.000+02:00</time>
      </trkpt>
      <trkpt lat="46.3242061152825" lon="7.1691930743018855">
        <time>2013-06-23T17:28:21.000+02:00</time>
      </trkpt>
      <trkpt lat="46.32434992068943" lon="7.169140422861893">
        <time>2013-06-23T17:28:21.000+02:00</time>
      </trkpt>
      <trkpt lat="46.32442182338392" lon="7.169114097037436">
        <time>2013-06-23T17:28:21.000+02:00</time>
      </trkpt>
      <trkpt lat="46.32444874827852" lon="7.16908799410036">
        <time>2013-06-23T17:28:21.000+02:00</time>
      </trkpt>
      <trkpt lat="46.324583650767266" lon="7.169074340607996">
        <time>2013-06-23T17:28:21.000+02:00</time>
      </trkpt>
      <trkpt lat="46.32470046944405" lon="7.169021822295889">
        <time>2013-06-23T17:28:21.000+02:00</time>
      </trkpt>
      <trkpt lat="46.32479954417926" lon="7.169073270353873">
        <time>2013-06-23T17:28:21.000+02:00</time>
      </trkpt>
      <trkpt lat="46.32485348663763" lon="7.169060018104397">
        <time>2013-06-23T17:28:21.000+02:00</time>
      </trkpt>
      <trkpt lat="46.324898402637814" lon="7.169033825731887">
        <time>2013-06-23T17:28:21.000+02:00</time>
      </trkpt>
      <trkpt lat="46.32505129623947" lon="7.169020082785796">
        <time>2013-06-23T17:28:21.000+02:00</time>
      </trkpt>
      <trkpt lat="46.325222428124235" lon="7.169110128732494">
        <time>2013-06-23T17:28:21.000+02:00</time>
      </trkpt>
      <trkpt lat="46.325411242186725" lon="7.169070237920075">
        <time>2013-06-23T17:28:21.000+02:00</time>
      </trkpt>
      <trkpt lat="46.32565378235072" lon="7.1689262002134955">
        <time>2013-06-23T17:28:21.000+02:00</time>
      </trkpt>
      <trkpt lat="46.32580667594247" lon="7.168912456773419">
        <time>2013-06-23T17:28:21.000+02:00</time>
      </trkpt>
      <trkpt lat="46.326031657650304" lon="7.168950296127055">
        <time>2013-06-23T17:28:21.000+02:00</time>
      </trkpt>
      <trkpt lat="46.32628350239722" lon="7.168936061861148">
        <time>2013-06-23T17:28:21.000+02:00</time>
      </trkpt>
      <trkpt lat="46.3265802631143" lon="7.16889563416603">
        <time>2013-06-23T17:28:21.000+02:00</time>
      </trkpt>
      <trkpt lat="46.326858970859696" lon="7.168829324966399">
        <time>2013-06-23T17:28:21.000+02:00</time>
      </trkpt>
      <trkpt lat="46.3271826872938" lon="7.168775777090007">
        <time>2013-06-23T17:28:21.000+02:00</time>
      </trkpt>
      <trkpt lat="46.32747950982338" lon="7.168761318473516">
        <time>2013-06-23T17:28:21.000+02:00</time>
      </trkpt>
      <trkpt lat="46.32755153615525" lon="7.168786931946463">
        <time>2013-06-23T17:28:21.000+02:00</time>
      </trkpt>
      <trkpt lat="46.32773150919488" lon="7.168812009810367">
        <time>2013-06-23T17:28:21.000+02:00</time>
      </trkpt>
      <trkpt lat="46.32782143386481" lon="7.168798578018094">
        <time>2013-06-23T17:28:21.000+02:00</time>
      </trkpt>
      <trkpt lat="46.32804598257997" lon="7.168654622045027">
        <time>2013-06-23T17:28:21.000+02:00</time>
      </trkpt>
      <trkpt lat="46.328108734865275" lon="7.1685634111495755">
        <time>2013-06-23T17:28:21.000+02:00</time>
      </trkpt>
      <trkpt lat="46.32823386742787" lon="7.168225162829639">
        <time>2013-06-23T17:28:21.000+02:00</time>
      </trkpt>
      <trkpt lat="46.328368521835934" lon="7.168107622056007">
        <time>2013-06-23T17:28:21.000+02:00</time>
      </trkpt>
      <trkpt lat="46.328521229274635" lon="7.168015962266862">
        <time>2013-06-23T17:28:21.000+02:00</time>
      </trkpt>
      <trkpt lat="46.32858410513748" lon="7.167976692136382">
        <time>2013-06-23T17:28:21.000+02:00</time>
      </trkpt>
      <trkpt lat="46.32897953740327" lon="7.167818893824735">
        <time>2013-06-23T17:28:21.000+02:00</time>
      </trkpt>
      <trkpt lat="46.32918609376162" lon="7.167675020397074">
        <time>2013-06-23T17:28:21.000+02:00</time>
      </trkpt>
      <trkpt lat="46.32950053450591" lon="7.167504636050091">
        <time>2013-06-23T17:28:21.000+02:00</time>
      </trkpt>
      <trkpt lat="46.32966205048761" lon="7.1673350127936475">
        <time>2013-06-23T17:28:21.000+02:00</time>
      </trkpt>
      <trkpt lat="46.32985036619064" lon="7.167087338526334">
        <time>2013-06-23T17:28:21.000+02:00</time>
      </trkpt>
      <trkpt lat="46.329993797000526" lon="7.166878845116376">
        <time>2013-06-23T17:28:21.000+02:00</time>
      </trkpt>
      <trkpt lat="46.33010143218054" lon="7.166748446210028">
        <time>2013-06-23T17:28:21.000+02:00</time>
      </trkpt>
      <trkpt lat="46.33038835458543" lon="7.166357426586119">
        <time>2013-06-23T17:28:21.000+02:00</time>
      </trkpt>
      <trkpt lat="46.3306479763901" lon="7.1658366775086835">
        <time>2013-06-23T17:28:21.000+02:00</time>
      </trkpt>
      <trkpt lat="46.33077266242121" lon="7.165316601771274">
        <time>2013-06-23T17:28:21.000+02:00</time>
      </trkpt>
      <trkpt lat="46.33079046556414" lon="7.16523859472833">
        <time>2013-06-23T17:28:21.000+02:00</time>
      </trkpt>
      <trkpt lat="46.33082582082969" lon="7.164978691620923">
        <time>2013-06-23T17:28:21.000+02:00</time>
      </trkpt>
      <trkpt lat="46.33083459680839" lon="7.164887743570211">
        <time>2013-06-23T17:28:21.000+02:00</time>
      </trkpt>
      <trkpt lat="46.33082491066655" lon="7.164602094481572">
        <time>2013-06-23T17:28:21.000+02:00</time>
      </trkpt>
      <trkpt lat="46.33091373465073" lon="7.164134140437952">
        <time>2013-06-23T17:28:21.000+02:00</time>
      </trkpt>
      <trkpt lat="46.33104769204373" lon="7.1637308881988195">
        <time>2013-06-23T17:28:21.000+02:00</time>
      </trkpt>
      <trkpt lat="46.33115488215933" lon="7.163418673925877">
        <time>2013-06-23T17:28:21.000+02:00</time>
      </trkpt>
      <trkpt lat="46.33128950003433" lon="7.163288128714719">
        <time>2013-06-23T17:28:21.000+02:00</time>
      </trkpt>
      <trkpt lat="46.33149592434466" lon="7.163092286891089">
        <time>2013-06-23T17:28:21.000+02:00</time>
      </trkpt>
      <trkpt lat="46.33181004214966" lon="7.162792005376834">
        <time>2013-06-23T17:28:21.000+02:00</time>
      </trkpt>
      <trkpt lat="46.331908740327805" lon="7.16268761241639">
        <time>2013-06-23T17:28:21.000+02:00</time>
      </trkpt>
      <trkpt lat="46.332124222455086" lon="7.162517693226751">
        <time>2013-06-23T17:28:21.000+02:00</time>
      </trkpt>
      <trkpt lat="46.33239351933311" lon="7.162282566003118">
        <time>2013-06-23T17:28:21.000+02:00</time>
      </trkpt>
      <trkpt lat="46.3326179013312" lon="7.162073638335858">
        <time>2013-06-23T17:28:21.000+02:00</time>
      </trkpt>
      <trkpt lat="46.3327075081601" lon="7.161930328627885">
        <time>2013-06-23T17:28:21.000+02:00</time>
      </trkpt>
      <trkpt lat="46.33279714653632" lon="7.161800005024933">
        <time>2013-06-23T17:28:21.000+02:00</time>
      </trkpt>
      <trkpt lat="46.332815105923515" lon="7.161786926834466">
        <time>2013-06-23T17:28:21.000+02:00</time>
      </trkpt>
      <trkpt lat="46.332913930130715" lon="7.161734476540338">
        <time>2013-06-23T17:28:21.000+02:00</time>
      </trkpt>
      <trkpt lat="46.33300369527072" lon="7.16165609862619">
        <time>2013-06-23T17:28:21.000+02:00</time>
      </trkpt>
      <trkpt lat="46.333057509877946" lon="7.1615908904581635">
        <time>2013-06-23T17:28:21.000+02:00</time>
      </trkpt>
      <trkpt lat="46.33307540573188" lon="7.161551838848472">
        <time>2013-06-23T17:28:21.000+02:00</time>
      </trkpt>
      <trkpt lat="46.33312906144267" lon="7.161421697208675">
        <time>2013-06-23T17:28:21.000+02:00</time>
      </trkpt>
      <trkpt lat="46.33319174434694" lon="7.161304496094551">
        <time>2013-06-23T17:28:21.000+02:00</time>
      </trkpt>
      <trkpt lat="46.333227504049894" lon="7.161213405788233">
        <time>2013-06-23T17:28:21.000+02:00</time>
      </trkpt>
      <trkpt lat="46.333245304368965" lon="7.161135393879929">
        <time>2013-06-23T17:28:21.000+02:00</time>
      </trkpt>
      <trkpt lat="46.333254013631695" lon="7.161018467789898">
        <time>2013-06-23T17:28:21.000+02:00</time>
      </trkpt>
      <trkpt lat="46.33327165466703" lon="7.160875522328557">
        <time>2013-06-23T17:28:21.000+02:00</time>
      </trkpt>
      <trkpt lat="46.333280522878134" lon="7.160823529601531">
        <time>2013-06-23T17:28:21.000+02:00</time>
      </trkpt>
      <trkpt lat="46.33332518219523" lon="7.160693432740022">
        <time>2013-06-23T17:28:21.000+02:00</time>
      </trkpt>
      <trkpt lat="46.33336990509883" lon="7.160589309091762">
        <time>2013-06-23T17:28:21.000+02:00</time>
      </trkpt>
      <trkpt lat="46.33341465978442" lon="7.16049817199633">
        <time>2013-06-23T17:28:21.000+02:00</time>
      </trkpt>
      <trkpt lat="46.333477373623445" lon="7.16039395594092">
        <time>2013-06-23T17:28:21.000+02:00</time>
      </trkpt>
      <trkpt lat="46.333540151165266" lon="7.1603157131530395">
        <time>2013-06-23T17:28:21.000+02:00</time>
      </trkpt>
      <trkpt lat="46.33363878324357" lon="7.1601853388198675">
        <time>2013-06-23T17:28:21.000+02:00</time>
      </trkpt>
      <trkpt lat="46.33371052427646" lon="7.160094062678946">
        <time>2013-06-23T17:28:21.000+02:00</time>
      </trkpt>
      <trkpt lat="46.33377333354296" lon="7.160028806018731">
        <time>2013-06-23T17:28:21.000+02:00</time>
      </trkpt>
      <trkpt lat="46.3338271791521" lon="7.159976582139205">
        <time>2013-06-23T17:28:21.000+02:00</time>
      </trkpt>
      <trkpt lat="46.33387183749735" lon="7.159846483273957">
        <time>2013-06-23T17:28:21.000+02:00</time>
      </trkpt>
      <trkpt lat="46.33391662354728" lon="7.1597683315692375">
        <time>2013-06-23T17:28:21.000+02:00</time>
      </trkpt>
      <trkpt lat="46.3339613456014" lon="7.1596642060273075">
        <time>2013-06-23T17:28:21.000+02:00</time>
      </trkpt>
      <trkpt lat="46.33397927276789" lon="7.159638139992735">
        <time>2013-06-23T17:28:21.000+02:00</time>
      </trkpt>
      <trkpt lat="46.33405091739615" lon="7.15950790193148">
        <time>2013-06-23T17:28:21.000+02:00</time>
      </trkpt>
      <trkpt lat="46.334113694327" lon="7.159429657295015">
        <time>2013-06-23T17:28:21.000+02:00</time>
      </trkpt>
      <trkpt lat="46.33418533871588" lon="7.159299418637015">
        <time>2013-06-23T17:28:21.000+02:00</time>
      </trkpt>
      <trkpt lat="46.33426601054069" lon="7.159182120321491">
        <time>2013-06-23T17:28:21.000+02:00</time>
      </trkpt>
      <trkpt lat="46.334283873532044" lon="7.159130080119992">
        <time>2013-06-23T17:28:21.000+02:00</time>
      </trkpt>
      <trkpt lat="46.3343374623627" lon="7.1589739593103365">
        <time>2013-06-23T17:28:21.000+02:00</time>
      </trkpt>
      <trkpt lat="46.334337109705416" lon="7.158831102931327">
        <time>2013-06-23T17:28:21.000+02:00</time>
      </trkpt>
      <trkpt lat="46.33435474798179" lon="7.158688153912986">
        <time>2013-06-23T17:28:21.000+02:00</time>
      </trkpt>
      <trkpt lat="46.334363390521005" lon="7.158545251146218">
        <time>2013-06-23T17:28:21.000+02:00</time>
      </trkpt>
      <trkpt lat="46.3343901203381" lon="7.158441216465734">
        <time>2013-06-23T17:28:21.000+02:00</time>
      </trkpt>
      <trkpt lat="46.33442571710635" lon="7.158285187446912">
        <time>2013-06-23T17:28:21.000+02:00</time>
      </trkpt>
      <trkpt lat="46.33444345112805" lon="7.158181198923938">
        <time>2013-06-23T17:28:21.000+02:00</time>
      </trkpt>
      <trkpt lat="46.33449729588648" lon="7.158128972570811">
        <time>2013-06-23T17:28:21.000+02:00</time>
      </trkpt>
      <trkpt lat="46.334532892224864" lon="7.15797294304003">
        <time>2013-06-23T17:28:21.000+02:00</time>
      </trkpt>
      <trkpt lat="46.334604277442736" lon="7.157738805404997">
        <time>2013-06-23T17:28:21.000+02:00</time>
      </trkpt>
      <trkpt lat="46.334720897671545" lon="7.157608330845865">
        <time>2013-06-23T17:28:21.000+02:00</time>
      </trkpt>
      <trkpt lat="46.3347567188385" lon="7.157543209632515">
        <time>2013-06-23T17:28:21.000+02:00</time>
      </trkpt>
      <trkpt lat="46.33481059552407" lon="7.1575039694023035">
        <time>2013-06-23T17:28:21.000+02:00</time>
      </trkpt>
      <trkpt lat="46.33484660996936" lon="7.157516770398626">
        <time>2013-06-23T17:28:21.000+02:00</time>
      </trkpt>
      <trkpt lat="46.33483780769748" lon="7.157594739287063">
        <time>2013-06-23T17:28:21.000+02:00</time>
      </trkpt>
      <trkpt lat="46.33486485878342" lon="7.157620573918588">
        <time>2013-06-23T17:28:21.000+02:00</time>
      </trkpt>
      <trkpt lat="46.334873854339975" lon="7.15762052742085">
        <time>2013-06-23T17:28:21.000+02:00</time>
      </trkpt>
      <trkpt lat="46.33490100202455" lon="7.157685323314638">
        <time>2013-06-23T17:28:21.000+02:00</time>
      </trkpt>
      <trkpt lat="46.33496387431609" lon="7.157646036627481">
        <time>2013-06-23T17:28:21.000+02:00</time>
      </trkpt>
      <trkpt lat="46.3350175577612" lon="7.157528873718083">
        <time>2013-06-23T17:28:21.000+02:00</time>
      </trkpt>
      <trkpt lat="46.335035419993574" lon="7.157476832254086">
        <time>2013-06-23T17:28:21.000+02:00</time>
      </trkpt>
      <trkpt lat="46.335062213297356" lon="7.157398769993977">
        <time>2013-06-23T17:28:21.000+02:00</time>
      </trkpt>
      <trkpt lat="46.3350889420623" lon="7.157294733412671">
        <time>2013-06-23T17:28:21.000+02:00</time>
      </trkpt>
      <trkpt lat="46.33510677193644" lon="7.157229704677089">
        <time>2013-06-23T17:28:21.000+02:00</time>
      </trkpt>
      <trkpt lat="46.33517834926263" lon="7.157073486454461">
        <time>2013-06-23T17:28:21.000+02:00</time>
      </trkpt>
      <trkpt lat="46.33525005551076" lon="7.156969216461978">
        <time>2013-06-23T17:28:21.000+02:00</time>
      </trkpt>
      <trkpt lat="46.33533975277579" lon="7.156864852948067">
        <time>2013-06-23T17:28:21.000+02:00</time>
      </trkpt>
      <trkpt lat="46.33540252788342" lon="7.156786603404729">
        <time>2013-06-23T17:28:21.000+02:00</time>
      </trkpt>
      <trkpt lat="46.33543841319518" lon="7.156747455243935">
        <time>2013-06-23T17:28:21.000+02:00</time>
      </trkpt>
      <trkpt lat="46.33552817489077" lon="7.1566690654558">
        <time>2013-06-23T17:28:21.000+02:00</time>
      </trkpt>
      <trkpt lat="46.3355910468309" lon="7.1566297771400365">
        <time>2013-06-23T17:28:21.000+02:00</time>
      </trkpt>
      <trkpt lat="46.33562683510776" lon="7.156551666989433">
        <time>2013-06-23T17:28:21.000+02:00</time>
      </trkpt>
      <trkpt lat="46.335653660111944" lon="7.156486590680735">
        <time>2013-06-23T17:28:21.000+02:00</time>
      </trkpt>
      <trkpt lat="46.33565353075344" lon="7.156434641654785">
        <time>2013-06-23T17:28:21.000+02:00</time>
      </trkpt>
      <trkpt lat="46.33568032333965" lon="7.156356577993581">
        <time>2013-06-23T17:28:21.000+02:00</time>
      </trkpt>
      <trkpt lat="46.33568906003579" lon="7.156252633166817">
        <time>2013-06-23T17:28:21.000+02:00</time>
      </trkpt>
      <trkpt lat="46.33567980552435" lon="7.156148781790677">
        <time>2013-06-23T17:28:21.000+02:00</time>
      </trkpt>
      <trkpt lat="46.335634568693465" lon="7.156045117486457">
        <time>2013-06-23T17:28:21.000+02:00</time>
      </trkpt>
      <trkpt lat="46.33561654519336" lon="7.156032223757255">
        <time>2013-06-23T17:28:21.000+02:00</time>
      </trkpt>
      <trkpt lat="46.33560742007054" lon="7.15598032153771">
        <time>2013-06-23T17:28:21.000+02:00</time>
      </trkpt>
      <trkpt lat="46.335562280298596" lon="7.155915619214651">
        <time>2013-06-23T17:28:21.000+02:00</time>
      </trkpt>
      <trkpt lat="46.3355080152839" lon="7.155799014904845">
        <time>2013-06-23T17:28:21.000+02:00</time>
      </trkpt>
      <trkpt lat="46.33541754088782" lon="7.155591687706271">
        <time>2013-06-23T17:28:21.000+02:00</time>
      </trkpt>
      <trkpt lat="46.33538113682929" lon="7.155423041560758">
        <time>2013-06-23T17:28:21.000+02:00</time>
      </trkpt>
      <trkpt lat="46.335353728075496" lon="7.155254348751468">
        <time>2013-06-23T17:28:21.000+02:00</time>
      </trkpt>
      <trkpt lat="46.33530839295081" lon="7.155111724293808">
        <time>2013-06-23T17:28:21.000+02:00</time>
      </trkpt>
      <trkpt lat="46.33527205320218" lon="7.154969053137228">
        <time>2013-06-23T17:28:21.000+02:00</time>
      </trkpt>
      <trkpt lat="46.33521772216306" lon="7.1548264760922065">
        <time>2013-06-23T17:28:21.000+02:00</time>
      </trkpt>
      <trkpt lat="46.33519943824976" lon="7.154709685690161">
        <time>2013-06-23T17:28:21.000+02:00</time>
      </trkpt>
      <trkpt lat="46.33515426520432" lon="7.154631997771726">
        <time>2013-06-23T17:28:21.000+02:00</time>
      </trkpt>
      <trkpt lat="46.33507297964016" lon="7.154502549537144">
        <time>2013-06-23T17:28:21.000+02:00</time>
      </trkpt>
      <trkpt lat="46.334991856804" lon="7.154438037175191">
        <time>2013-06-23T17:28:21.000+02:00</time>
      </trkpt>
      <trkpt lat="46.334928627298524" lon="7.154334469689626">
        <time>2013-06-23T17:28:21.000+02:00</time>
      </trkpt>
      <trkpt lat="46.33486543029292" lon="7.154243889511793">
        <time>2013-06-23T17:28:21.000+02:00</time>
      </trkpt>
      <trkpt lat="46.334802265818325" lon="7.154166296596227">
        <time>2013-06-23T17:28:21.000+02:00</time>
      </trkpt>
      <trkpt lat="46.33479327026322" lon="7.154166343665458">
        <time>2013-06-23T17:28:21.000+02:00</time>
      </trkpt>
      <trkpt lat="46.3347390034496" lon="7.154049742751397">
        <time>2013-06-23T17:28:21.000+02:00</time>
      </trkpt>
      <trkpt lat="46.33472994265974" lon="7.154023815771193">
        <time>2013-06-23T17:28:21.000+02:00</time>
      </trkpt>
      <trkpt lat="46.334675675699565" lon="7.153907215135245">
        <time>2013-06-23T17:28:21.000+02:00</time>
      </trkpt>
      <trkpt lat="46.33456769640718" lon="7.1538947934825545">
        <time>2013-06-23T17:28:21.000+02:00</time>
      </trkpt>
      <trkpt lat="46.33446845154011" lon="7.153778428989164">
        <time>2013-06-23T17:28:21.000+02:00</time>
      </trkpt>
      <trkpt lat="46.33440541735914" lon="7.153752785007321">
        <time>2013-06-23T17:28:21.000+02:00</time>
      </trkpt>
      <trkpt lat="46.33433332230892" lon="7.153701214347645">
        <time>2013-06-23T17:28:21.000+02:00</time>
      </trkpt>
      <trkpt lat="46.33429717679188" lon="7.153636468276941">
        <time>2013-06-23T17:28:21.000+02:00</time>
      </trkpt>
      <trkpt lat="46.334242974784026" lon="7.1535458427911625">
        <time>2013-06-23T17:28:21.000+02:00</time>
      </trkpt>
      <trkpt lat="46.33420679649645" lon="7.153468110022361">
        <time>2013-06-23T17:28:21.000+02:00</time>
      </trkpt>
      <trkpt lat="46.33417035657601" lon="7.153286482155086">
        <time>2013-06-23T17:28:21.000+02:00</time>
      </trkpt>
      <trkpt lat="46.33408013935578" lon="7.153183059267765">
        <time>2013-06-23T17:28:21.000+02:00</time>
      </trkpt>
      <trkpt lat="46.333998917595814" lon="7.1530795894753645">
        <time>2013-06-23T17:28:21.000+02:00</time>
      </trkpt>
      <trkpt lat="46.33391763026062" lon="7.1529501463129">
        <time>2013-06-23T17:28:21.000+02:00</time>
      </trkpt>
      <trkpt lat="46.333791463269705" lon="7.152859900420541">
        <time>2013-06-23T17:28:21.000+02:00</time>
      </trkpt>
      <trkpt lat="46.33367439004277" lon="7.15280856799182">
        <time>2013-06-23T17:28:21.000+02:00</time>
      </trkpt>
      <trkpt lat="46.33355738231807" lon="7.152783209290969">
        <time>2013-06-23T17:28:21.000+02:00</time>
      </trkpt>
      <trkpt lat="46.333422416242826" lon="7.1527709320224835">
        <time>2013-06-23T17:28:21.000+02:00</time>
      </trkpt>
      <trkpt lat="46.333305408510434" lon="7.152745573520052">
        <time>2013-06-23T17:28:21.000+02:00</time>
      </trkpt>
      <trkpt lat="46.33323324745823" lon="7.152668031887367">
        <time>2013-06-23T17:28:21.000+02:00</time>
      </trkpt>
      <trkpt lat="46.33316082404016" lon="7.152486597191829">
        <time>2013-06-23T17:28:21.000+02:00</time>
      </trkpt>
      <trkpt lat="46.33310648988052" lon="7.152344028164702">
        <time>2013-06-23T17:28:21.000+02:00</time>
      </trkpt>
      <trkpt lat="46.33303426291033" lon="7.152240514092408">
        <time>2013-06-23T17:28:21.000+02:00</time>
      </trkpt>
      <trkpt lat="46.33300721059912" lon="7.1522146830078555">
        <time>2013-06-23T17:28:21.000+02:00</time>
      </trkpt>
      <trkpt lat="46.33295304029186" lon="7.1521370476984965">
        <time>2013-06-23T17:28:21.000+02:00</time>
      </trkpt>
      <trkpt lat="46.332898935616555" lon="7.152085385735238">
        <time>2013-06-23T17:28:21.000+02:00</time>
      </trkpt>
      <trkpt lat="46.33286272347765" lon="7.1519946692730185">
        <time>2013-06-23T17:28:21.000+02:00</time>
      </trkpt>
      <trkpt lat="46.33290776694646" lon="7.152020405334294">
        <time>2013-06-23T17:28:21.000+02:00</time>
      </trkpt>
      <trkpt lat="46.33291666394804" lon="7.151981398111981">
        <time>2013-06-23T17:28:21.000+02:00</time>
      </trkpt>
      <trkpt lat="46.33292559379289" lon="7.151955377478889">
        <time>2013-06-23T17:28:21.000+02:00</time>
      </trkpt>
      <trkpt lat="46.332889644433045" lon="7.151968553805645">
        <time>2013-06-23T17:28:21.000+02:00</time>
      </trkpt>
      <trkpt lat="46.33287168617923" lon="7.151981635257055">
        <time>2013-06-23T17:28:21.000+02:00</time>
      </trkpt>
      <trkpt lat="46.33287165332555" lon="7.151968648667926">
        <time>2013-06-23T17:28:21.000+02:00</time>
      </trkpt>
      <trkpt lat="46.33281768000307" lon="7.1519689332543805">
        <time>2013-06-23T17:28:21.000+02:00</time>
      </trkpt>
      <trkpt lat="46.33274564986151" lon="7.151943339584043">
        <time>2013-06-23T17:28:21.000+02:00</time>
      </trkpt>
      <trkpt lat="46.332619482072474" lon="7.151853097973147">
        <time>2013-06-23T17:28:21.000+02:00</time>
      </trkpt>
      <trkpt lat="46.33251140394652" lon="7.151801721360174">
        <time>2013-06-23T17:28:21.000+02:00</time>
      </trkpt>
      <trkpt lat="46.33242154702441" lon="7.151841155388035">
        <time>2013-06-23T17:28:21.000+02:00</time>
      </trkpt>
      <trkpt lat="46.33232266166993" lon="7.151867650272783">
        <time>2013-06-23T17:28:21.000+02:00</time>
      </trkpt>
      <trkpt lat="46.3322147478922" lon="7.15188120607181">
        <time>2013-06-23T17:28:21.000+02:00</time>
      </trkpt>
      <trkpt lat="46.332097707096146" lon="7.151842863642805">
        <time>2013-06-23T17:28:21.000+02:00</time>
      </trkpt>
      <trkpt lat="46.331998723137936" lon="7.151830399224868">
        <time>2013-06-23T17:28:21.000+02:00</time>
      </trkpt>
      <trkpt lat="46.331872719645794" lon="7.151805090867324">
        <time>2013-06-23T17:28:21.000+02:00</time>
      </trkpt>
      <trkpt lat="46.33175571170181" lon="7.151779735165671">
        <time>2013-06-23T17:28:21.000+02:00</time>
      </trkpt>
      <trkpt lat="46.33164753489234" lon="7.1516894006247025">
        <time>2013-06-23T17:28:21.000+02:00</time>
      </trkpt>
      <trkpt lat="46.331566344671074" lon="7.151598923969918">
        <time>2013-06-23T17:28:21.000+02:00</time>
      </trkpt>
      <trkpt lat="46.33153029666135" lon="7.1515731413972645">
        <time>2013-06-23T17:28:21.000+02:00</time>
      </trkpt>
      <trkpt lat="46.33151194356758" lon="7.151430387482987">
        <time>2013-06-23T17:28:21.000+02:00</time>
      </trkpt>
      <trkpt lat="46.33148482523164" lon="7.151378585009685">
        <time>2013-06-23T17:28:21.000+02:00</time>
      </trkpt>
      <trkpt lat="46.33143961697509" lon="7.151287918920145">
        <time>2013-06-23T17:28:21.000+02:00</time>
      </trkpt>
      <trkpt lat="46.331331077313656" lon="7.15105473745579">
        <time>2013-06-23T17:28:21.000+02:00</time>
      </trkpt>
      <trkpt lat="46.331240989935225" lon="7.151003268468191">
        <time>2013-06-23T17:28:21.000+02:00</time>
      </trkpt>
      <trkpt lat="46.331222669104335" lon="7.150873501700602">
        <time>2013-06-23T17:28:21.000+02:00</time>
      </trkpt>
      <trkpt lat="46.331132284711046" lon="7.1507051575595755">
        <time>2013-06-23T17:28:21.000+02:00</time>
      </trkpt>
      <trkpt lat="46.33106901878831" lon="7.150588615609673">
        <time>2013-06-23T17:28:21.000+02:00</time>
      </trkpt>
      <trkpt lat="46.33102394198015" lon="7.150549895457867">
        <time>2013-06-23T17:28:21.000+02:00</time>
      </trkpt>
      <trkpt lat="46.33091583024407" lon="7.15048553682165">
        <time>2013-06-23T17:28:21.000+02:00</time>
      </trkpt>
      <trkpt lat="46.330843634615704" lon="7.15039501549263">
        <time>2013-06-23T17:28:21.000+02:00</time>
      </trkpt>
      <trkpt lat="46.33075341476415" lon="7.150291603730981">
        <time>2013-06-23T17:28:21.000+02:00</time>
      </trkpt>
      <trkpt lat="46.330690313698" lon="7.150239993409197">
        <time>2013-06-23T17:28:21.000+02:00</time>
      </trkpt>
      <trkpt lat="46.33058180496071" lon="7.150019803291643">
        <time>2013-06-23T17:28:21.000+02:00</time>
      </trkpt>
      <trkpt lat="46.33050957587204" lon="7.149916297113555">
        <time>2013-06-23T17:28:21.000+02:00</time>
      </trkpt>
      <trkpt lat="46.330401165844165" lon="7.149735066366824">
        <time>2013-06-23T17:28:21.000+02:00</time>
      </trkpt>
      <trkpt lat="46.33029298740848" lon="7.1496447381444455">
        <time>2013-06-23T17:28:21.000+02:00</time>
      </trkpt>
      <trkpt lat="46.330148892951826" lon="7.149580573468331">
        <time>2013-06-23T17:28:21.000+02:00</time>
      </trkpt>
      <trkpt lat="46.33003175197935" lon="7.149503279720204">
        <time>2013-06-23T17:28:21.000+02:00</time>
      </trkpt>
      <trkpt lat="46.32993270148932" lon="7.149464848263384">
        <time>2013-06-23T17:28:21.000+02:00</time>
      </trkpt>
      <trkpt lat="46.32983361784001" lon="7.149413431084698">
        <time>2013-06-23T17:28:21.000+02:00</time>
      </trkpt>
      <trkpt lat="46.329770516375376" lon="7.149361822655081">
        <time>2013-06-23T17:28:21.000+02:00</time>
      </trkpt>
      <trkpt lat="46.32963531782404" lon="7.149258654031753">
        <time>2013-06-23T17:28:21.000+02:00</time>
      </trkpt>
      <trkpt lat="46.32958127817996" lon="7.149232969687818">
        <time>2013-06-23T17:28:21.000+02:00</time>
      </trkpt>
      <trkpt lat="46.32941026318502" lon="7.1491949221373465">
        <time>2013-06-23T17:28:21.000+02:00</time>
      </trkpt>
      <trkpt lat="46.32923035214963" lon="7.149195879871933">
        <time>2013-06-23T17:28:21.000+02:00</time>
      </trkpt>
      <trkpt lat="46.32912233918157" lon="7.149170483125922">
        <time>2013-06-23T17:28:21.000+02:00</time>
      </trkpt>
      <trkpt lat="46.32898717364449" lon="7.149080301867449">
        <time>2013-06-23T17:28:21.000+02:00</time>
      </trkpt>
      <trkpt lat="46.32878900597868" lon="7.148977470886655">
        <time>2013-06-23T17:28:21.000+02:00</time>
      </trkpt>
      <trkpt lat="46.328635982004506" lon="7.148939328836789">
        <time>2013-06-23T17:28:21.000+02:00</time>
      </trkpt>
      <trkpt lat="46.32848309083005" lon="7.148953129157401">
        <time>2013-06-23T17:28:21.000+02:00</time>
      </trkpt>
      <trkpt lat="46.32833906240032" lon="7.148914939458235">
        <time>2013-06-23T17:28:21.000+02:00</time>
      </trkpt>
      <trkpt lat="46.32815012261594" lon="7.148902960572057">
        <time>2013-06-23T17:28:21.000+02:00</time>
      </trkpt>
      <trkpt lat="46.327952021225684" lon="7.148826102644197">
        <time>2013-06-23T17:28:21.000+02:00</time>
      </trkpt>
      <trkpt lat="46.327727032794066" lon="7.1487883452284">
        <time>2013-06-23T17:28:21.000+02:00</time>
      </trkpt>
      <trkpt lat="46.3276009289645" lon="7.148724089922338">
        <time>2013-06-23T17:28:21.000+02:00</time>
      </trkpt>
      <trkpt lat="46.32749271649354" lon="7.148620783060092">
        <time>2013-06-23T17:28:21.000+02:00</time>
      </trkpt>
      <trkpt lat="46.327303676957186" lon="7.148569849610577">
        <time>2013-06-23T17:28:21.000+02:00</time>
      </trkpt>
      <trkpt lat="46.32724040884472" lon="7.1484533183510415">
        <time>2013-06-23T17:28:21.000+02:00</time>
      </trkpt>
      <trkpt lat="46.32715891657984" lon="7.148245986859782">
        <time>2013-06-23T17:28:21.000+02:00</time>
      </trkpt>
      <trkpt lat="46.32699669707598" lon="7.1481299849578575">
        <time>2013-06-23T17:28:21.000+02:00</time>
      </trkpt>
      <trkpt lat="46.326726797259006" lon="7.148118441657396">
        <time>2013-06-23T17:28:21.000+02:00</time>
      </trkpt>
      <trkpt lat="46.32664583730283" lon="7.148118874219453">
        <time>2013-06-23T17:28:21.000+02:00</time>
      </trkpt>
      <trkpt lat="46.32645659770969" lon="7.147990032980832">
        <time>2013-06-23T17:28:21.000+02:00</time>
      </trkpt>
      <trkpt lat="46.326293811229334" lon="7.147653288077584">
        <time>2013-06-23T17:28:21.000+02:00</time>
      </trkpt>
      <trkpt lat="46.326284315277" lon="7.1474585610208345">
        <time>2013-06-23T17:28:21.000+02:00</time>
      </trkpt>
      <trkpt lat="46.326284048259055" lon="7.147354680917894">
        <time>2013-06-23T17:28:21.000+02:00</time>
      </trkpt>
      <trkpt lat="46.3263287255011" lon="7.147237574764097">
        <time>2013-06-23T17:28:21.000+02:00</time>
      </trkpt>
      <trkpt lat="46.326355712151795" lon="7.147237430140363">
        <time>2013-06-23T17:28:21.000+02:00</time>
      </trkpt>
      <trkpt lat="46.32643647169706" lon="7.1471590859735175">
        <time>2013-06-23T17:28:21.000+02:00</time>
      </trkpt>
      <trkpt lat="46.326463424941345" lon="7.147145956255013">
        <time>2013-06-23T17:28:21.000+02:00</time>
      </trkpt>
      <trkpt lat="46.326544284665175" lon="7.147106567021384">
        <time>2013-06-23T17:28:21.000+02:00</time>
      </trkpt>
      <trkpt lat="46.3265980908896" lon="7.14704135220433">
        <time>2013-06-23T17:28:21.000+02:00</time>
      </trkpt>
      <trkpt lat="46.326588928225284" lon="7.146976475017876">
        <time>2013-06-23T17:28:21.000+02:00</time>
      </trkpt>
      <trkpt lat="46.32648987688734" lon="7.146938050596315">
        <time>2013-06-23T17:28:21.000+02:00</time>
      </trkpt>
      <trkpt lat="46.32639085897123" lon="7.146912611352732">
        <time>2013-06-23T17:28:21.000+02:00</time>
      </trkpt>
      <trkpt lat="46.32624689673541" lon="7.146900398534309">
        <time>2013-06-23T17:28:21.000+02:00</time>
      </trkpt>
      <trkpt lat="46.32612995458482" lon="7.146901025959656">
        <time>2013-06-23T17:28:21.000+02:00</time>
      </trkpt>
      <trkpt lat="46.32601307930184" lon="7.146927623277855">
        <time>2013-06-23T17:28:21.000+02:00</time>
      </trkpt>
      <trkpt lat="46.325959106001775" lon="7.1469279128308045">
        <time>2013-06-23T17:28:21.000+02:00</time>
      </trkpt>
      <trkpt lat="46.32589620401298" lon="7.146954220481656">
        <time>2013-06-23T17:28:21.000+02:00</time>
      </trkpt>
      <trkpt lat="46.325833201733246" lon="7.146941573356937">
        <time>2013-06-23T17:28:21.000+02:00</time>
      </trkpt>
      <trkpt lat="46.32570706342424" lon="7.146864339696451">
        <time>2013-06-23T17:28:21.000+02:00</time>
      </trkpt>
      <trkpt lat="46.32565305668468" lon="7.14685164444872">
        <time>2013-06-23T17:28:21.000+02:00</time>
      </trkpt>
      <trkpt lat="46.32563506558491" lon="7.146851740990909">
        <time>2013-06-23T17:28:21.000+02:00</time>
      </trkpt>
      <trkpt lat="46.325599083385356" lon="7.146851934075092">
        <time>2013-06-23T17:28:21.000+02:00</time>
      </trkpt>
      <trkpt lat="46.325509261637755" lon="7.146904356094232">
        <time>2013-06-23T17:28:21.000+02:00</time>
      </trkpt>
      <trkpt lat="46.3253924532165" lon="7.146956922700586">
        <time>2013-06-23T17:28:21.000+02:00</time>
      </trkpt>
      <trkpt lat="46.32538345766662" lon="7.14695697095403">
        <time>2013-06-23T17:28:21.000+02:00</time>
      </trkpt>
      <trkpt lat="46.32534747546715" lon="7.146957163967648">
        <time>2013-06-23T17:28:21.000+02:00</time>
      </trkpt>
      <trkpt lat="46.325266615797844" lon="7.146996552556069">
        <time>2013-06-23T17:28:21.000+02:00</time>
      </trkpt>
      <trkpt lat="46.32510469590067" lon="7.14699742099548">
        <time>2013-06-23T17:28:21.000+02:00</time>
      </trkpt>
      <trkpt lat="46.32501487408696" lon="7.147049842297493">
        <time>2013-06-23T17:28:21.000+02:00</time>
      </trkpt>
      <trkpt lat="46.32495207231008" lon="7.147115103433846">
        <time>2013-06-23T17:28:21.000+02:00</time>
      </trkpt>
      <trkpt lat="46.32491615692902" lon="7.147141265713206">
        <time>2013-06-23T17:28:21.000+02:00</time>
      </trkpt>
      <trkpt lat="46.32486245084331" lon="7.147245432433477">
        <time>2013-06-23T17:28:21.000+02:00</time>
      </trkpt>
      <trkpt lat="46.32476380029546" lon="7.1473628245373">
        <time>2013-06-23T17:28:21.000+02:00</time>
      </trkpt>
      <trkpt lat="46.32471905618513" lon="7.147453957939287">
        <time>2013-06-23T17:28:21.000+02:00</time>
      </trkpt>
      <trkpt lat="46.32465622081087" lon="7.14750623362966">
        <time>2013-06-23T17:28:21.000+02:00</time>
      </trkpt>
      <trkpt lat="46.324575360952196" lon="7.147545620900664">
        <time>2013-06-23T17:28:21.000+02:00</time>
      </trkpt>
      <trkpt lat="46.324494434363444" lon="7.147559038883331">
        <time>2013-06-23T17:28:21.000+02:00</time>
      </trkpt>
      <trkpt lat="46.324404545580855" lon="7.147585489540853">
        <time>2013-06-23T17:28:21.000+02:00</time>
      </trkpt>
      <trkpt lat="46.324332647892106" lon="7.147611843822669">
        <time>2013-06-23T17:28:21.000+02:00</time>
      </trkpt>
      <trkpt lat="46.32418888584357" lon="7.147677536689837">
        <time>2013-06-23T17:28:21.000+02:00</time>
      </trkpt>
      <trkpt lat="46.32415293698944" lon="7.1476907137263135">
        <time>2013-06-23T17:28:21.000+02:00</time>
      </trkpt>
      <trkpt lat="46.324125983683686" lon="7.147703842616654">
        <time>2013-06-23T17:28:21.000+02:00</time>
      </trkpt>
      <trkpt lat="46.32409899703405" lon="7.147703987002733">
        <time>2013-06-23T17:28:21.000+02:00</time>
      </trkpt>
      <trkpt lat="46.32371208835589" lon="7.147667103323921">
        <time>2013-06-23T17:29:21.000+02:00</time>
      </trkpt>
      <trkpt lat="46.32337025746637" lon="7.147668932419901">
        <time>2013-06-23T17:30:21.000+02:00</time>
      </trkpt>
      <trkpt lat="46.32299237768487" lon="7.147644985571052">
        <time>2013-06-23T17:30:21.000+02:00</time>
      </trkpt>
      <trkpt lat="46.32272264458561" lon="7.147698366336182">
        <time>2013-06-23T17:30:21.000+02:00</time>
      </trkpt>
      <trkpt lat="46.32280363787459" lon="7.1477109173624775">
        <time>2013-06-23T17:30:21.000+02:00</time>
      </trkpt>
      <trkpt lat="46.32265974242348" lon="7.147724671529206">
        <time>2013-06-23T17:30:21.000+02:00</time>
      </trkpt>
      <trkpt lat="46.32255186250774" lon="7.147751217258707">
        <time>2013-06-23T17:30:21.000+02:00</time>
      </trkpt>
      <trkpt lat="46.322462040351525" lon="7.147803634853732">
        <time>2013-06-23T17:30:21.000+02:00</time>
      </trkpt>
      <trkpt lat="46.322336169318895" lon="7.147830276542316">
        <time>2013-06-23T17:30:21.000+02:00</time>
      </trkpt>
      <trkpt lat="46.32221016496608" lon="7.147804981946253">
        <time>2013-06-23T17:30:21.000+02:00</time>
      </trkpt>
      <trkpt lat="46.32211104724618" lon="7.147740591074629">
        <time>2013-06-23T17:30:21.000+02:00</time>
      </trkpt>
      <trkpt lat="46.32202092503926" lon="7.14767615230636">
        <time>2013-06-23T17:30:21.000+02:00</time>
      </trkpt>
      <trkpt lat="46.321912744987" lon="7.147585842097218">
        <time>2013-06-23T17:30:21.000+02:00</time>
      </trkpt>
      <trkpt lat="46.32180446475527" lon="7.147456580417739">
        <time>2013-06-23T17:30:21.000+02:00</time>
      </trkpt>
      <trkpt lat="46.321678293430374" lon="7.147366367369456">
        <time>2013-06-23T17:30:21.000+02:00</time>
      </trkpt>
      <trkpt lat="46.32154329342729" lon="7.147341122340395">
        <time>2013-06-23T17:30:21.000+02:00</time>
      </trkpt>
      <trkpt lat="46.321417422506705" lon="7.147367764648935">
        <time>2013-06-23T17:30:21.000+02:00</time>
      </trkpt>
      <trkpt lat="46.32123781189975" lon="7.147485582552473">
        <time>2013-06-23T17:30:21.000+02:00</time>
      </trkpt>
      <trkpt lat="46.32114792314247" lon="7.14751203174614">
        <time>2013-06-23T17:30:21.000+02:00</time>
      </trkpt>
      <trkpt lat="46.32113856048696" lon="7.147369258277383">
        <time>2013-06-23T17:30:21.000+02:00</time>
      </trkpt>
      <trkpt lat="46.321183404693926" lon="7.147317082191269">
        <time>2013-06-23T17:30:21.000+02:00</time>
      </trkpt>
      <trkpt lat="46.32131820436669" lon="7.147264424031728">
        <time>2013-06-23T17:30:21.000+02:00</time>
      </trkpt>
      <trkpt lat="46.321453037414315" lon="7.147224749470165">
        <time>2013-06-23T17:30:21.000+02:00</time>
      </trkpt>
      <trkpt lat="46.32160582814324" lon="7.14717199439178">
        <time>2013-06-23T17:30:21.000+02:00</time>
      </trkpt>
      <trkpt lat="46.32177657653542" lon="7.147106158634019">
        <time>2013-06-23T17:30:21.000+02:00</time>
      </trkpt>
      <trkpt lat="46.32193836275955" lon="7.147053354674047">
        <time>2013-06-23T17:30:21.000+02:00</time>
      </trkpt>
      <trkpt lat="46.32211800635098" lon="7.146948517842323">
        <time>2013-06-23T17:30:21.000+02:00</time>
      </trkpt>
      <trkpt lat="46.322261466972975" lon="7.146765969083514">
        <time>2013-06-23T17:30:21.000+02:00</time>
      </trkpt>
      <trkpt lat="46.32238713700602" lon="7.146661420476921">
        <time>2013-06-23T17:30:21.000+02:00</time>
      </trkpt>
      <trkpt lat="46.32253093192756" lon="7.14660871121735">
        <time>2013-06-23T17:30:21.000+02:00</time>
      </trkpt>
      <trkpt lat="46.32264777365205" lon="7.146569130774619">
        <time>2013-06-23T17:30:21.000+02:00</time>
      </trkpt>
      <trkpt lat="46.32277364438914" lon="7.146542486014018">
        <time>2013-06-23T17:30:21.000+02:00</time>
      </trkpt>
      <trkpt lat="46.32291737228931" lon="7.1464638076484714">
        <time>2013-06-23T17:30:21.000+02:00</time>
      </trkpt>
      <trkpt lat="46.32309691484145" lon="7.14632001422773">
        <time>2013-06-23T17:30:21.000+02:00</time>
      </trkpt>
      <trkpt lat="46.32321389048019" lon="7.1463323698683165">
        <time>2013-06-23T17:30:21.000+02:00</time>
      </trkpt>
      <trkpt lat="46.32334892421106" lon="7.146370597478834">
        <time>2013-06-23T17:30:21.000+02:00</time>
      </trkpt>
      <trkpt lat="46.32351970564856" lon="7.146317741445055">
        <time>2013-06-23T17:30:21.000+02:00</time>
      </trkpt>
      <trkpt lat="46.32367229488865" lon="7.146187075481344">
        <time>2013-06-23T17:30:21.000+02:00</time>
      </trkpt>
      <trkpt lat="46.323797830264496" lon="7.146030585150566">
        <time>2013-06-23T17:30:21.000+02:00</time>
      </trkpt>
      <trkpt lat="46.32392336542459" lon="7.145874094097215">
        <time>2013-06-23T17:30:21.000+02:00</time>
      </trkpt>
      <trkpt lat="46.32404003909123" lon="7.145769588682029">
        <time>2013-06-23T17:30:21.000+02:00</time>
      </trkpt>
      <trkpt lat="46.324210685956" lon="7.145664792021902">
        <time>2013-06-23T17:30:21.000+02:00</time>
      </trkpt>
      <trkpt lat="46.32437226999487" lon="7.1455340740772995">
        <time>2013-06-23T17:30:21.000+02:00</time>
      </trkpt>
      <trkpt lat="46.324488909744716" lon="7.145416582486752">
        <time>2013-06-23T17:30:21.000+02:00</time>
      </trkpt>
      <trkpt lat="46.32457829372849" lon="7.145195359139901">
        <time>2013-06-23T17:30:21.000+02:00</time>
      </trkpt>
      <trkpt lat="46.32473078073481" lon="7.14502573356116">
        <time>2013-06-23T17:30:21.000+02:00</time>
      </trkpt>
      <trkpt lat="46.32496439575688" lon="7.144920593105827">
        <time>2013-06-23T17:30:21.000+02:00</time>
      </trkpt>
      <trkpt lat="46.32525195030134" lon="7.1448021753365545">
        <time>2013-06-23T17:30:21.000+02:00</time>
      </trkpt>
      <trkpt lat="46.32531485178928" lon="7.144775865508162">
        <time>2013-06-23T17:30:21.000+02:00</time>
      </trkpt>
      <trkpt lat="46.32529689436943" lon="7.1447889475119455">
        <time>2013-06-23T17:30:21.000+02:00</time>
      </trkpt>
      <trkpt lat="46.325296928045944" lon="7.144801932287367">
        <time>2013-06-23T17:30:21.000+02:00</time>
      </trkpt>
      <trkpt lat="46.32530585624036" lon="7.144775914122361">
        <time>2013-06-23T17:30:21.000+02:00</time>
      </trkpt>
      <trkpt lat="46.325305822560885" lon="7.144762929344828">
        <time>2013-06-23T17:30:21.000+02:00</time>
      </trkpt>
      <trkpt lat="46.3253777195887" lon="7.144736570824198">
        <time>2013-06-23T17:30:21.000+02:00</time>
      </trkpt>
      <trkpt lat="46.32550338775949" lon="7.14463201153436">
        <time>2013-06-23T17:30:21.000+02:00</time>
      </trkpt>
      <trkpt lat="46.325646709785296" lon="7.144397505862177">
        <time>2013-06-23T17:30:21.000+02:00</time>
      </trkpt>
      <trkpt lat="46.32581688296463" lon="7.1441109132088645">
        <time>2013-06-23T17:30:21.000+02:00</time>
      </trkpt>
      <trkpt lat="46.32589720128973" lon="7.143863761237889">
        <time>2013-06-23T17:30:21.000+02:00</time>
      </trkpt>
      <trkpt lat="46.32598607494763" lon="7.143447755520277">
        <time>2013-06-23T17:30:21.000+02:00</time>
      </trkpt>
      <trkpt lat="46.32607535351479" lon="7.1431875679651675">
        <time>2013-06-23T17:30:21.000+02:00</time>
      </trkpt>
      <trkpt lat="46.326182758131836" lon="7.142979221657104">
        <time>2013-06-23T17:30:21.000+02:00</time>
      </trkpt>
      <trkpt lat="46.326371156208545" lon="7.142783419034576">
        <time>2013-06-23T17:30:21.000+02:00</time>
      </trkpt>
      <trkpt lat="46.32648758956169" lon="7.142588006873715">
        <time>2013-06-23T17:30:21.000+02:00</time>
      </trkpt>
      <trkpt lat="46.32656790456597" lon="7.142340849605118">
        <time>2013-06-23T17:30:21.000+02:00</time>
      </trkpt>
      <trkpt lat="46.32662085844948" lon="7.14195100279584">
        <time>2013-06-23T17:30:21.000+02:00</time>
      </trkpt>
      <trkpt lat="46.32662007599819" lon="7.141652345736239">
        <time>2013-06-23T17:30:21.000+02:00</time>
      </trkpt>
      <trkpt lat="46.32658344684053" lon="7.1414058257333135">
        <time>2013-06-23T17:30:21.000+02:00</time>
      </trkpt>
      <trkpt lat="46.326564842334335" lon="7.1411721927111085">
        <time>2013-06-23T17:30:21.000+02:00</time>
      </trkpt>
      <trkpt lat="46.32656426255929" lon="7.1409514464240305">
        <time>2013-06-23T17:30:21.000+02:00</time>
      </trkpt>
      <trkpt lat="46.326563682354134" lon="7.140730700141769">
        <time>2013-06-23T17:30:21.000+02:00</time>
      </trkpt>
      <trkpt lat="46.32658984915079" lon="7.140418910331156">
        <time>2013-06-23T17:30:21.000+02:00</time>
      </trkpt>
      <trkpt lat="46.3265707635954" lon="7.140003486547022">
        <time>2013-06-23T17:30:21.000+02:00</time>
      </trkpt>
      <trkpt lat="46.326615330515146" lon="7.139847418476524">
        <time>2013-06-23T17:30:21.000+02:00</time>
      </trkpt>
      <trkpt lat="46.326677819788046" lon="7.139665281033181">
        <time>2013-06-23T17:30:21.000+02:00</time>
      </trkpt>
      <trkpt lat="46.32674003443787" lon="7.13937926223861">
        <time>2013-06-23T17:30:21.000+02:00</time>
      </trkpt>
      <trkpt lat="46.326748137753064" lon="7.139041599650728">
        <time>2013-06-23T17:30:21.000+02:00</time>
      </trkpt>
      <trkpt lat="46.32684612677581" lon="7.138677470477843">
        <time>2013-06-23T17:30:21.000+02:00</time>
      </trkpt>
      <trkpt lat="46.326863945961996" lon="7.1386124455004865">
        <time>2013-06-23T17:30:21.000+02:00</time>
      </trkpt>
      <trkpt lat="46.32685409032207" lon="7.138287866554801">
        <time>2013-06-23T17:30:21.000+02:00</time>
      </trkpt>
      <trkpt lat="46.32683520374571" lon="7.137950352331419">
        <time>2013-06-23T17:30:21.000+02:00</time>
      </trkpt>
      <trkpt lat="46.326870496412475" lon="7.137690450417474">
        <time>2013-06-23T17:30:21.000+02:00</time>
      </trkpt>
      <trkpt lat="46.32682444875237" lon="7.137288160154587">
        <time>2013-06-23T17:30:21.000+02:00</time>
      </trkpt>
      <trkpt lat="46.326544480889794" lon="7.1368741834430125">
        <time>2013-06-23T17:30:21.000+02:00</time>
      </trkpt>
      <trkpt lat="46.32646289821954" lon="7.136640901869809">
        <time>2013-06-23T17:30:21.000+02:00</time>
      </trkpt>
      <trkpt lat="46.326561260616984" lon="7.136419606072342">
        <time>2013-06-23T17:30:21.000+02:00</time>
      </trkpt>
      <trkpt lat="46.32664232442991" lon="7.136458111364815">
        <time>2013-06-23T17:30:21.000+02:00</time>
      </trkpt>
      <trkpt lat="46.32693049351978" lon="7.136573378067464">
        <time>2013-06-23T17:30:21.000+02:00</time>
      </trkpt>
      <trkpt lat="46.3271373218309" lon="7.136546258270773">
        <time>2013-06-23T17:30:21.000+02:00</time>
      </trkpt>
      <trkpt lat="46.327182195687094" lon="7.136507052722712">
        <time>2013-06-23T17:30:21.000+02:00</time>
      </trkpt>
      <trkpt lat="46.327397291980766" lon="7.136207191856676">
        <time>2013-06-23T17:30:21.000+02:00</time>
      </trkpt>
      <trkpt lat="46.32753205184292" lon="7.136141514830342">
        <time>2013-06-23T17:30:21.000+02:00</time>
      </trkpt>
      <trkpt lat="46.32759519398589" lon="7.136206091109516">
        <time>2013-06-23T17:30:21.000+02:00</time>
      </trkpt>
      <trkpt lat="46.32774884581671" lon="7.136477932988664">
        <time>2013-06-23T17:30:21.000+02:00</time>
      </trkpt>
      <trkpt lat="46.32785727703926" lon="7.136659128455403">
        <time>2013-06-23T17:30:21.000+02:00</time>
      </trkpt>
      <trkpt lat="46.32791159633117" lon="7.13678868264349">
        <time>2013-06-23T17:30:21.000+02:00</time>
      </trkpt>
      <trkpt lat="46.32795681618429" lon="7.136879330790704">
        <time>2013-06-23T17:30:21.000+02:00</time>
      </trkpt>
      <trkpt lat="46.32799307499143" lon="7.136983014411026">
        <time>2013-06-23T17:30:21.000+02:00</time>
      </trkpt>
      <trkpt lat="46.328065454116754" lon="7.1371384403401725">
        <time>2013-06-23T17:30:21.000+02:00</time>
      </trkpt>
      <trkpt lat="46.32811977286094" lon="7.1372679955032305">
        <time>2013-06-23T17:30:21.000+02:00</time>
      </trkpt>
      <trkpt lat="46.32816509591064" lon="7.137397600762743">
        <time>2013-06-23T17:30:21.000+02:00</time>
      </trkpt>
      <trkpt lat="46.328174436626426" lon="7.137527405502878">
        <time>2013-06-23T17:30:21.000+02:00</time>
      </trkpt>
      <trkpt lat="46.32820194074104" lon="7.137722038020907">
        <time>2013-06-23T17:30:21.000+02:00</time>
      </trkpt>
      <trkpt lat="46.3282293755886" lon="7.137890699793459">
        <time>2013-06-23T17:30:21.000+02:00</time>
      </trkpt>
      <trkpt lat="46.32823881909172" lon="7.138059461192575">
        <time>2013-06-23T17:30:21.000+02:00</time>
      </trkpt>
      <trkpt lat="46.328275283412246" lon="7.138241059032042">
        <time>2013-06-23T17:30:21.000+02:00</time>
      </trkpt>
      <trkpt lat="46.328347867244986" lon="7.138474400442045">
        <time>2013-06-23T17:30:21.000+02:00</time>
      </trkpt>
      <trkpt lat="46.32841138629888" lon="7.1386818210657355">
        <time>2013-06-23T17:30:21.000+02:00</time>
      </trkpt>
      <trkpt lat="46.32847521409371" lon="7.139006111949462">
        <time>2013-06-23T17:30:21.000+02:00</time>
      </trkpt>
      <trkpt lat="46.32854817370736" lon="7.139382296269858">
        <time>2013-06-23T17:30:21.000+02:00</time>
      </trkpt>
      <trkpt lat="46.32862120057679" lon="7.1397844527321785">
        <time>2013-06-23T17:30:21.000+02:00</time>
      </trkpt>
      <trkpt lat="46.32870257140803" lon="7.139939834769377">
        <time>2013-06-23T17:30:21.000+02:00</time>
      </trkpt>
      <trkpt lat="46.328783805153634" lon="7.140043274851347">
        <time>2013-06-23T17:30:21.000+02:00</time>
      </trkpt>
      <trkpt lat="46.32888316672586" lon="7.140198558990984">
        <time>2013-06-23T17:30:21.000+02:00</time>
      </trkpt>
      <trkpt lat="46.32891942249646" lon="7.140302246591868">
        <time>2013-06-23T17:30:21.000+02:00</time>
      </trkpt>
      <trkpt lat="46.328937550346204" lon="7.140354090444173">
        <time>2013-06-23T17:30:21.000+02:00</time>
      </trkpt>
      <trkpt lat="46.32898256227034" lon="7.140366829350916">
        <time>2013-06-23T17:30:21.000+02:00</time>
      </trkpt>
      <trkpt lat="46.32899148944705" lon="7.140340808694083">
        <time>2013-06-23T17:30:21.000+02:00</time>
      </trkpt>
      <trkpt lat="46.32905384267325" lon="7.140106721178567">
        <time>2013-06-23T17:30:21.000+02:00</time>
      </trkpt>
      <trkpt lat="46.32908007625045" lon="7.139820888139236">
        <time>2013-06-23T17:30:21.000+02:00</time>
      </trkpt>
      <trkpt lat="46.32908804372871" lon="7.1394312683748336">
        <time>2013-06-23T17:30:21.000+02:00</time>
      </trkpt>
      <trkpt lat="46.32908728895987" lon="7.1391455834780295">
        <time>2013-06-23T17:30:21.000+02:00</time>
      </trkpt>
      <trkpt lat="46.32908649911316" lon="7.1388469129127685">
        <time>2013-06-23T17:30:21.000+02:00</time>
      </trkpt>
      <trkpt lat="46.32907654095094" lon="7.138483363634539">
        <time>2013-06-23T17:30:21.000+02:00</time>
      </trkpt>
      <trkpt lat="46.32907578379206" lon="7.138197678811943">
        <time>2013-06-23T17:30:21.000+02:00</time>
      </trkpt>
      <trkpt lat="46.32909281018706" lon="7.137833980426123">
        <time>2013-06-23T17:30:21.000+02:00</time>
      </trkpt>
      <trkpt lat="46.32912803357747" lon="7.137548096273303">
        <time>2013-06-23T17:30:21.000+02:00</time>
      </trkpt>
      <trkpt lat="46.32920826851853" lon="7.137274948150043">
        <time>2013-06-23T17:30:21.000+02:00</time>
      </trkpt>
      <trkpt lat="46.329234806032545" lon="7.1371059843312405">
        <time>2013-06-23T17:30:21.000+02:00</time>
      </trkpt>
      <trkpt lat="46.32928808785717" lon="7.136845970538975">
        <time>2013-06-23T17:30:21.000+02:00</time>
      </trkpt>
      <trkpt lat="46.329305421516636" lon="7.136599141856333">
        <time>2013-06-23T17:30:21.000+02:00</time>
      </trkpt>
      <trkpt lat="46.32934057249122" lon="7.136287284315259">
        <time>2013-06-23T17:30:21.000+02:00</time>
      </trkpt>
      <trkpt lat="46.329357870252984" lon="7.13602746947703">
        <time>2013-06-23T17:30:21.000+02:00</time>
      </trkpt>
      <trkpt lat="46.32935700275262" lon="7.135702825994778">
        <time>2013-06-23T17:30:21.000+02:00</time>
      </trkpt>
      <trkpt lat="46.32932911292827" lon="7.135365347309279">
        <time>2013-06-23T17:30:21.000+02:00</time>
      </trkpt>
      <trkpt lat="46.32931032202558" lon="7.13506677592197">
        <time>2013-06-23T17:30:21.000+02:00</time>
      </trkpt>
      <trkpt lat="46.329300525881635" lon="7.134768154467557">
        <time>2013-06-23T17:30:21.000+02:00</time>
      </trkpt>
      <trkpt lat="46.3292995850442" lon="7.134417539899697">
        <time>2013-06-23T17:30:21.000+02:00</time>
      </trkpt>
      <trkpt lat="46.32928971738586" lon="7.134092947177773">
        <time>2013-06-23T17:30:21.000+02:00</time>
      </trkpt>
      <trkpt lat="46.329243971431815" lon="7.133807513462473">
        <time>2013-06-23T17:30:21.000+02:00</time>
      </trkpt>
      <trkpt lat="46.329153421858344" lon="7.133587261071188">
        <time>2013-06-23T17:30:21.000+02:00</time>
      </trkpt>
      <trkpt lat="46.329008863601224" lon="7.133354326790585">
        <time>2013-06-23T17:30:21.000+02:00</time>
      </trkpt>
      <trkpt lat="46.32886433987954" lon="7.133134379368327">
        <time>2013-06-23T17:30:21.000+02:00</time>
      </trkpt>
      <trkpt lat="46.32873777178152" lon="7.132901346366383">
        <time>2013-06-23T17:30:21.000+02:00</time>
      </trkpt>
      <trkpt lat="46.32864718538214" lon="7.1326681119675435">
        <time>2013-06-23T17:30:21.000+02:00</time>
      </trkpt>
      <trkpt lat="46.32855656340898" lon="7.132421892800252">
        <time>2013-06-23T17:30:21.000+02:00</time>
      </trkpt>
      <trkpt lat="46.328474971567246" lon="7.132188609278066">
        <time>2013-06-23T17:30:21.000+02:00</time>
      </trkpt>
      <trkpt lat="46.328393484683005" lon="7.131994282975451">
        <time>2013-06-23T17:30:21.000+02:00</time>
      </trkpt>
      <trkpt lat="46.3282669494114" lon="7.131774240121994">
        <time>2013-06-23T17:30:21.000+02:00</time>
      </trkpt>
      <trkpt lat="46.32813155893354" lon="7.131606190871521">
        <time>2013-06-23T17:30:21.000+02:00</time>
      </trkpt>
      <trkpt lat="46.32805910180451" lon="7.13142480126773">
        <time>2013-06-23T17:30:21.000+02:00</time>
      </trkpt>
      <trkpt lat="46.32811272290274" lon="7.131294641923333">
        <time>2013-06-23T17:30:21.000+02:00</time>
      </trkpt>
      <trkpt lat="46.328229664970124" lon="7.131293980907993">
        <time>2013-06-23T17:30:21.000+02:00</time>
      </trkpt>
      <trkpt lat="46.32839193692199" lon="7.13142292070746">
        <time>2013-06-23T17:30:21.000+02:00</time>
      </trkpt>
      <trkpt lat="46.32854517798892" lon="7.131538926539188">
        <time>2013-06-23T17:30:21.000+02:00</time>
      </trkpt>
      <trkpt lat="46.328716198903464" lon="7.1315769179484825">
        <time>2013-06-23T17:30:21.000+02:00</time>
      </trkpt>
      <trkpt lat="46.32890528126526" lon="7.131640779263536">
        <time>2013-06-23T17:30:21.000+02:00</time>
      </trkpt>
      <trkpt lat="46.3290404958515" lon="7.131743902686782">
        <time>2013-06-23T17:30:21.000+02:00</time>
      </trkpt>
      <trkpt lat="46.32913083809849" lon="7.131886237454432">
        <time>2013-06-23T17:30:21.000+02:00</time>
      </trkpt>
      <trkpt lat="46.32925744341416" lon="7.1321322554901565">
        <time>2013-06-23T17:30:21.000+02:00</time>
      </trkpt>
      <trkpt lat="46.3293390002718" lon="7.132352556552244">
        <time>2013-06-23T17:30:21.000+02:00</time>
      </trkpt>
      <trkpt lat="46.32943875822767" lon="7.132650671540308">
        <time>2013-06-23T17:30:21.000+02:00</time>
      </trkpt>
      <trkpt lat="46.32959231347767" lon="7.132883555205415">
        <time>2013-06-23T17:30:21.000+02:00</time>
      </trkpt>
      <trkpt lat="46.32975454859877" lon="7.132999517147937">
        <time>2013-06-23T17:30:21.000+02:00</time>
      </trkpt>
      <trkpt lat="46.329943840263866" lon="7.133141299894206">
        <time>2013-06-23T17:30:21.000+02:00</time>
      </trkpt>
      <trkpt lat="46.330061202387725" lon="7.133296473694306">
        <time>2013-06-23T17:30:21.000+02:00</time>
      </trkpt>
      <trkpt lat="46.3301876297948" lon="7.133477569543879">
        <time>2013-06-23T17:30:21.000+02:00</time>
      </trkpt>
      <trkpt lat="46.330269253932606" lon="7.133723848304604">
        <time>2013-06-23T17:30:21.000+02:00</time>
      </trkpt>
      <trkpt lat="46.33034181215257" lon="7.133944206265364">
        <time>2013-06-23T17:30:21.000+02:00</time>
      </trkpt>
      <trkpt lat="46.33041443973099" lon="7.1341905367955825">
        <time>2013-06-23T17:30:21.000+02:00</time>
      </trkpt>
      <trkpt lat="46.33049606231963" lon="7.134436817654369">
        <time>2013-06-23T17:30:21.000+02:00</time>
      </trkpt>
      <trkpt lat="46.33056865399119" lon="7.134670163513917">
        <time>2013-06-23T17:30:21.000+02:00</time>
      </trkpt>
      <trkpt lat="46.33065937550308" lon="7.13495535368991">
        <time>2013-06-23T17:30:21.000+02:00</time>
      </trkpt>
      <trkpt lat="46.33072293578281" lon="7.1351757650834156">
        <time>2013-06-23T17:30:21.000+02:00</time>
      </trkpt>
      <trkpt lat="46.33079563018319" lon="7.135448071151075">
        <time>2013-06-23T17:30:21.000+02:00</time>
      </trkpt>
      <trkpt lat="46.330859571362836" lon="7.135811330750501">
        <time>2013-06-23T17:30:21.000+02:00</time>
      </trkpt>
      <trkpt lat="46.33088735585084" lon="7.136109860850133">
        <time>2013-06-23T17:30:21.000+02:00</time>
      </trkpt>
      <trkpt lat="46.33089697525187" lon="7.136343560725938">
        <time>2013-06-23T17:30:21.000+02:00</time>
      </trkpt>
      <trkpt lat="46.330906836463264" lon="7.1366681634533835">
        <time>2013-06-23T17:30:21.000+02:00</time>
      </trkpt>
      <trkpt lat="46.330925588572505" lon="7.136953758047865">
        <time>2013-06-23T17:30:21.000+02:00</time>
      </trkpt>
      <trkpt lat="46.33097111932071" lon="7.137161286486506">
        <time>2013-06-23T17:30:21.000+02:00</time>
      </trkpt>
      <trkpt lat="46.331043636329966" lon="7.137368665737599">
        <time>2013-06-23T17:30:21.000+02:00</time>
      </trkpt>
      <trkpt lat="46.33113431655524" lon="7.137640876744374">
        <time>2013-06-23T17:30:21.000+02:00</time>
      </trkpt>
      <trkpt lat="46.331260771497256" lon="7.137834972466866">
        <time>2013-06-23T17:30:21.000+02:00</time>
      </trkpt>
      <trkpt lat="46.33138715720017" lon="7.138003096641217">
        <time>2013-06-23T17:30:21.000+02:00</time>
      </trkpt>
      <trkpt lat="46.331549800282446" lon="7.138274912861773">
        <time>2013-06-23T17:30:21.000+02:00</time>
      </trkpt>
      <trkpt lat="46.331694314035325" lon="7.1384948848133485">
        <time>2013-06-23T17:30:21.000+02:00</time>
      </trkpt>
      <trkpt lat="46.33188383947344" lon="7.13872759616315">
        <time>2013-06-23T17:30:21.000+02:00</time>
      </trkpt>
      <trkpt lat="46.33208215388394" lon="7.138882341199789">
        <time>2013-06-23T17:30:21.000+02:00</time>
      </trkpt>
      <trkpt lat="46.332181551391415" lon="7.139050619052617">
        <time>2013-06-23T17:30:21.000+02:00</time>
      </trkpt>
      <trkpt lat="46.33234419196414" lon="7.139322442378628">
        <time>2013-06-23T17:30:21.000+02:00</time>
      </trkpt>
      <trkpt lat="46.33256097652034" lon="7.1396589029959125">
        <time>2013-06-23T17:30:21.000+02:00</time>
      </trkpt>
      <trkpt lat="46.33274164096585" lon="7.139943617743482">
        <time>2013-06-23T17:30:21.000+02:00</time>
      </trkpt>
      <trkpt lat="46.33295832109096" lon="7.1402411234905605">
        <time>2013-06-23T17:30:21.000+02:00</time>
      </trkpt>
      <trkpt lat="46.33320167954273" lon="7.140421603695746">
        <time>2013-06-23T17:30:21.000+02:00</time>
      </trkpt>
      <trkpt lat="46.33340857716704" lon="7.140420468825032">
        <time>2013-06-23T17:30:21.000+02:00</time>
      </trkpt>
      <trkpt lat="46.33366931136173" lon="7.140367090799618">
        <time>2013-06-23T17:30:21.000+02:00</time>
      </trkpt>
      <trkpt lat="46.3338764824139" lon="7.140469850284753">
        <time>2013-06-23T17:30:21.000+02:00</time>
      </trkpt>
      <trkpt lat="46.334173745495654" lon="7.140624064944782">
        <time>2013-06-23T17:30:21.000+02:00</time>
      </trkpt>
      <trkpt lat="46.33449809742182" lon="7.140817094349643">
        <time>2013-06-23T17:30:21.000+02:00</time>
      </trkpt>
      <trkpt lat="46.33481307816808" lon="7.140867317799389">
        <time>2013-06-23T17:30:21.000+02:00</time>
      </trkpt>
      <trkpt lat="46.33510972651124" lon="7.140787769187778">
        <time>2013-06-23T17:30:21.000+02:00</time>
      </trkpt>
      <trkpt lat="46.33538858854476" lon="7.1407862413997485">
        <time>2013-06-23T17:30:21.000+02:00</time>
      </trkpt>
      <trkpt lat="46.33556829469135" lon="7.140707332364924">
        <time>2013-06-23T17:30:21.000+02:00</time>
      </trkpt>
      <trkpt lat="46.33581124281614" lon="7.14073197590888">
        <time>2013-06-23T17:30:21.000+02:00</time>
      </trkpt>
      <trkpt lat="46.33591056933703" lon="7.140874294069813">
        <time>2013-06-23T17:30:21.000+02:00</time>
      </trkpt>
      <trkpt lat="46.33613689006218" lon="7.141418531527346">
        <time>2013-06-23T17:30:21.000+02:00</time>
      </trkpt>
      <trkpt lat="46.33638089320396" lon="7.141845788547708">
        <time>2013-06-23T17:30:21.000+02:00</time>
      </trkpt>
      <trkpt lat="46.33675086640722" lon="7.1422853503672235">
        <time>2013-06-23T17:30:21.000+02:00</time>
      </trkpt>
      <trkpt lat="46.33714768889345" lon="7.142672820857046">
        <time>2013-06-23T17:30:21.000+02:00</time>
      </trkpt>
      <trkpt lat="46.33744484728737" lon="7.1427880938126105">
        <time>2013-06-23T17:30:21.000+02:00</time>
      </trkpt>
      <trkpt lat="46.33750781614308" lon="7.142787751131228">
        <time>2013-06-23T17:30:21.000+02:00</time>
      </trkpt>
      <trkpt lat="46.337768381895955" lon="7.142669441665374">
        <time>2013-06-23T17:30:21.000+02:00</time>
      </trkpt>
      <trkpt lat="46.337822219507984" lon="7.142617196755661">
        <time>2013-06-23T17:30:21.000+02:00</time>
      </trkpt>
      <trkpt lat="46.337974499003494" lon="7.142369595800336">
        <time>2013-06-23T17:30:21.000+02:00</time>
      </trkpt>
      <trkpt lat="46.338072260737086" lon="7.1419144826462535">
        <time>2013-06-23T17:30:21.000+02:00</time>
      </trkpt>
      <trkpt lat="46.338072090684726" lon="7.1418495435211735">
        <time>2013-06-23T17:30:21.000+02:00</time>
      </trkpt>
      <trkpt lat="46.33805372533757" lon="7.141706775715353">
        <time>2013-06-23T17:30:21.000+02:00</time>
      </trkpt>
      <trkpt lat="46.338017164401556" lon="7.141486179451093">
        <time>2013-06-23T17:30:21.000+02:00</time>
      </trkpt>
      <trkpt lat="46.338025239901526" lon="7.1411354593151355">
        <time>2013-06-23T17:30:21.000+02:00</time>
      </trkpt>
      <trkpt lat="46.33803362148185" lon="7.140901629411044">
        <time>2013-06-23T17:30:21.000+02:00</time>
      </trkpt>
      <trkpt lat="46.33798789266936" lon="7.140616144053392">
        <time>2013-06-23T17:30:21.000+02:00</time>
      </trkpt>
      <trkpt lat="46.337986901532396" lon="7.140239497742919">
        <time>2013-06-23T17:30:21.000+02:00</time>
      </trkpt>
      <trkpt lat="46.33799511011778" lon="7.1399407288391785">
        <time>2013-06-23T17:30:21.000+02:00</time>
      </trkpt>
      <trkpt lat="46.33800324937811" lon="7.139615984231243">
        <time>2013-06-23T17:30:21.000+02:00</time>
      </trkpt>
      <trkpt lat="46.33806584116242" lon="7.13947277182965">
        <time>2013-06-23T17:30:21.000+02:00</time>
      </trkpt>
      <trkpt lat="46.338226663117055" lon="7.1390562692309425">
        <time>2013-06-23T17:30:21.000+02:00</time>
      </trkpt>
      <trkpt lat="46.338172243349426" lon="7.138887724654897">
        <time>2013-06-23T17:30:21.000+02:00</time>
      </trkpt>
      <trkpt lat="46.33802776471421" lon="7.13868071326221">
        <time>2013-06-23T17:30:21.000+02:00</time>
      </trkpt>
      <trkpt lat="46.33797361951417" lon="7.13861607207296">
        <time>2013-06-23T17:30:21.000+02:00</time>
      </trkpt>
      <trkpt lat="46.337874290152335" lon="7.138473752638654">
        <time>2013-06-23T17:30:21.000+02:00</time>
      </trkpt>
      <trkpt lat="46.337810977224386" lon="7.138344222715765">
        <time>2013-06-23T17:30:21.000+02:00</time>
      </trkpt>
      <trkpt lat="46.337603322091425" lon="7.138059635949347">
        <time>2013-06-23T17:30:21.000+02:00</time>
      </trkpt>
      <trkpt lat="46.33745853163475" lon="7.137735739842174">
        <time>2013-06-23T17:30:21.000+02:00</time>
      </trkpt>
      <trkpt lat="46.337340657849495" lon="7.137385720634004">
        <time>2013-06-23T17:30:21.000+02:00</time>
      </trkpt>
      <trkpt lat="46.33717835810577" lon="7.137243754206755">
        <time>2013-06-23T17:30:21.000+02:00</time>
      </trkpt>
      <trkpt lat="46.336953123904856" lon="7.137115125445935">
        <time>2013-06-23T17:30:21.000+02:00</time>
      </trkpt>
      <trkpt lat="46.33668249685335" lon="7.136830897442004">
        <time>2013-06-23T17:30:21.000+02:00</time>
      </trkpt>
      <trkpt lat="46.33630343766458" lon="7.1363654485163845">
        <time>2013-06-23T17:30:21.000+02:00</time>
      </trkpt>
      <trkpt lat="46.33584282659342" lon="7.135679673011945">
        <time>2013-06-23T17:31:21.000+02:00</time>
      </trkpt>
      <trkpt lat="46.335571709248775" lon="7.135213636831411">
        <time>2013-06-23T17:31:21.000+02:00</time>
      </trkpt>
      <trkpt lat="46.33540916321759" lon="7.134980771217564">
        <time>2013-06-23T17:31:21.000+02:00</time>
      </trkpt>
      <trkpt lat="46.33527322014969" lon="7.134604897480078">
        <time>2013-06-23T17:31:21.000+02:00</time>
      </trkpt>
      <trkpt lat="46.33519159791629" lon="7.134358594729016">
        <time>2013-06-23T17:31:21.000+02:00</time>
      </trkpt>
      <trkpt lat="46.33526181679082" lon="7.133708834520133">
        <time>2013-06-23T17:31:21.000+02:00</time>
      </trkpt>
      <trkpt lat="46.33522429548985" lon="7.1331376022127655">
        <time>2013-06-23T17:31:21.000+02:00</time>
      </trkpt>
      <trkpt lat="46.335348410460725" lon="7.132461561760721">
        <time>2013-06-23T17:31:21.000+02:00</time>
      </trkpt>
      <trkpt lat="46.33534749761428" lon="7.132123895397257">
        <time>2013-06-23T17:31:21.000+02:00</time>
      </trkpt>
      <trkpt lat="46.33545417855726" lon="7.131655747840505">
        <time>2013-06-23T17:31:21.000+02:00</time>
      </trkpt>
      <trkpt lat="46.335507095684676" lon="7.131265826910253">
        <time>2013-06-23T17:31:21.000+02:00</time>
      </trkpt>
      <trkpt lat="46.33559599365094" lon="7.1308757015260555">
        <time>2013-06-23T17:31:21.000+02:00</time>
      </trkpt>
      <trkpt lat="46.33575650139325" lon="7.130355294315939">
        <time>2013-06-23T17:31:21.000+02:00</time>
      </trkpt>
      <trkpt lat="46.33601698345825" lon="7.130210954426114">
        <time>2013-06-23T17:31:21.000+02:00</time>
      </trkpt>
      <trkpt lat="46.3361517045165" lon="7.13013226476006">
        <time>2013-06-23T17:31:21.000+02:00</time>
      </trkpt>
      <trkpt lat="46.33622342133942" lon="7.130040944751836">
        <time>2013-06-23T17:31:21.000+02:00</time>
      </trkpt>
      <trkpt lat="46.336313093799816" lon="7.129936534950324">
        <time>2013-06-23T17:31:21.000+02:00</time>
      </trkpt>
      <trkpt lat="46.336366500805504" lon="7.129728429917506">
        <time>2013-06-23T17:31:21.000+02:00</time>
      </trkpt>
      <trkpt lat="46.33634744694525" lon="7.1293389100004925">
        <time>2013-06-23T17:31:21.000+02:00</time>
      </trkpt>
      <trkpt lat="46.33631082646186" lon="7.129105341590495">
        <time>2013-06-23T17:31:21.000+02:00</time>
      </trkpt>
      <trkpt lat="46.336571448891405" lon="7.129012944070883">
        <time>2013-06-23T17:31:21.000+02:00</time>
      </trkpt>
      <trkpt lat="46.33673343966057" lon="7.129037996866988">
        <time>2013-06-23T17:31:21.000+02:00</time>
      </trkpt>
      <trkpt lat="46.33706641672879" lon="7.129088051685725">
        <time>2013-06-23T17:31:21.000+02:00</time>
      </trkpt>
      <trkpt lat="46.33728252263517" lon="7.12916474814196">
        <time>2013-06-23T17:31:21.000+02:00</time>
      </trkpt>
      <trkpt lat="46.33743530501132" lon="7.129111926935869">
        <time>2013-06-23T17:31:21.000+02:00</time>
      </trkpt>
      <trkpt lat="46.337561065248366" lon="7.12904627141747">
        <time>2013-06-23T17:31:21.000+02:00</time>
      </trkpt>
      <trkpt lat="46.33771374110069" lon="7.128954486415231">
        <time>2013-06-23T17:31:21.000+02:00</time>
      </trkpt>
      <trkpt lat="46.33786638137586" lon="7.128849713130188">
        <time>2013-06-23T17:31:21.000+02:00</time>
      </trkpt>
      <trkpt lat="46.33800092391039" lon="7.128706078416532">
        <time>2013-06-23T17:31:21.000+02:00</time>
      </trkpt>
      <trkpt lat="46.33813567945859" lon="7.128640369979662">
        <time>2013-06-23T17:31:21.000+02:00</time>
      </trkpt>
      <trkpt lat="46.33830677242968" lon="7.128704334709848">
        <time>2013-06-23T17:31:21.000+02:00</time>
      </trkpt>
      <trkpt lat="46.33846869223486" lon="7.128703411562914">
        <time>2013-06-23T17:31:21.000+02:00</time>
      </trkpt>
      <trkpt lat="46.33872942093731" lon="7.128649972365827">
        <time>2013-06-23T17:31:21.000+02:00</time>
      </trkpt>
      <trkpt lat="46.338963162981685" lon="7.128596686568645">
        <time>2013-06-23T17:31:21.000+02:00</time>
      </trkpt>
      <trkpt lat="46.33924202487143" lon="7.128595096128795">
        <time>2013-06-23T17:31:21.000+02:00</time>
      </trkpt>
      <trkpt lat="46.33945813112231" lon="7.128671793692815">
        <time>2013-06-23T17:31:21.000+02:00</time>
      </trkpt>
      <trkpt lat="46.33974641475025" lon="7.128826010924993">
        <time>2013-06-23T17:31:21.000+02:00</time>
      </trkpt>
      <trkpt lat="46.34003459169609" lon="7.128941264936752">
        <time>2013-06-23T17:31:21.000+02:00</time>
      </trkpt>
      <trkpt lat="46.340196440519165" lon="7.128914365817191">
        <time>2013-06-23T17:31:21.000+02:00</time>
      </trkpt>
      <trkpt lat="46.34041201407261" lon="7.128796240364281">
        <time>2013-06-23T17:31:21.000+02:00</time>
      </trkpt>
      <trkpt lat="46.34062740986646" lon="7.128613171840669">
        <time>2013-06-23T17:31:21.000+02:00</time>
      </trkpt>
      <trkpt lat="46.34087846751575" lon="7.12831300015247">
        <time>2013-06-23T17:31:21.000+02:00</time>
      </trkpt>
      <trkpt lat="46.34117457329334" lon="7.128038545790318">
        <time>2013-06-23T17:31:21.000+02:00</time>
      </trkpt>
      <trkpt lat="46.34129058934923" lon="7.12770017440135">
        <time>2013-06-23T17:31:21.000+02:00</time>
      </trkpt>
      <trkpt lat="46.34148756429777" lon="7.127361337968498">
        <time>2013-06-23T17:31:21.000+02:00</time>
      </trkpt>
      <trkpt lat="46.34155881486327" lon="7.127101152911182">
        <time>2013-06-23T17:31:21.000+02:00</time>
      </trkpt>
      <trkpt lat="46.34166576108718" lon="7.126736851393507">
        <time>2013-06-23T17:31:21.000+02:00</time>
      </trkpt>
      <trkpt lat="46.34170088492549" lon="7.126424916569188">
        <time>2013-06-23T17:31:21.000+02:00</time>
      </trkpt>
      <trkpt lat="46.341754357097074" lon="7.12624276484844">
        <time>2013-06-23T17:31:21.000+02:00</time>
      </trkpt>
      <trkpt lat="46.34178940789522" lon="7.125904851791775">
        <time>2013-06-23T17:31:21.000+02:00</time>
      </trkpt>
      <trkpt lat="46.3417883319767" lon="7.125515190725243">
        <time>2013-06-23T17:31:21.000+02:00</time>
      </trkpt>
      <trkpt lat="46.34171572143173" lon="7.125281808937617">
        <time>2013-06-23T17:31:21.000+02:00</time>
      </trkpt>
      <trkpt lat="46.34160684066583" lon="7.124944726083616">
        <time>2013-06-23T17:31:21.000+02:00</time>
      </trkpt>
      <trkpt lat="46.34142610251382" lon="7.124647026158941">
        <time>2013-06-23T17:31:21.000+02:00</time>
      </trkpt>
      <trkpt lat="46.34119131827802" lon="7.124323663152923">
        <time>2013-06-23T17:31:21.000+02:00</time>
      </trkpt>
      <trkpt lat="46.341316463019744" lon="7.124037186017063">
        <time>2013-06-23T17:31:21.000+02:00</time>
      </trkpt>
      <trkpt lat="46.34138799458946" lon="7.123880906264475">
        <time>2013-06-23T17:31:21.000+02:00</time>
      </trkpt>
      <trkpt lat="46.341549264798424" lon="7.123646173108552">
        <time>2013-06-23T17:31:21.000+02:00</time>
      </trkpt>
      <trkpt lat="46.341728164259244" lon="7.123281447368454">
        <time>2013-06-23T17:31:21.000+02:00</time>
      </trkpt>
      <trkpt lat="46.341925306884704" lon="7.123007535863735">
        <time>2013-06-23T17:31:21.000+02:00</time>
      </trkpt>
      <trkpt lat="46.342059335217826" lon="7.122682033255949">
        <time>2013-06-23T17:31:21.000+02:00</time>
      </trkpt>
      <trkpt lat="46.34229260352409" lon="7.12245986386309">
        <time>2013-06-23T17:31:21.000+02:00</time>
      </trkpt>
      <trkpt lat="46.34248981669887" lon="7.12221192426889">
        <time>2013-06-23T17:31:21.000+02:00</time>
      </trkpt>
      <trkpt lat="46.34253377841101" lon="7.121847973868871">
        <time>2013-06-23T17:31:21.000+02:00</time>
      </trkpt>
      <trkpt lat="46.34256925214229" lon="7.121665919766075">
        <time>2013-06-23T17:31:21.000+02:00</time>
      </trkpt>
      <trkpt lat="46.342568743412144" lon="7.121484075365308">
        <time>2013-06-23T17:31:21.000+02:00</time>
      </trkpt>
      <trkpt lat="46.34253232495684" lon="7.12132841878133">
        <time>2013-06-23T17:31:21.000+02:00</time>
      </trkpt>
      <trkpt lat="46.34255002506442" lon="7.121224402711631">
        <time>2013-06-23T17:31:21.000+02:00</time>
      </trkpt>
      <trkpt lat="46.342513606252496" lon="7.1210687463553235">
        <time>2013-06-23T17:31:21.000+02:00</time>
      </trkpt>
      <trkpt lat="46.3425040281858" lon="7.120860976990648">
        <time>2013-06-23T17:31:21.000+02:00</time>
      </trkpt>
      <trkpt lat="46.34251251370597" lon="7.120679080197937">
        <time>2013-06-23T17:31:21.000+02:00</time>
      </trkpt>
      <trkpt lat="46.342575336724735" lon="7.1206267563246985">
        <time>2013-06-23T17:31:21.000+02:00</time>
      </trkpt>
      <trkpt lat="46.34274596039919" lon="7.120521844994158">
        <time>2013-06-23T17:31:21.000+02:00</time>
      </trkpt>
      <trkpt lat="46.34279082872586" lon="7.120482614958403">
        <time>2013-06-23T17:31:21.000+02:00</time>
      </trkpt>
      <trkpt lat="46.342925470100454" lon="7.120377913432632">
        <time>2013-06-23T17:31:21.000+02:00</time>
      </trkpt>
      <trkpt lat="46.342934356210336" lon="7.120338893847627">
        <time>2013-06-23T17:31:21.000+02:00</time>
      </trkpt>
      <trkpt lat="46.34287087655909" lon="7.120157417171869">
        <time>2013-06-23T17:31:21.000+02:00</time>
      </trkpt>
      <trkpt lat="46.34272658281557" lon="7.120028371220733">
        <time>2013-06-23T17:31:21.000+02:00</time>
      </trkpt>
      <trkpt lat="46.3426541071259" lon="7.11984694835726">
        <time>2013-06-23T17:31:21.000+02:00</time>
      </trkpt>
      <trkpt lat="46.342626352919275" lon="7.1195743397613">
        <time>2013-06-23T17:31:21.000+02:00</time>
      </trkpt>
      <trkpt lat="46.3426431364747" lon="7.119145600390703">
        <time>2013-06-23T17:31:21.000+02:00</time>
      </trkpt>
      <trkpt lat="46.34264170730693" lon="7.11863903323469">
        <time>2013-06-23T17:31:21.000+02:00</time>
      </trkpt>
      <trkpt lat="46.34270361190992" lon="7.118261983983525">
        <time>2013-06-23T17:31:21.000+02:00</time>
      </trkpt>
      <trkpt lat="46.34276628690674" lon="7.118157701410768">
        <time>2013-06-23T17:31:21.000+02:00</time>
      </trkpt>
      <trkpt lat="46.34291880698332" lon="7.118013921167247">
        <time>2013-06-23T17:31:21.000+02:00</time>
      </trkpt>
      <trkpt lat="46.342999583100664" lon="7.117948498700203">
        <time>2013-06-23T17:31:21.000+02:00</time>
      </trkpt>
      <trkpt lat="46.34312522659389" lon="7.117843843583596">
        <time>2013-06-23T17:31:21.000+02:00</time>
      </trkpt>
      <trkpt lat="46.34320600261341" lon="7.117778420615309">
        <time>2013-06-23T17:31:21.000+02:00</time>
      </trkpt>
      <trkpt lat="46.34335837504042" lon="7.1175826818577">
        <time>2013-06-23T17:31:21.000+02:00</time>
      </trkpt>
      <trkpt lat="46.34338525126909" lon="7.117543555229615">
        <time>2013-06-23T17:31:21.000+02:00</time>
      </trkpt>
      <trkpt lat="46.34340298471426" lon="7.11745252537833">
        <time>2013-06-23T17:31:21.000+02:00</time>
      </trkpt>
      <trkpt lat="46.34343837771986" lon="7.117244487316634">
        <time>2013-06-23T17:31:21.000+02:00</time>
      </trkpt>
      <trkpt lat="46.343447189070694" lon="7.117179488666344">
        <time>2013-06-23T17:31:21.000+02:00</time>
      </trkpt>
      <trkpt lat="46.34349146651229" lon="7.116932429716278">
        <time>2013-06-23T17:31:21.000+02:00</time>
      </trkpt>
      <trkpt lat="46.343670418193156" lon="7.116593647143173">
        <time>2013-06-23T17:31:21.000+02:00</time>
      </trkpt>
      <trkpt lat="46.34366960583968" lon="7.116307885947233">
        <time>2013-06-23T17:31:21.000+02:00</time>
      </trkpt>
      <trkpt lat="46.34374046124254" lon="7.11591778434589">
        <time>2013-06-23T17:31:21.000+02:00</time>
      </trkpt>
      <trkpt lat="46.34384737152046" lon="7.115553446214205">
        <time>2013-06-23T17:31:21.000+02:00</time>
      </trkpt>
      <trkpt lat="46.34409850577151" lon="7.115292164172642">
        <time>2013-06-23T17:31:21.000+02:00</time>
      </trkpt>
      <trkpt lat="46.34416965445238" lon="7.115005972278395">
        <time>2013-06-23T17:31:21.000+02:00</time>
      </trkpt>
      <trkpt lat="46.3442411735717" lon="7.114849672440408">
        <time>2013-06-23T17:31:21.000+02:00</time>
      </trkpt>
      <trkpt lat="46.34420459748521" lon="7.1146420584282435">
        <time>2013-06-23T17:31:21.000+02:00</time>
      </trkpt>
      <trkpt lat="46.344149806975764" lon="7.114356616450915">
        <time>2013-06-23T17:31:21.000+02:00</time>
      </trkpt>
      <trkpt lat="46.34395123590228" lon="7.1141239913013425">
        <time>2013-06-23T17:31:21.000+02:00</time>
      </trkpt>
      <trkpt lat="46.343734673274426" lon="7.113891475336576">
        <time>2013-06-23T17:31:21.000+02:00</time>
      </trkpt>
      <trkpt lat="46.34340964212928" lon="7.113477759458345">
        <time>2013-06-23T17:31:21.000+02:00</time>
      </trkpt>
      <trkpt lat="46.34323757094144" lon="7.113076121624437">
        <time>2013-06-23T17:31:21.000+02:00</time>
      </trkpt>
      <trkpt lat="46.343101816645145" lon="7.112791171621568">
        <time>2013-06-23T17:31:21.000+02:00</time>
      </trkpt>
      <trkpt lat="46.342866325465344" lon="7.11223404876399">
        <time>2013-06-23T17:31:21.000+02:00</time>
      </trkpt>
      <trkpt lat="46.34277588365162" lon="7.1120657328510895">
        <time>2013-06-23T17:31:21.000+02:00</time>
      </trkpt>
      <trkpt lat="46.34239702251206" lon="7.111704315209642">
        <time>2013-06-23T17:31:21.000+02:00</time>
      </trkpt>
      <trkpt lat="46.34214439778349" lon="7.111446054544583">
        <time>2013-06-23T17:31:21.000+02:00</time>
      </trkpt>
      <trkpt lat="46.34192790471831" lon="7.111239534428211">
        <time>2013-06-23T17:31:21.000+02:00</time>
      </trkpt>
      <trkpt lat="46.34174728078137" lon="7.1109938330566385">
        <time>2013-06-23T17:31:21.000+02:00</time>
      </trkpt>
      <trkpt lat="46.34147579862648" lon="7.110436949117669">
        <time>2013-06-23T17:31:21.000+02:00</time>
      </trkpt>
      <trkpt lat="46.34125888961713" lon="7.110087561349102">
        <time>2013-06-23T17:31:21.000+02:00</time>
      </trkpt>
      <trkpt lat="46.34109576425881" lon="7.109672907179263">
        <time>2013-06-23T17:31:21.000+02:00</time>
      </trkpt>
      <trkpt lat="46.341004563922645" lon="7.10924483094317">
        <time>2013-06-23T17:31:21.000+02:00</time>
      </trkpt>
      <trkpt lat="46.34076901750593" lon="7.1086747565007276">
        <time>2013-06-23T17:31:21.000+02:00</time>
      </trkpt>
      <trkpt lat="46.34072354808911" lon="7.108506179851577">
        <time>2013-06-23T17:31:21.000+02:00</time>
      </trkpt>
      <trkpt lat="46.34074055492973" lon="7.108168371161685">
        <time>2013-06-23T17:31:21.000+02:00</time>
      </trkpt>
      <trkpt lat="46.34074939895582" lon="7.10811636270936">
        <time>2013-06-23T17:31:21.000+02:00</time>
      </trkpt>
      <trkpt lat="46.34089302443319" lon="7.108011579777924">
        <time>2013-06-23T17:31:21.000+02:00</time>
      </trkpt>
      <trkpt lat="46.34115393285516" lon="7.108022981639747">
        <time>2013-06-23T17:31:21.000+02:00</time>
      </trkpt>
      <trkpt lat="46.34144190366088" lon="7.108060196695822">
        <time>2013-06-23T17:31:21.000+02:00</time>
      </trkpt>
      <trkpt lat="46.341576912466316" lon="7.108085353393434">
        <time>2013-06-23T17:31:21.000+02:00</time>
      </trkpt>
      <trkpt lat="46.34162185226001" lon="7.108072091237313">
        <time>2013-06-23T17:31:21.000+02:00</time>
      </trkpt>
      <trkpt lat="46.341621587025585" lon="7.107981170688953">
        <time>2013-06-23T17:31:21.000+02:00</time>
      </trkpt>
      <trkpt lat="46.34159448672455" lon="7.107942368914689">
        <time>2013-06-23T17:31:21.000+02:00</time>
      </trkpt>
      <trkpt lat="46.34157585113356" lon="7.107721671505835">
        <time>2013-06-23T17:31:21.000+02:00</time>
      </trkpt>
      <trkpt lat="46.34165650750031" lon="7.1076172693897">
        <time>2013-06-23T17:31:21.000+02:00</time>
      </trkpt>
      <trkpt lat="46.34184518609243" lon="7.107538186814556">
        <time>2013-06-23T17:31:21.000+02:00</time>
      </trkpt>
      <trkpt lat="46.34204282220915" lon="7.107446060134944">
        <time>2013-06-23T17:31:21.000+02:00</time>
      </trkpt>
      <trkpt lat="46.34221331976274" lon="7.107302142091446">
        <time>2013-06-23T17:31:21.000+02:00</time>
      </trkpt>
      <trkpt lat="46.34237508749344" lon="7.107249199804586">
        <time>2013-06-23T17:31:21.000+02:00</time>
      </trkpt>
      <trkpt lat="46.342599975879466" lon="7.107247828788253">
        <time>2013-06-23T17:31:21.000+02:00</time>
      </trkpt>
      <trkpt lat="46.342797687741296" lon="7.107181677633302">
        <time>2013-06-23T17:31:21.000+02:00</time>
      </trkpt>
      <trkpt lat="46.34294127436053" lon="7.107063899318117">
        <time>2013-06-23T17:31:21.000+02:00</time>
      </trkpt>
      <trkpt lat="46.34298583393658" lon="7.106920746234181">
        <time>2013-06-23T17:31:21.000+02:00</time>
      </trkpt>
      <trkpt lat="46.34295854314391" lon="7.106816999173142">
        <time>2013-06-23T17:31:21.000+02:00</time>
      </trkpt>
      <trkpt lat="46.3427961290035" lon="7.106649131512533">
        <time>2013-06-23T17:32:21.000+02:00</time>
      </trkpt>
      <trkpt lat="46.34265242870404" lon="7.10672794392324">
        <time>2013-06-23T17:32:21.000+02:00</time>
      </trkpt>
      <trkpt lat="46.34245475513885" lon="7.106807085399524">
        <time>2013-06-23T17:32:21.000+02:00</time>
      </trkpt>
      <trkpt lat="46.342257005473606" lon="7.106860248698554">
        <time>2013-06-23T17:32:21.000+02:00</time>
      </trkpt>
      <trkpt lat="46.34212230056421" lon="7.106939004877663">
        <time>2013-06-23T17:32:21.000+02:00</time>
      </trkpt>
      <trkpt lat="46.341987291502754" lon="7.106913850775293">
        <time>2013-06-23T17:32:21.000+02:00</time>
      </trkpt>
      <trkpt lat="46.341879116945364" lon="7.106836577257345">
        <time>2013-06-23T17:33:21.000+02:00</time>
      </trkpt>
      <trkpt lat="46.34175268497789" lon="7.106668493127656">
        <time>2013-06-23T17:34:21.000+02:00</time>
      </trkpt>
      <trkpt lat="46.34163528636122" lon="7.106513343468205">
        <time>2013-06-23T17:34:21.000+02:00</time>
      </trkpt>
      <trkpt lat="46.34154487413689" lon="7.106358029517917">
        <time>2013-06-23T17:34:21.000+02:00</time>
      </trkpt>
      <trkpt lat="46.3414993250678" lon="7.106163475163324">
        <time>2013-06-23T17:34:21.000+02:00</time>
      </trkpt>
      <trkpt lat="46.3414718048597" lon="7.10598179964462">
        <time>2013-06-23T17:34:21.000+02:00</time>
      </trkpt>
      <trkpt lat="46.34142640772203" lon="7.105839200272832">
        <time>2013-06-23T17:34:21.000+02:00</time>
      </trkpt>
      <trkpt lat="46.34138085776239" lon="7.105644646777225">
        <time>2013-06-23T17:34:21.000+02:00</time>
      </trkpt>
      <trkpt lat="46.341335422019874" lon="7.105489059346184">
        <time>2013-06-23T17:34:21.000+02:00</time>
      </trkpt>
      <trkpt lat="46.34128099052954" lon="7.105333527331599">
        <time>2013-06-23T17:34:21.000+02:00</time>
      </trkpt>
      <trkpt lat="46.341208644188676" lon="7.105204083090429">
        <time>2013-06-23T17:34:21.000+02:00</time>
      </trkpt>
      <trkpt lat="46.34110946400159" lon="7.105126758891551">
        <time>2013-06-23T17:34:21.000+02:00</time>
      </trkpt>
      <trkpt lat="46.340965306091626" lon="7.1050497109897">
        <time>2013-06-23T17:34:21.000+02:00</time>
      </trkpt>
      <trkpt lat="46.34086627875055" lon="7.105024341286658">
        <time>2013-06-23T17:34:21.000+02:00</time>
      </trkpt>
      <trkpt lat="46.34074030303887" lon="7.105012125746222">
        <time>2013-06-23T17:34:21.000+02:00</time>
      </trkpt>
      <trkpt lat="46.34060540826432" lon="7.105025942282553">
        <time>2013-06-23T17:34:21.000+02:00</time>
      </trkpt>
      <trkpt lat="46.34047947078872" lon="7.105026715171515">
        <time>2013-06-23T17:34:21.000+02:00</time>
      </trkpt>
      <trkpt lat="46.34037144790966" lon="7.1050014009472005">
        <time>2013-06-23T17:34:21.000+02:00</time>
      </trkpt>
      <trkpt lat="46.34027242055908" lon="7.104976031609066">
        <time>2013-06-23T17:34:21.000+02:00</time>
      </trkpt>
      <trkpt lat="46.34015551685807" lon="7.104989737691792">
        <time>2013-06-23T17:34:21.000+02:00</time>
      </trkpt>
      <trkpt lat="46.34002969409309" lon="7.105029475459416">
        <time>2013-06-23T17:34:21.000+02:00</time>
      </trkpt>
      <trkpt lat="46.339912905077206" lon="7.105082146083715">
        <time>2013-06-23T17:34:21.000+02:00</time>
      </trkpt>
      <trkpt lat="46.33976032499321" lon="7.105199978246386">
        <time>2013-06-23T17:34:21.000+02:00</time>
      </trkpt>
      <trkpt lat="46.339679823655324" lon="7.1053563330412155">
        <time>2013-06-23T17:34:21.000+02:00</time>
      </trkpt>
      <trkpt lat="46.33959005928021" lon="7.105421825360463">
        <time>2013-06-23T17:34:21.000+02:00</time>
      </trkpt>
      <trkpt lat="46.33950929040142" lon="7.105487262334411">
        <time>2013-06-23T17:34:21.000+02:00</time>
      </trkpt>
      <trkpt lat="46.3393926156943" lon="7.105578895816701">
        <time>2013-06-23T17:34:21.000+02:00</time>
      </trkpt>
      <trkpt lat="46.33932983779321" lon="7.105644222113932">
        <time>2013-06-23T17:34:21.000+02:00</time>
      </trkpt>
      <trkpt lat="46.339222349240906" lon="7.105800740243173">
        <time>2013-06-23T17:34:21.000+02:00</time>
      </trkpt>
      <trkpt lat="46.339105521728236" lon="7.105840420380891">
        <time>2013-06-23T17:34:21.000+02:00</time>
      </trkpt>
      <trkpt lat="46.33900695219015" lon="7.105970906385119">
        <time>2013-06-23T17:34:21.000+02:00</time>
      </trkpt>
      <trkpt lat="46.33884522318818" lon="7.106036837178">
        <time>2013-06-23T17:34:21.000+02:00</time>
      </trkpt>
      <trkpt lat="46.33871943817307" lon="7.106089559518375">
        <time>2013-06-23T17:34:21.000+02:00</time>
      </trkpt>
      <trkpt lat="46.33866573172001" lon="7.106180805283364">
        <time>2013-06-23T17:34:21.000+02:00</time>
      </trkpt>
      <trkpt lat="46.338584962404624" lon="7.10624624001671">
        <time>2013-06-23T17:34:21.000+02:00</time>
      </trkpt>
      <trkpt lat="46.33848604962274" lon="7.106259832941404">
        <time>2013-06-23T17:34:21.000+02:00</time>
      </trkpt>
      <trkpt lat="46.33838725110738" lon="7.106312389443558">
        <time>2013-06-23T17:34:21.000+02:00</time>
      </trkpt>
      <trkpt lat="46.338270423417754" lon="7.106352067871708">
        <time>2013-06-23T17:34:21.000+02:00</time>
      </trkpt>
      <trkpt lat="46.33812657103338" lon="7.106378923249361">
        <time>2013-06-23T17:34:21.000+02:00</time>
      </trkpt>
      <trkpt lat="46.33803665377076" lon="7.106392460840172">
        <time>2013-06-23T17:34:21.000+02:00</time>
      </trkpt>
      <trkpt lat="46.33798290900641" lon="7.106470717380529">
        <time>2013-06-23T17:34:21.000+02:00</time>
      </trkpt>
      <trkpt lat="46.33786600513067" lon="7.106484419670498">
        <time>2013-06-23T17:34:21.000+02:00</time>
      </trkpt>
      <trkpt lat="46.33771304298264" lon="7.106472366311262">
        <time>2013-06-23T17:34:21.000+02:00</time>
      </trkpt>
      <trkpt lat="46.337623163776136" lon="7.106498891337625">
        <time>2013-06-23T17:34:21.000+02:00</time>
      </trkpt>
      <trkpt lat="46.33750625989797" lon="7.106512593476139">
        <time>2013-06-23T17:34:21.000+02:00</time>
      </trkpt>
      <trkpt lat="46.33745240087914" lon="7.106551886176478">
        <time>2013-06-23T17:34:21.000+02:00</time>
      </trkpt>
      <trkpt lat="46.337353602230664" lon="7.106604441148086">
        <time>2013-06-23T17:34:21.000+02:00</time>
      </trkpt>
      <trkpt lat="46.33729978122852" lon="7.1066567212631675">
        <time>2013-06-23T17:34:21.000+02:00</time>
      </trkpt>
      <trkpt lat="46.33717372960202" lon="7.10661852756727">
        <time>2013-06-23T17:34:21.000+02:00</time>
      </trkpt>
      <trkpt lat="46.33704775407277" lon="7.106606309160135">
        <time>2013-06-23T17:34:21.000+02:00</time>
      </trkpt>
      <trkpt lat="46.33695779873264" lon="7.106606858571363">
        <time>2013-06-23T17:34:21.000+02:00</time>
      </trkpt>
      <trkpt lat="46.33684081873674" lon="7.106594585296751">
        <time>2013-06-23T17:34:21.000+02:00</time>
      </trkpt>
      <trkpt lat="46.336750787284785" lon="7.106569159755369">
        <time>2013-06-23T17:34:21.000+02:00</time>
      </trkpt>
      <trkpt lat="46.33664276475949" lon="7.106543844200458">
        <time>2013-06-23T17:34:21.000+02:00</time>
      </trkpt>
      <trkpt lat="46.33652563249794" lon="7.106479621408087">
        <time>2013-06-23T17:34:21.000+02:00</time>
      </trkpt>
      <trkpt lat="46.33639939043403" lon="7.106376491662042">
        <time>2013-06-23T17:34:21.000+02:00</time>
      </trkpt>
      <trkpt lat="46.33633596463436" lon="7.1062210278837">
        <time>2013-06-23T17:34:21.000+02:00</time>
      </trkpt>
      <trkpt lat="46.33625443320156" lon="7.106026712430042">
        <time>2013-06-23T17:34:21.000+02:00</time>
      </trkpt>
      <trkpt lat="46.33626312372898" lon="7.105922758449786">
        <time>2013-06-23T17:34:21.000+02:00</time>
      </trkpt>
      <trkpt lat="46.33627196672367" lon="7.105870753916149">
        <time>2013-06-23T17:34:21.000+02:00</time>
      </trkpt>
      <trkpt lat="46.33626285677043" lon="7.105831846874801">
        <time>2013-06-23T17:34:21.000+02:00</time>
      </trkpt>
      <trkpt lat="46.33626289491183" lon="7.1058448342426">
        <time>2013-06-23T17:34:21.000+02:00</time>
      </trkpt>
      <trkpt lat="46.336262818627546" lon="7.105818859507021">
        <time>2013-06-23T17:34:21.000+02:00</time>
      </trkpt>
      <trkpt lat="46.3362447512704" lon="7.105792994921457">
        <time>2013-06-23T17:34:21.000+02:00</time>
      </trkpt>
      <trkpt lat="46.33628984337089" lon="7.10583168166909">
        <time>2013-06-23T17:34:21.000+02:00</time>
      </trkpt>
      <trkpt lat="46.33630787257928" lon="7.1058445589104">
        <time>2013-06-23T17:34:21.000+02:00</time>
      </trkpt>
      <trkpt lat="46.336298877045785" lon="7.105844613976876">
        <time>2013-06-23T17:34:21.000+02:00</time>
      </trkpt>
      <trkpt lat="46.3362447512704" lon="7.105792994921457">
        <time>2013-06-23T17:34:21.000+02:00</time>
      </trkpt>
      <trkpt lat="46.336235755736936" lon="7.105793049996401">
        <time>2013-06-23T17:34:21.000+02:00</time>
      </trkpt>
      <trkpt lat="46.33627173787077" lon="7.105792829696516">
        <time>2013-06-23T17:34:21.000+02:00</time>
      </trkpt>
      <trkpt lat="46.33624478941625" lon="7.1058059822849025">
        <time>2013-06-23T17:34:21.000+02:00</time>
      </trkpt>
      <trkpt lat="46.336253556052235" lon="7.105728003018804">
        <time>2013-06-23T17:34:21.000+02:00</time>
      </trkpt>
      <trkpt lat="46.33628019920567" lon="7.105610951414876">
        <time>2013-06-23T17:34:21.000+02:00</time>
      </trkpt>
      <trkpt lat="46.336279702902885" lon="7.105442115583425">
        <time>2013-06-23T17:34:21.000+02:00</time>
      </trkpt>
      <trkpt lat="46.3363062693576" lon="7.10529908902758">
        <time>2013-06-23T17:34:21.000+02:00</time>
      </trkpt>
      <trkpt lat="46.33637769863205" lon="7.105116824245366">
        <time>2013-06-23T17:34:21.000+02:00</time>
      </trkpt>
      <trkpt lat="46.33649418176592" lon="7.104960257742712">
        <time>2013-06-23T17:34:21.000+02:00</time>
      </trkpt>
      <trkpt lat="46.33658383111256" lon="7.104855806061017">
        <time>2013-06-23T17:34:21.000+02:00</time>
      </trkpt>
      <trkpt lat="46.33664637895946" lon="7.104712557402163">
        <time>2013-06-23T17:34:21.000+02:00</time>
      </trkpt>
      <trkpt lat="46.33669097384551" lon="7.104582406438668">
        <time>2013-06-23T17:34:21.000+02:00</time>
      </trkpt>
      <trkpt lat="46.33671753921535" lon="7.104439378380886">
        <time>2013-06-23T17:34:21.000+02:00</time>
      </trkpt>
      <trkpt lat="46.336762057151454" lon="7.104283252051129">
        <time>2013-06-23T17:34:21.000+02:00</time>
      </trkpt>
      <trkpt lat="46.33674364447997" lon="7.104140500405083">
        <time>2013-06-23T17:34:21.000+02:00</time>
      </trkpt>
      <trkpt lat="46.33659902566906" lon="7.103907611942034">
        <time>2013-06-23T17:34:21.000+02:00</time>
      </trkpt>
      <trkpt lat="46.33649957597079" lon="7.103739384703224">
        <time>2013-06-23T17:34:21.000+02:00</time>
      </trkpt>
      <trkpt lat="46.33640001081261" lon="7.103532195883256">
        <time>2013-06-23T17:34:21.000+02:00</time>
      </trkpt>
      <trkpt lat="46.3363275855786" lon="7.103376790897657">
        <time>2013-06-23T17:34:21.000+02:00</time>
      </trkpt>
      <trkpt lat="46.33620111005294" lon="7.1031957446265634">
        <time>2013-06-23T17:34:21.000+02:00</time>
      </trkpt>
      <trkpt lat="46.3360567970224" lon="7.103066759532826">
        <time>2013-06-23T17:34:21.000+02:00</time>
      </trkpt>
      <trkpt lat="46.335948504446606" lon="7.102950540226016">
        <time>2013-06-23T17:34:21.000+02:00</time>
      </trkpt>
      <trkpt lat="46.335768209010254" lon="7.102821778647015">
        <time>2013-06-23T17:34:21.000+02:00</time>
      </trkpt>
      <trkpt lat="46.335820949850394" lon="7.102405852930147">
        <time>2013-06-23T17:34:21.000+02:00</time>
      </trkpt>
      <trkpt lat="46.336018234798765" lon="7.102196832046828">
        <time>2013-06-23T17:34:21.000+02:00</time>
      </trkpt>
      <trkpt lat="46.336144056558666" lon="7.102157090657892">
        <time>2013-06-23T17:34:21.000+02:00</time>
      </trkpt>
      <trkpt lat="46.33627883526806" lon="7.102104306032844">
        <time>2013-06-23T17:34:21.000+02:00</time>
      </trkpt>
      <trkpt lat="46.33644963465457" lon="7.102064285778483">
        <time>2013-06-23T17:34:21.000+02:00</time>
      </trkpt>
      <trkpt lat="46.33655727239489" lon="7.101959717988268">
        <time>2013-06-23T17:34:21.000+02:00</time>
      </trkpt>
      <trkpt lat="46.336655798706964" lon="7.101816243134724">
        <time>2013-06-23T17:34:21.000+02:00</time>
      </trkpt>
      <trkpt lat="46.33681713907102" lon="7.1016204274710955">
        <time>2013-06-23T17:34:21.000+02:00</time>
      </trkpt>
      <trkpt lat="46.33695187890089" lon="7.101554653332341">
        <time>2013-06-23T17:34:21.000+02:00</time>
      </trkpt>
      <trkpt lat="46.337086966391794" lon="7.101605766920749">
        <time>2013-06-23T17:34:21.000+02:00</time>
      </trkpt>
      <trkpt lat="46.33729428842149" lon="7.101747347957153">
        <time>2013-06-23T17:34:21.000+02:00</time>
      </trkpt>
      <trkpt lat="46.337429453032414" lon="7.101824437633228">
        <time>2013-06-23T17:34:21.000+02:00</time>
      </trkpt>
      <trkpt lat="46.337528596870726" lon="7.101888762906311">
        <time>2013-06-23T17:34:21.000+02:00</time>
      </trkpt>
      <trkpt lat="46.337627817843185" lon="7.101979063796068">
        <time>2013-06-23T17:34:21.000+02:00</time>
      </trkpt>
      <trkpt lat="46.337727077316565" lon="7.102082352730269">
        <time>2013-06-23T17:34:21.000+02:00</time>
      </trkpt>
      <trkpt lat="46.33786239594123" lon="7.1022113948417775">
        <time>2013-06-23T17:34:21.000+02:00</time>
      </trkpt>
      <trkpt lat="46.33795262112529" lon="7.1023017525293">
        <time>2013-06-23T17:34:21.000+02:00</time>
      </trkpt>
      <trkpt lat="46.3380428462375" lon="7.10239211051675">
        <time>2013-06-23T17:34:21.000+02:00</time>
      </trkpt>
      <trkpt lat="46.338151062342305" lon="7.102482357554556">
        <time>2013-06-23T17:34:21.000+02:00</time>
      </trkpt>
      <trkpt lat="46.33825923985908" lon="7.102559617109289">
        <time>2013-06-23T17:34:21.000+02:00</time>
      </trkpt>
      <trkpt lat="46.33840336094377" lon="7.102623666696646">
        <time>2013-06-23T17:34:21.000+02:00</time>
      </trkpt>
      <trkpt lat="46.33850238881659" lon="7.1026490308779175">
        <time>2013-06-23T17:34:21.000+02:00</time>
      </trkpt>
      <trkpt lat="46.33865531286739" lon="7.10264808571609">
        <time>2013-06-23T17:34:21.000+02:00</time>
      </trkpt>
      <trkpt lat="46.33876310521612" lon="7.102595466688606">
        <time>2013-06-23T17:34:21.000+02:00</time>
      </trkpt>
      <trkpt lat="46.33887973898467" lon="7.102490839874504">
        <time>2013-06-23T17:34:21.000+02:00</time>
      </trkpt>
      <trkpt lat="46.33895062395689" lon="7.102126730671258">
        <time>2013-06-23T17:34:21.000+02:00</time>
      </trkpt>
      <trkpt lat="46.339039730447915" lon="7.1018404371984">
        <time>2013-06-23T17:34:21.000+02:00</time>
      </trkpt>
      <trkpt lat="46.33918311841977" lon="7.101657712608791">
        <time>2013-06-23T17:34:21.000+02:00</time>
      </trkpt>
      <trkpt lat="46.33922774843436" lon="7.101540541139073">
        <time>2013-06-23T17:34:21.000+02:00</time>
      </trkpt>
      <trkpt lat="46.33934457444141" lon="7.101500851671352">
        <time>2013-06-23T17:34:21.000+02:00</time>
      </trkpt>
      <trkpt lat="46.33943464567049" lon="7.101539258152644">
        <time>2013-06-23T17:34:21.000+02:00</time>
      </trkpt>
      <trkpt lat="46.33954286245795" lon="7.101629505802414">
        <time>2013-06-23T17:34:21.000+02:00</time>
      </trkpt>
      <trkpt lat="46.339651079173805" lon="7.101719753811482">
        <time>2013-06-23T17:34:21.000+02:00</time>
      </trkpt>
      <trkpt lat="46.33973215479713" lon="7.101758216618264">
        <time>2013-06-23T17:34:21.000+02:00</time>
      </trkpt>
      <trkpt lat="46.33984901949461" lon="7.101731515471351">
        <time>2013-06-23T17:34:21.000+02:00</time>
      </trkpt>
      <trkpt lat="46.33999267768822" lon="7.101639705663889">
        <time>2013-06-23T17:34:21.000+02:00</time>
      </trkpt>
      <trkpt lat="46.34008197620939" lon="7.101418347289117">
        <time>2013-06-23T17:34:21.000+02:00</time>
      </trkpt>
      <trkpt lat="46.340135292170345" lon="7.1011972115456405">
        <time>2013-06-23T17:34:21.000+02:00</time>
      </trkpt>
      <trkpt lat="46.340179612167944" lon="7.100976131244708">
        <time>2013-06-23T17:34:21.000+02:00</time>
      </trkpt>
      <trkpt lat="46.34019706130421" lon="7.100794183233873">
        <time>2013-06-23T17:34:21.000+02:00</time>
      </trkpt>
      <trkpt lat="46.34023238498392" lon="7.1005731582962905">
        <time>2013-06-23T17:34:21.000+02:00</time>
      </trkpt>
      <trkpt lat="46.340276781301604" lon="7.10037805373749">
        <time>2013-06-23T17:34:21.000+02:00</time>
      </trkpt>
      <trkpt lat="46.34033025039117" lon="7.100208869523246">
        <time>2013-06-23T17:34:21.000+02:00</time>
      </trkpt>
      <trkpt lat="46.340365650550304" lon="7.100013820351482">
        <time>2013-06-23T17:34:21.000+02:00</time>
      </trkpt>
      <trkpt lat="46.34036510707885" lon="7.099831983541004">
        <time>2013-06-23T17:34:21.000+02:00</time>
      </trkpt>
      <trkpt lat="46.34033761557173" lon="7.099663303358472">
        <time>2013-06-23T17:34:21.000+02:00</time>
      </trkpt>
      <trkpt lat="46.34030105054246" lon="7.099468702812311">
        <time>2013-06-23T17:34:21.000+02:00</time>
      </trkpt>
      <trkpt lat="46.340237498585836" lon="7.099274271001865">
        <time>2013-06-23T17:34:21.000+02:00</time>
      </trkpt>
      <trkpt lat="46.34013819764107" lon="7.09915799413824">
        <time>2013-06-23T17:34:21.000+02:00</time>
      </trkpt>
      <trkpt lat="46.34003905224683" lon="7.099093670759334">
        <time>2013-06-23T17:34:21.000+02:00</time>
      </trkpt>
      <trkpt lat="46.33999372430239" lon="7.098977057409389">
        <time>2013-06-23T17:34:21.000+02:00</time>
      </trkpt>
      <trkpt lat="46.339975188105896" lon="7.098795334327703">
        <time>2013-06-23T17:34:21.000+02:00</time>
      </trkpt>
      <trkpt lat="46.34000159030123" lon="7.098600341779373">
        <time>2013-06-23T17:34:21.000+02:00</time>
      </trkpt>
      <trkpt lat="46.339983053500674" lon="7.098418618800016">
        <time>2013-06-23T17:34:21.000+02:00</time>
      </trkpt>
      <trkpt lat="46.33991969479473" lon="7.098289130534323">
        <time>2013-06-23T17:34:21.000+02:00</time>
      </trkpt>
      <trkpt lat="46.33980267488223" lon="7.098263886284638">
        <time>2013-06-23T17:34:21.000+02:00</time>
      </trkpt>
      <trkpt lat="46.339685850007896" lon="7.098303583043499">
        <time>2013-06-23T17:34:21.000+02:00</time>
      </trkpt>
      <trkpt lat="46.339533120995945" lon="7.098369481163709">
        <time>2013-06-23T17:34:21.000+02:00</time>
      </trkpt>
      <trkpt lat="46.33945227820718" lon="7.098408952297736">
        <time>2013-06-23T17:34:21.000+02:00</time>
      </trkpt>
      <trkpt lat="46.339317345250315" lon="7.098409796799604">
        <time>2013-06-23T17:34:21.000+02:00</time>
      </trkpt>
      <trkpt lat="46.339191329835884" lon="7.098384608873579">
        <time>2013-06-23T17:34:21.000+02:00</time>
      </trkpt>
      <trkpt lat="46.33910121853753" lon="7.098333219751151">
        <time>2013-06-23T17:34:21.000+02:00</time>
      </trkpt>
      <trkpt lat="46.33902006373816" lon="7.0982687864572895">
        <time>2013-06-23T17:34:21.000+02:00</time>
      </trkpt>
      <trkpt lat="46.338911922311546" lon="7.098204522356426">
        <time>2013-06-23T17:34:21.000+02:00</time>
      </trkpt>
      <trkpt lat="46.33876775970353" lon="7.098127495926631">
        <time>2013-06-23T17:34:21.000+02:00</time>
      </trkpt>
      <trkpt lat="46.3386596572292" lon="7.098076220339677">
        <time>2013-06-23T17:34:21.000+02:00</time>
      </trkpt>
      <trkpt lat="46.338614640546766" lon="7.098063514187892">
        <time>2013-06-23T17:34:21.000+02:00</time>
      </trkpt>
      <trkpt lat="46.338614679578505" lon="7.0980765021118115">
        <time>2013-06-23T17:34:21.000+02:00</time>
      </trkpt>
      <trkpt lat="46.33862383122072" lon="7.098128397461886">
        <time>2013-06-23T17:34:21.000+02:00</time>
      </trkpt>
      <trkpt lat="46.338614874714864" lon="7.098141441731689">
        <time>2013-06-23T17:34:21.000+02:00</time>
      </trkpt>
      <trkpt lat="46.338632943819356" lon="7.098167304901068">
        <time>2013-06-23T17:34:21.000+02:00</time>
      </trkpt>
      <trkpt lat="46.33866880887157" lon="7.098128115732642">
        <time>2013-06-23T17:34:21.000+02:00</time>
      </trkpt>
      <trkpt lat="46.33866876984574" lon="7.098115127795752">
        <time>2013-06-23T17:34:21.000+02:00</time>
      </trkpt>
      <trkpt lat="46.33855151569426" lon="7.098011957047815">
        <time>2013-06-23T17:34:21.000+02:00</time>
      </trkpt>
      <trkpt lat="46.338605605983425" lon="7.09805058262266">
        <time>2013-06-23T17:34:21.000+02:00</time>
      </trkpt>
      <trkpt lat="46.338623597043664" lon="7.098050469905306">
        <time>2013-06-23T17:34:21.000+02:00</time>
      </trkpt>
      <trkpt lat="46.338623636076896" lon="7.098063457831355">
        <time>2013-06-23T17:34:21.000+02:00</time>
      </trkpt>
      <trkpt lat="46.338614679578505" lon="7.0980765021118115">
        <time>2013-06-23T17:34:21.000+02:00</time>
      </trkpt>
      <trkpt lat="46.338569623862966" lon="7.098050808057142">
        <time>2013-06-23T17:34:21.000+02:00</time>
      </trkpt>
      <trkpt lat="46.33847051688448" lon="7.097999476442535">
        <time>2013-06-23T17:34:21.000+02:00</time>
      </trkpt>
      <trkpt lat="46.338398474561515" lon="7.097973951633256">
        <time>2013-06-23T17:34:21.000+02:00</time>
      </trkpt>
      <trkpt lat="46.33832647127784" lon="7.097961414746582">
        <time>2013-06-23T17:34:21.000+02:00</time>
      </trkpt>
      <trkpt lat="46.338182503753" lon="7.097949328893366">
        <time>2013-06-23T17:34:21.000+02:00</time>
      </trkpt>
      <trkpt lat="46.33806556186343" lon="7.097950061766205">
        <time>2013-06-23T17:34:21.000+02:00</time>
      </trkpt>
      <trkpt lat="46.337939741573685" lon="7.097989814298014">
        <time>2013-06-23T17:34:21.000+02:00</time>
      </trkpt>
      <trkpt lat="46.33778693468056" lon="7.098029735729499">
        <time>2013-06-23T17:34:21.000+02:00</time>
      </trkpt>
      <trkpt lat="46.33766119242429" lon="7.098095463265226">
        <time>2013-06-23T17:34:21.000+02:00</time>
      </trkpt>
      <trkpt lat="46.33751730297339" lon="7.098109352527963">
        <time>2013-06-23T17:34:21.000+02:00</time>
      </trkpt>
      <trkpt lat="46.33733719722127" lon="7.098045541385658">
        <time>2013-06-23T17:34:21.000+02:00</time>
      </trkpt>
      <trkpt lat="46.33715701334733" lon="7.097955755514852">
        <time>2013-06-23T17:34:21.000+02:00</time>
      </trkpt>
      <trkpt lat="46.33697686845737" lon="7.097878957771581">
        <time>2013-06-23T17:34:21.000+02:00</time>
      </trkpt>
      <trkpt lat="46.33683274469633" lon="7.097814922443737">
        <time>2013-06-23T17:34:21.000+02:00</time>
      </trkpt>
      <trkpt lat="46.336688659967166" lon="7.097763874918875">
        <time>2013-06-23T17:34:21.000+02:00</time>
      </trkpt>
      <trkpt lat="46.33651751047871" lon="7.097687022056192">
        <time>2013-06-23T17:34:21.000+02:00</time>
      </trkpt>
      <trkpt lat="46.33636423473763" lon="7.097571094661317">
        <time>2013-06-23T17:34:21.000+02:00</time>
      </trkpt>
      <trkpt lat="46.33623790636355" lon="7.097442011200578">
        <time>2013-06-23T17:34:21.000+02:00</time>
      </trkpt>
      <trkpt lat="46.33610258231359" lon="7.097312984817756">
        <time>2013-06-23T17:34:21.000+02:00</time>
      </trkpt>
      <trkpt lat="46.335940506302535" lon="7.09726205228102">
        <time>2013-06-23T17:34:21.000+02:00</time>
      </trkpt>
      <trkpt lat="46.335796656081634" lon="7.097288930558924">
        <time>2013-06-23T17:34:21.000+02:00</time>
      </trkpt>
      <trkpt lat="46.3356707969131" lon="7.097315695740335">
        <time>2013-06-23T17:34:21.000+02:00</time>
      </trkpt>
      <trkpt lat="46.33565280585485" lon="7.097315808694491">
        <time>2013-06-23T17:34:21.000+02:00</time>
      </trkpt>
      <trkpt lat="46.335499881859946" lon="7.09731676880172">
        <time>2013-06-23T17:34:21.000+02:00</time>
      </trkpt>
      <trkpt lat="46.3353466448745" lon="7.097213831762698">
        <time>2013-06-23T17:34:21.000+02:00</time>
      </trkpt>
      <trkpt lat="46.33517541673826" lon="7.097111008324796">
        <time>2013-06-23T17:34:21.000+02:00</time>
      </trkpt>
      <trkpt lat="46.33495917171117" lon="7.096995481120764">
        <time>2013-06-23T17:34:21.000+02:00</time>
      </trkpt>
      <trkpt lat="46.334778673646724" lon="7.096801806603207">
        <time>2013-06-23T17:34:21.000+02:00</time>
      </trkpt>
      <trkpt lat="46.33458902291463" lon="7.096556242120375">
        <time>2013-06-23T17:34:21.000+02:00</time>
      </trkpt>
      <trkpt lat="46.334552883967945" lon="7.096504520716998">
        <time>2013-06-23T17:34:21.000+02:00</time>
      </trkpt>
      <trkpt lat="46.33441763730503" lon="7.0964014745061075">
        <time>2013-06-23T17:34:21.000+02:00</time>
      </trkpt>
      <trkpt lat="46.33440860255295" lon="7.096388544215298">
        <time>2013-06-23T17:34:21.000+02:00</time>
      </trkpt>
      <trkpt lat="46.334417598081345" lon="7.096388487586143">
        <time>2013-06-23T17:34:21.000+02:00</time>
      </trkpt>
      <trkpt lat="46.33429169990762" lon="7.096402267282448">
        <time>2013-06-23T17:34:21.000+02:00</time>
      </trkpt>
      <trkpt lat="46.33417483648148" lon="7.0964289771525015">
        <time>2013-06-23T17:34:21.000+02:00</time>
      </trkpt>
      <trkpt lat="46.33389597510324" lon="7.09643073243156">
        <time>2013-06-23T17:34:21.000+02:00</time>
      </trkpt>
      <trkpt lat="46.33362638375435" lon="7.096523338188089">
        <time>2013-06-23T17:34:21.000+02:00</time>
      </trkpt>
      <trkpt lat="46.33302478061897" lon="7.096890755192506">
        <time>2013-06-23T17:35:21.000+02:00</time>
      </trkpt>
      <trkpt lat="46.33295297304764" lon="7.096943153830134">
        <time>2013-06-23T17:35:21.000+02:00</time>
      </trkpt>
      <trkpt lat="46.3326203342845" lon="7.097010178096901">
        <time>2013-06-23T17:35:21.000+02:00</time>
      </trkpt>
      <trkpt lat="46.332557404738765" lon="7.097023560242947">
        <time>2013-06-23T17:35:21.000+02:00</time>
      </trkpt>
      <trkpt lat="46.332467566903865" lon="7.097063084826513">
        <time>2013-06-23T17:35:21.000+02:00</time>
      </trkpt>
      <trkpt lat="46.33240483306136" lon="7.097141399072017">
        <time>2013-06-23T17:35:21.000+02:00</time>
      </trkpt>
      <trkpt lat="46.33220787032165" lon="7.097454315544494">
        <time>2013-06-23T17:35:21.000+02:00</time>
      </trkpt>
      <trkpt lat="46.331974494784355" lon="7.097624605631988">
        <time>2013-06-23T17:35:21.000+02:00</time>
      </trkpt>
      <trkpt lat="46.33173145917416" lon="7.097574183901789">
        <time>2013-06-23T17:35:21.000+02:00</time>
      </trkpt>
      <trkpt lat="46.33150629731002" lon="7.097484691069655">
        <time>2013-06-23T17:35:21.000+02:00</time>
      </trkpt>
      <trkpt lat="46.33129947835401" lon="7.097511961643054">
        <time>2013-06-23T17:35:21.000+02:00</time>
      </trkpt>
      <trkpt lat="46.33127253086412" lon="7.097525117132189">
        <time>2013-06-23T17:35:21.000+02:00</time>
      </trkpt>
      <trkpt lat="46.33119133651855" lon="7.097447708169771">
        <time>2013-06-23T17:35:21.000+02:00</time>
      </trkpt>
      <trkpt lat="46.33115500241857" lon="7.097331058698604">
        <time>2013-06-23T17:35:21.000+02:00</time>
      </trkpt>
      <trkpt lat="46.331055621239685" lon="7.097188832570454">
        <time>2013-06-23T17:35:21.000+02:00</time>
      </trkpt>
      <trkpt lat="46.33091994453147" lon="7.096942944348521">
        <time>2013-06-23T17:35:21.000+02:00</time>
      </trkpt>
      <trkpt lat="46.33088360991211" lon="7.096826295797074">
        <time>2013-06-23T17:35:21.000+02:00</time>
      </trkpt>
      <trkpt lat="46.330801944785556" lon="7.096593055753409">
        <time>2013-06-23T17:35:21.000+02:00</time>
      </trkpt>
      <trkpt lat="46.33072931393356" lon="7.096372745819542">
        <time>2013-06-23T17:35:21.000+02:00</time>
      </trkpt>
      <trkpt lat="46.330701699541294" lon="7.096165139185604">
        <time>2013-06-23T17:35:21.000+02:00</time>
      </trkpt>
      <trkpt lat="46.33070998832741" lon="7.095931333908882">
        <time>2013-06-23T17:35:21.000+02:00</time>
      </trkpt>
      <trkpt lat="46.33071831593394" lon="7.095710514596793">
        <time>2013-06-23T17:35:21.000+02:00</time>
      </trkpt>
      <trkpt lat="46.33072668243677" lon="7.095502681254804">
        <time>2013-06-23T17:35:21.000+02:00</time>
      </trkpt>
      <trkpt lat="46.33069910579932" lon="7.095308061104187">
        <time>2013-06-23T17:35:21.000+02:00</time>
      </trkpt>
      <trkpt lat="46.33061775250009" lon="7.095178712223771">
        <time>2013-06-23T17:35:21.000+02:00</time>
      </trkpt>
      <trkpt lat="46.33041022538415" lon="7.0949722438096465">
        <time>2013-06-23T17:35:21.000+02:00</time>
      </trkpt>
      <trkpt lat="46.33031967914918" lon="7.09477802329983">
        <time>2013-06-23T17:35:21.000+02:00</time>
      </trkpt>
      <trkpt lat="46.330292022401814" lon="7.094557433107757">
        <time>2013-06-23T17:35:21.000+02:00</time>
      </trkpt>
      <trkpt lat="46.33032729444971" lon="7.094323458449588">
        <time>2013-06-23T17:35:21.000+02:00</time>
      </trkpt>
      <trkpt lat="46.330335816335975" lon="7.0941675701625835">
        <time>2013-06-23T17:35:21.000+02:00</time>
      </trkpt>
      <trkpt lat="46.330281527299" lon="7.094064024673042">
        <time>2013-06-23T17:35:21.000+02:00</time>
      </trkpt>
      <trkpt lat="46.33026349675486" lon="7.094051152765634">
        <time>2013-06-23T17:35:21.000+02:00</time>
      </trkpt>
      <trkpt lat="46.33027249228115" lon="7.094051095754242">
        <time>2013-06-23T17:35:21.000+02:00</time>
      </trkpt>
      <trkpt lat="46.3302905228253" lon="7.094063967663761">
        <time>2013-06-23T17:35:21.000+02:00</time>
      </trkpt>
      <trkpt lat="46.33026357573646" lon="7.094077124617484">
        <time>2013-06-23T17:35:21.000+02:00</time>
      </trkpt>
      <trkpt lat="46.33019141406131" lon="7.0940126511300186">
        <time>2013-06-23T17:35:21.000+02:00</time>
      </trkpt>
      <trkpt lat="46.33012773419679" lon="7.093779304171235">
        <time>2013-06-23T17:35:21.000+02:00</time>
      </trkpt>
      <trkpt lat="46.330072891165145" lon="7.093493957144447">
        <time>2013-06-23T17:35:21.000+02:00</time>
      </trkpt>
      <trkpt lat="46.3300810160956" lon="7.093208210639427">
        <time>2013-06-23T17:35:21.000+02:00</time>
      </trkpt>
      <trkpt lat="46.33006175743778" lon="7.092792776874332">
        <time>2013-06-23T17:35:21.000+02:00</time>
      </trkpt>
      <trkpt lat="46.33004360782872" lon="7.092740947823311">
        <time>2013-06-23T17:35:21.000+02:00</time>
      </trkpt>
      <trkpt lat="46.32990811980677" lon="7.092560004479582">
        <time>2013-06-23T17:35:21.000+02:00</time>
      </trkpt>
      <trkpt lat="46.329727812593426" lon="7.092431291661681">
        <time>2013-06-23T17:35:21.000+02:00</time>
      </trkpt>
      <trkpt lat="46.32958336825082" lon="7.09226339321121">
        <time>2013-06-23T17:35:21.000+02:00</time>
      </trkpt>
      <trkpt lat="46.32943008698862" lon="7.092147495888321">
        <time>2013-06-23T17:35:21.000+02:00</time>
      </trkpt>
      <trkpt lat="46.32929459802119" lon="7.091966556065153">
        <time>2013-06-23T17:35:21.000+02:00</time>
      </trkpt>
      <trkpt lat="46.3291853795637" lon="7.09155170298851">
        <time>2013-06-23T17:35:21.000+02:00</time>
      </trkpt>
      <trkpt lat="46.329112619494296" lon="7.091292449395464">
        <time>2013-06-23T17:35:21.000+02:00</time>
      </trkpt>
      <trkpt lat="46.32909351322539" lon="7.090928966286603">
        <time>2013-06-23T17:35:21.000+02:00</time>
      </trkpt>
      <trkpt lat="46.32915568459558" lon="7.090668850420865">
        <time>2013-06-23T17:35:21.000+02:00</time>
      </trkpt>
      <trkpt lat="46.32916456047338" lon="7.090629835868523">
        <time>2013-06-23T17:35:21.000+02:00</time>
      </trkpt>
      <trkpt lat="46.3292000239473" lon="7.090460791862627">
        <time>2013-06-23T17:35:21.000+02:00</time>
      </trkpt>
      <trkpt lat="46.32922693070936" lon="7.090434647698607">
        <time>2013-06-23T17:35:21.000+02:00</time>
      </trkpt>
      <trkpt lat="46.32923592623356" lon="7.090434590089991">
        <time>2013-06-23T17:35:21.000+02:00</time>
      </trkpt>
      <trkpt lat="46.32928969982614" lon="7.090369315985086">
        <time>2013-06-23T17:35:21.000+02:00</time>
      </trkpt>
      <trkpt lat="46.32930761104298" lon="7.090343229356501">
        <time>2013-06-23T17:35:21.000+02:00</time>
      </trkpt>
      <trkpt lat="46.3293160475798" lon="7.090161371977733">
        <time>2013-06-23T17:35:21.000+02:00</time>
      </trkpt>
      <trkpt lat="46.32935123061622" lon="7.089901427261034">
        <time>2013-06-23T17:35:21.000+02:00</time>
      </trkpt>
      <trkpt lat="46.32936010622983" lon="7.089862412443157">
        <time>2013-06-23T17:35:21.000+02:00</time>
      </trkpt>
      <trkpt lat="46.32935946648172" lon="7.0896546411346435">
        <time>2013-06-23T17:35:21.000+02:00</time>
      </trkpt>
      <trkpt lat="46.32935031096137" lon="7.0896027560546875">
        <time>2013-06-23T17:35:21.000+02:00</time>
      </trkpt>
      <trkpt lat="46.3292146177978" lon="7.089356894480451">
        <time>2013-06-23T17:35:21.000+02:00</time>
      </trkpt>
      <trkpt lat="46.32893531614499" lon="7.089215844209226">
        <time>2013-06-23T17:35:21.000+02:00</time>
      </trkpt>
      <trkpt lat="46.32872829895936" lon="7.089178217165974">
        <time>2013-06-23T17:35:21.000+02:00</time>
      </trkpt>
      <trkpt lat="46.32859348625334" lon="7.089218040972711">
        <time>2013-06-23T17:35:21.000+02:00</time>
      </trkpt>
      <trkpt lat="46.32844963796802" lon="7.0892449368953026">
        <time>2013-06-23T17:35:21.000+02:00</time>
      </trkpt>
      <trkpt lat="46.32834149145353" lon="7.08918070323302">
        <time>2013-06-23T17:35:21.000+02:00</time>
      </trkpt>
      <trkpt lat="46.328224189136456" lon="7.089064585911552">
        <time>2013-06-23T17:35:21.000+02:00</time>
      </trkpt>
      <trkpt lat="46.32807106490443" lon="7.089000642097419">
        <time>2013-06-23T17:35:21.000+02:00</time>
      </trkpt>
      <trkpt lat="46.32792701631395" lon="7.088962611516256">
        <time>2013-06-23T17:35:21.000+02:00</time>
      </trkpt>
      <trkpt lat="46.32785481164967" lon="7.088885162240995">
        <time>2013-06-23T17:35:21.000+02:00</time>
      </trkpt>
      <trkpt lat="46.32779152226618" lon="7.088781684632246">
        <time>2013-06-23T17:35:21.000+02:00</time>
      </trkpt>
      <trkpt lat="46.32771927737266" lon="7.088691250476087">
        <time>2013-06-23T17:35:21.000+02:00</time>
      </trkpt>
      <trkpt lat="46.32762908147752" lon="7.088613917673278">
        <time>2013-06-23T17:35:21.000+02:00</time>
      </trkpt>
      <trkpt lat="46.327529849881955" lon="7.08852365777899">
        <time>2013-06-23T17:35:21.000+02:00</time>
      </trkpt>
      <trkpt lat="46.32742146213568" lon="7.088381515180545">
        <time>2013-06-23T17:35:21.000+02:00</time>
      </trkpt>
      <trkpt lat="46.32735801166535" lon="7.088226098072576">
        <time>2013-06-23T17:35:21.000+02:00</time>
      </trkpt>
      <trkpt lat="46.327285565459455" lon="7.088070739324959">
        <time>2013-06-23T17:35:21.000+02:00</time>
      </trkpt>
      <trkpt lat="46.32719516819056" lon="7.087928482226098">
        <time>2013-06-23T17:35:21.000+02:00</time>
      </trkpt>
      <trkpt lat="46.327095654583374" lon="7.087747328151148">
        <time>2013-06-23T17:35:21.000+02:00</time>
      </trkpt>
      <trkpt lat="46.32700549826839" lon="7.087682982943974">
        <time>2013-06-23T17:35:21.000+02:00</time>
      </trkpt>
      <trkpt lat="46.32690658774499" lon="7.087696606737504">
        <time>2013-06-23T17:35:21.000+02:00</time>
      </trkpt>
      <trkpt lat="46.326780851517555" lon="7.087762345008465">
        <time>2013-06-23T17:35:21.000+02:00</time>
      </trkpt>
      <trkpt lat="46.32666386951489" lon="7.0877501145697295">
        <time>2013-06-23T17:35:21.000+02:00</time>
      </trkpt>
      <trkpt lat="46.32660981594992" lon="7.087724492771955">
        <time>2013-06-23T17:35:21.000+02:00</time>
      </trkpt>
      <trkpt lat="46.32659154334771" lon="7.087633713571579">
        <time>2013-06-23T17:35:21.000+02:00</time>
      </trkpt>
      <trkpt lat="46.32657327067273" lon="7.0875429344322365">
        <time>2013-06-23T17:35:21.000+02:00</time>
      </trkpt>
      <trkpt lat="46.32648283248769" lon="7.087387695056505">
        <time>2013-06-23T17:35:21.000+02:00</time>
      </trkpt>
      <trkpt lat="46.32633785698119" lon="7.087051015244879">
        <time>2013-06-23T17:35:21.000+02:00</time>
      </trkpt>
      <trkpt lat="46.32617472808735" lon="7.086662513895299">
        <time>2013-06-23T17:35:21.000+02:00</time>
      </trkpt>
      <trkpt lat="46.326111678755666" lon="7.086636951642656">
        <time>2013-06-23T17:35:21.000+02:00</time>
      </trkpt>
      <trkpt lat="46.32586843653933" lon="7.086521660104149">
        <time>2013-06-23T17:35:21.000+02:00</time>
      </trkpt>
      <trkpt lat="46.3256786828062" lon="7.086250202069524">
        <time>2013-06-23T17:35:21.000+02:00</time>
      </trkpt>
      <trkpt lat="46.325552220363015" lon="7.086082215893644">
        <time>2013-06-23T17:35:21.000+02:00</time>
      </trkpt>
      <trkpt lat="46.32539005852449" lon="7.0860053571983075">
        <time>2013-06-23T17:35:21.000+02:00</time>
      </trkpt>
      <trkpt lat="46.32521825415227" lon="7.085720801875367">
        <time>2013-06-23T17:35:21.000+02:00</time>
      </trkpt>
      <trkpt lat="46.325199939487206" lon="7.08561704096186">
        <time>2013-06-23T17:35:21.000+02:00</time>
      </trkpt>
      <trkpt lat="46.325162297340334" lon="7.085084901820689">
        <time>2013-06-23T17:35:21.000+02:00</time>
      </trkpt>
      <trkpt lat="46.32517068489521" lon="7.084890072790852">
        <time>2013-06-23T17:35:21.000+02:00</time>
      </trkpt>
      <trkpt lat="46.32518818932223" lon="7.084734139267111">
        <time>2013-06-23T17:35:21.000+02:00</time>
      </trkpt>
      <trkpt lat="46.32519702259029" lon="7.0846821418849535">
        <time>2013-06-23T17:35:21.000+02:00</time>
      </trkpt>
      <trkpt lat="46.32524171619272" lon="7.084590956069947">
        <time>2013-06-23T17:35:21.000+02:00</time>
      </trkpt>
      <trkpt lat="46.32527745478781" lon="7.084512813418915">
        <time>2013-06-23T17:35:21.000+02:00</time>
      </trkpt>
      <trkpt lat="46.32528620676854" lon="7.084434846455832">
        <time>2013-06-23T17:35:21.000+02:00</time>
      </trkpt>
      <trkpt lat="46.32529443072683" lon="7.084188077955646">
        <time>2013-06-23T17:35:21.000+02:00</time>
      </trkpt>
      <trkpt lat="46.32529325204403" lon="7.083811520748596">
        <time>2013-06-23T17:35:21.000+02:00</time>
      </trkpt>
      <trkpt lat="46.325283524298584" lon="7.083577854332647">
        <time>2013-06-23T17:35:21.000+02:00</time>
      </trkpt>
      <trkpt lat="46.32532793205453" lon="7.083395774292017">
        <time>2013-06-23T17:35:21.000+02:00</time>
      </trkpt>
      <trkpt lat="46.325435348888355" lon="7.08322626712514">
        <time>2013-06-23T17:35:21.000+02:00</time>
      </trkpt>
      <trkpt lat="46.32557870679379" lon="7.083043539189264">
        <time>2013-06-23T17:35:21.000+02:00</time>
      </trkpt>
      <trkpt lat="46.3257216973718" lon="7.082743946796785">
        <time>2013-06-23T17:35:21.000+02:00</time>
      </trkpt>
      <trkpt lat="46.32585560999087" lon="7.082418442027075">
        <time>2013-06-23T17:35:21.000+02:00</time>
      </trkpt>
      <trkpt lat="46.325890734404105" lon="7.082145523978394">
        <time>2013-06-23T17:35:21.000+02:00</time>
      </trkpt>
      <trkpt lat="46.32591653548912" lon="7.081768785572248">
        <time>2013-06-23T17:35:21.000+02:00</time>
      </trkpt>
      <trkpt lat="46.32607694050917" lon="7.081287280961744">
        <time>2013-06-23T17:35:21.000+02:00</time>
      </trkpt>
      <trkpt lat="46.32613876181205" lon="7.080923289066098">
        <time>2013-06-23T17:35:21.000+02:00</time>
      </trkpt>
      <trkpt lat="46.326236522979706" lon="7.08054607443295">
        <time>2013-06-23T17:35:21.000+02:00</time>
      </trkpt>
      <trkpt lat="46.326236276712486" lon="7.080468164711174">
        <time>2013-06-23T17:35:21.000+02:00</time>
      </trkpt>
      <trkpt lat="46.326163737735016" lon="7.08028684963659">
        <time>2013-06-23T17:35:21.000+02:00</time>
      </trkpt>
      <trkpt lat="46.326073001960026" lon="7.080040729102386">
        <time>2013-06-23T17:35:21.000+02:00</time>
      </trkpt>
      <trkpt lat="46.32608146307839" lon="7.079871865866319">
        <time>2013-06-23T17:35:21.000+02:00</time>
      </trkpt>
      <trkpt lat="46.32609017073847" lon="7.079780912086218">
        <time>2013-06-23T17:35:21.000+02:00</time>
      </trkpt>
      <trkpt lat="46.32610779156402" lon="7.079663929049679">
        <time>2013-06-23T17:35:21.000+02:00</time>
      </trkpt>
      <trkpt lat="46.32616997823723" lon="7.079416799534716">
        <time>2013-06-23T17:35:21.000+02:00</time>
      </trkpt>
      <trkpt lat="46.32616020023059" lon="7.07917014520599">
        <time>2013-06-23T17:35:21.000+02:00</time>
      </trkpt>
      <trkpt lat="46.32609632489748" lon="7.078884893266835">
        <time>2013-06-23T17:35:21.000+02:00</time>
      </trkpt>
      <trkpt lat="46.32604152688694" lon="7.078625552246156">
        <time>2013-06-23T17:35:21.000+02:00</time>
      </trkpt>
      <trkpt lat="46.326032407582446" lon="7.078586657094678">
        <time>2013-06-23T17:35:21.000+02:00</time>
      </trkpt>
      <trkpt lat="46.3258701168311" lon="7.078470865483843">
        <time>2013-06-23T17:35:21.000+02:00</time>
      </trkpt>
      <trkpt lat="46.32585212579678" lon="7.078470984652206">
        <time>2013-06-23T17:35:21.000+02:00</time>
      </trkpt>
      <trkpt lat="46.32574351895555" lon="7.078263942311743">
        <time>2013-06-23T17:35:21.000+02:00</time>
      </trkpt>
      <trkpt lat="46.32561642469133" lon="7.077901202459675">
        <time>2013-06-23T17:35:21.000+02:00</time>
      </trkpt>
      <trkpt lat="46.325524980206595" lon="7.077434347100333">
        <time>2013-06-23T17:35:21.000+02:00</time>
      </trkpt>
      <trkpt lat="46.32545177350539" lon="7.077045282227652">
        <time>2013-06-23T17:35:21.000+02:00</time>
      </trkpt>
      <trkpt lat="46.32537864843707" lon="7.07668218789447">
        <time>2013-06-23T17:35:21.000+02:00</time>
      </trkpt>
      <trkpt lat="46.3252693740319" lon="7.076267395418784">
        <time>2013-06-23T17:35:21.000+02:00</time>
      </trkpt>
      <trkpt lat="46.32525030270609" lon="7.075929912730832">
        <time>2013-06-23T17:35:21.000+02:00</time>
      </trkpt>
      <trkpt lat="46.3252670459937" lon="7.075540251168109">
        <time>2013-06-23T17:35:21.000+02:00</time>
      </trkpt>
      <trkpt lat="46.32541064128257" lon="7.075435412052007">
        <time>2013-06-23T17:35:21.000+02:00</time>
      </trkpt>
      <trkpt lat="46.32566209938139" lon="7.075303881515417">
        <time>2013-06-23T17:35:21.000+02:00</time>
      </trkpt>
      <trkpt lat="46.32603982774604" lon="7.0752753871600795">
        <time>2013-06-23T17:35:21.000+02:00</time>
      </trkpt>
      <trkpt lat="46.32612969960982" lon="7.075248816180465">
        <time>2013-06-23T17:35:21.000+02:00</time>
      </trkpt>
      <trkpt lat="46.32623764579614" lon="7.075248094768268">
        <time>2013-06-23T17:35:21.000+02:00</time>
      </trkpt>
      <trkpt lat="46.32629120234189" lon="7.0751178844357066">
        <time>2013-06-23T17:35:21.000+02:00</time>
      </trkpt>
      <trkpt lat="46.32625472022684" lon="7.074962305548535">
        <time>2013-06-23T17:35:21.000+02:00</time>
      </trkpt>
      <trkpt lat="46.326164181407826" lon="7.074781118150954">
        <time>2013-06-23T17:35:21.000+02:00</time>
      </trkpt>
      <trkpt lat="46.32619974638636" lon="7.074651027967659">
        <time>2013-06-23T17:35:21.000+02:00</time>
      </trkpt>
      <trkpt lat="46.32614552297439" lon="7.074573479702922">
        <time>2013-06-23T17:35:21.000+02:00</time>
      </trkpt>
      <trkpt lat="46.32607322500934" lon="7.074470082257208">
        <time>2013-06-23T17:35:21.000+02:00</time>
      </trkpt>
      <trkpt lat="46.325875156720976" lon="7.07441946822134">
        <time>2013-06-23T17:35:21.000+02:00</time>
      </trkpt>
      <trkpt lat="46.325767127053744" lon="7.074394221600153">
        <time>2013-06-23T17:35:21.000+02:00</time>
      </trkpt>
      <trkpt lat="46.325694745408924" lon="7.074264855473611">
        <time>2013-06-23T17:35:21.000+02:00</time>
      </trkpt>
      <trkpt lat="46.325785201571" lon="7.074420070765089">
        <time>2013-06-23T17:35:21.000+02:00</time>
      </trkpt>
      <trkpt lat="46.325911055293524" lon="7.074393257461088">
        <time>2013-06-23T17:35:21.000+02:00</time>
      </trkpt>
      <trkpt lat="46.32598326985861" lon="7.074470684719504">
        <time>2013-06-23T17:35:21.000+02:00</time>
      </trkpt>
      <trkpt lat="46.32607330847924" lon="7.074496052076968">
        <time>2013-06-23T17:35:21.000+02:00</time>
      </trkpt>
      <trkpt lat="46.326145439522236" lon="7.074547509848546">
        <time>2013-06-23T17:35:21.000+02:00</time>
      </trkpt>
      <trkpt lat="46.32618175535592" lon="7.074651148400701">
        <time>2013-06-23T17:35:21.000+02:00</time>
      </trkpt>
      <trkpt lat="46.32614619037729" lon="7.074781238540868">
        <time>2013-06-23T17:35:21.000+02:00</time>
      </trkpt>
      <trkpt lat="46.32616434819908" lon="7.07483305787844">
        <time>2013-06-23T17:35:21.000+02:00</time>
      </trkpt>
      <trkpt lat="46.32623664583306" lon="7.074936455980144">
        <time>2013-06-23T17:35:21.000+02:00</time>
      </trkpt>
      <trkpt lat="46.32627296131106" lon="7.075040094966017">
        <time>2013-06-23T17:35:21.000+02:00</time>
      </trkpt>
      <trkpt lat="46.32627354456074" lon="7.075221884380245">
        <time>2013-06-23T17:35:21.000+02:00</time>
      </trkpt>
      <trkpt lat="46.326363499716194" lon="7.075221283157403">
        <time>2013-06-23T17:35:21.000+02:00</time>
      </trkpt>
      <trkpt lat="46.326525752152676" lon="7.075324081099441">
        <time>2013-06-23T17:35:21.000+02:00</time>
      </trkpt>
      <trkpt lat="46.326669930208624" lon="7.075401029726083">
        <time>2013-06-23T17:35:21.000+02:00</time>
      </trkpt>
      <trkpt lat="46.326850173515005" lon="7.075503708631253">
        <time>2013-06-23T17:35:21.000+02:00</time>
      </trkpt>
      <trkpt lat="46.326994185001666" lon="7.075528717670389">
        <time>2013-06-23T17:35:21.000+02:00</time>
      </trkpt>
      <trkpt lat="46.3270122176478" lon="7.075541582660808">
        <time>2013-06-23T17:35:21.000+02:00</time>
      </trkpt>
      <trkpt lat="46.326958244552536" lon="7.075541943081287">
        <time>2013-06-23T17:35:21.000+02:00</time>
      </trkpt>
      <trkpt lat="46.32734575895812" lon="7.07576010870035">
        <time>2013-06-23T17:35:21.000+02:00</time>
      </trkpt>
      <trkpt lat="46.32774276712002" lon="7.076134041147375">
        <time>2013-06-23T17:35:21.000+02:00</time>
      </trkpt>
      <trkpt lat="46.327959282534806" lon="7.076327382214867">
        <time>2013-06-23T17:35:21.000+02:00</time>
      </trkpt>
      <trkpt lat="46.32817608809445" lon="7.076611622718065">
        <time>2013-06-23T17:35:21.000+02:00</time>
      </trkpt>
      <trkpt lat="46.32826695570542" lon="7.076896703353413">
        <time>2013-06-23T17:35:21.000+02:00</time>
      </trkpt>
      <trkpt lat="46.3283948398449" lon="7.077506182402596">
        <time>2013-06-23T17:35:21.000+02:00</time>
      </trkpt>
      <trkpt lat="46.32841307918365" lon="7.077583975735767">
        <time>2013-06-23T17:35:21.000+02:00</time>
      </trkpt>
      <trkpt lat="46.32864832735563" lon="7.078010945051689">
        <time>2013-06-23T17:35:21.000+02:00</time>
      </trkpt>
      <trkpt lat="46.32883818343973" lon="7.078308360294196">
        <time>2013-06-23T17:35:21.000+02:00</time>
      </trkpt>
      <trkpt lat="46.32891043662189" lon="7.078398782511402">
        <time>2013-06-23T17:35:21.000+02:00</time>
      </trkpt>
      <trkpt lat="46.32899164397338" lon="7.078476159774141">
        <time>2013-06-23T17:35:21.000+02:00</time>
      </trkpt>
      <trkpt lat="46.32909075976823" lon="7.07852744685204">
        <time>2013-06-23T17:35:21.000+02:00</time>
      </trkpt>
      <trkpt lat="46.329523204790775" lon="7.078732358852897">
        <time>2013-06-23T17:35:21.000+02:00</time>
      </trkpt>
      <trkpt lat="46.3298745248727" lon="7.0788858664319445">
        <time>2013-06-23T17:35:21.000+02:00</time>
      </trkpt>
      <trkpt lat="46.330072797291024" lon="7.079001429802118">
        <time>2013-06-23T17:35:21.000+02:00</time>
      </trkpt>
      <trkpt lat="46.330162958542935" lon="7.079065764240118">
        <time>2013-06-23T17:35:21.000+02:00</time>
      </trkpt>
      <trkpt lat="46.33028018871604" lon="7.0791558922876465">
        <time>2013-06-23T17:35:21.000+02:00</time>
      </trkpt>
      <trkpt lat="46.330343363324836" lon="7.0792204056231025">
        <time>2013-06-23T17:35:21.000+02:00</time>
      </trkpt>
      <trkpt lat="46.33050552978651" lon="7.079297251077957">
        <time>2013-06-23T17:35:21.000+02:00</time>
      </trkpt>
      <trkpt lat="46.33064949926856" lon="7.0793092858378746">
        <time>2013-06-23T17:35:21.000+02:00</time>
      </trkpt>
      <trkpt lat="46.33091008100206" lon="7.079216659269888">
        <time>2013-06-23T17:35:21.000+02:00</time>
      </trkpt>
      <trkpt lat="46.331045178541906" lon="7.0792677116737615">
        <time>2013-06-23T17:35:21.000+02:00</time>
      </trkpt>
      <trkpt lat="46.331018644947974" lon="7.079410737091539">
        <time>2013-06-23T17:35:21.000+02:00</time>
      </trkpt>
      <trkpt lat="46.33100085974266" lon="7.079475786414082">
        <time>2013-06-23T17:35:21.000+02:00</time>
      </trkpt>
      <trkpt lat="46.33095633484817" lon="7.07961893041393">
        <time>2013-06-23T17:35:21.000+02:00</time>
      </trkpt>
      <trkpt lat="46.330975312970466" lon="7.079930477647919">
        <time>2013-06-23T17:35:21.000+02:00</time>
      </trkpt>
      <trkpt lat="46.33099392050135" lon="7.08012515029249">
        <time>2013-06-23T17:35:21.000+02:00</time>
      </trkpt>
      <trkpt lat="46.330985664331045" lon="7.080358959186089">
        <time>2013-06-23T17:35:21.000+02:00</time>
      </trkpt>
      <trkpt lat="46.33106752700066" lon="7.080644120048536">
        <time>2013-06-23T17:35:21.000+02:00</time>
      </trkpt>
      <trkpt lat="46.33106830628044" lon="7.080890856096268">
        <time>2013-06-23T17:35:21.000+02:00</time>
      </trkpt>
      <trkpt lat="46.33110510807375" lon="7.0811503416724">
        <time>2013-06-23T17:35:21.000+02:00</time>
      </trkpt>
      <trkpt lat="46.331141254024615" lon="7.081202049587273">
        <time>2013-06-23T17:35:21.000+02:00</time>
      </trkpt>
      <trkpt lat="46.33125872820219" lon="7.081370100785466">
        <time>2013-06-23T17:35:21.000+02:00</time>
      </trkpt>
      <trkpt lat="46.33143013432421" lon="7.081524812016777">
        <time>2013-06-23T17:35:21.000+02:00</time>
      </trkpt>
      <trkpt lat="46.33163764504058" lon="7.081718246717759">
        <time>2013-06-23T17:35:21.000+02:00</time>
      </trkpt>
      <trkpt lat="46.33174604115779" lon="7.081860387050162">
        <time>2013-06-23T17:35:21.000+02:00</time>
      </trkpt>
      <trkpt lat="46.33178210501516" lon="7.081886123488146">
        <time>2013-06-23T17:35:21.000+02:00</time>
      </trkpt>
      <trkpt lat="46.33185455970983" lon="7.082041486839295">
        <time>2013-06-23T17:35:21.000+02:00</time>
      </trkpt>
      <trkpt lat="46.331945168624515" lon="7.082248677929092">
        <time>2013-06-23T17:35:21.000+02:00</time>
      </trkpt>
      <trkpt lat="46.33207184088296" lon="7.082481606679718">
        <time>2013-06-23T17:35:21.000+02:00</time>
      </trkpt>
      <trkpt lat="46.332198349484756" lon="7.08266259099855">
        <time>2013-06-23T17:35:21.000+02:00</time>
      </trkpt>
      <trkpt lat="46.33225289363013" lon="7.082844047103453">
        <time>2013-06-23T17:35:21.000+02:00</time>
      </trkpt>
      <trkpt lat="46.33230751899393" lon="7.0830514763838135">
        <time>2013-06-23T17:35:21.000+02:00</time>
      </trkpt>
      <trkpt lat="46.33239804460149" lon="7.0832326980285565">
        <time>2013-06-23T17:35:21.000+02:00</time>
      </trkpt>
      <trkpt lat="46.33232567303612" lon="7.083103304356514">
        <time>2013-06-23T17:35:21.000+02:00</time>
      </trkpt>
      <trkpt lat="46.332252812073676" lon="7.0828180743185865">
        <time>2013-06-23T17:35:21.000+02:00</time>
      </trkpt>
      <trkpt lat="46.332198431076854" lon="7.082688563757155">
        <time>2013-06-23T17:35:21.000+02:00</time>
      </trkpt>
      <trkpt lat="46.33214413154791" lon="7.082585026187342">
        <time>2013-06-23T17:35:21.000+02:00</time>
      </trkpt>
      <trkpt lat="46.33207192251655" lon="7.082507579377602">
        <time>2013-06-23T17:35:21.000+02:00</time>
      </trkpt>
      <trkpt lat="46.33207159594651" lon="7.082403688586546">
        <time>2013-06-23T17:35:21.000+02:00</time>
      </trkpt>
      <trkpt lat="46.332143315121726" lon="7.082325298865913">
        <time>2013-06-23T17:35:21.000+02:00</time>
      </trkpt>
      <trkpt lat="46.33225158801242" lon="7.082428482555143">
        <time>2013-06-23T17:35:21.000+02:00</time>
      </trkpt>
      <trkpt lat="46.33230572442267" lon="7.082480074553867">
        <time>2013-06-23T17:35:21.000+02:00</time>
      </trkpt>
      <trkpt lat="46.33241301738511" lon="7.082271584527719">
        <time>2013-06-23T17:35:21.000+02:00</time>
      </trkpt>
      <trkpt lat="46.332466582011" lon="7.082141366320136">
        <time>2013-06-23T17:35:21.000+02:00</time>
      </trkpt>
      <trkpt lat="46.33259227412917" lon="7.082062621698764">
        <time>2013-06-23T17:35:21.000+02:00</time>
      </trkpt>
      <trkpt lat="46.33259231499474" lon="7.082075608171682">
        <time>2013-06-23T17:35:21.000+02:00</time>
      </trkpt>
      <trkpt lat="46.3326103469001" lon="7.082088476658032">
        <time>2013-06-23T17:35:21.000+02:00</time>
      </trkpt>
      <trkpt lat="46.33291574501393" lon="7.081943618821704">
        <time>2013-06-23T17:35:21.000+02:00</time>
      </trkpt>
      <trkpt lat="46.33296051819866" lon="7.081878390929428">
        <time>2013-06-23T17:35:21.000+02:00</time>
      </trkpt>
      <trkpt lat="46.333247106627454" lon="7.081473916503604">
        <time>2013-06-23T17:35:21.000+02:00</time>
      </trkpt>
      <trkpt lat="46.33352494394803" lon="7.081147417145866">
        <time>2013-06-23T17:35:21.000+02:00</time>
      </trkpt>
      <trkpt lat="46.333569716675086" lon="7.081082187866939">
        <time>2013-06-23T17:35:21.000+02:00</time>
      </trkpt>
      <trkpt lat="46.3336054938443" lon="7.08101701765231">
        <time>2013-06-23T17:35:21.000+02:00</time>
      </trkpt>
      <trkpt lat="46.333668052550166" lon="7.080886736159103">
        <time>2013-06-23T17:35:21.000+02:00</time>
      </trkpt>
      <trkpt lat="46.33378458422752" lon="7.0807560990758205">
        <time>2013-06-23T17:35:21.000+02:00</time>
      </trkpt>
      <trkpt lat="46.333910521510624" lon="7.080755270062408">
        <time>2013-06-23T17:35:21.000+02:00</time>
      </trkpt>
      <trkpt lat="46.333982649725456" lon="7.080806743554743">
        <time>2013-06-23T17:35:21.000+02:00</time>
      </trkpt>
      <trkpt lat="46.33409088300477" lon="7.080896940879276">
        <time>2013-06-23T17:35:21.000+02:00</time>
      </trkpt>
      <trkpt lat="46.33412723402531" lon="7.081013585658496">
        <time>2013-06-23T17:35:21.000+02:00</time>
      </trkpt>
      <trkpt lat="46.334145757765576" lon="7.081182296274031">
        <time>2013-06-23T17:35:21.000+02:00</time>
      </trkpt>
      <trkpt lat="46.334164404091574" lon="7.081389967548302">
        <time>2013-06-23T17:35:21.000+02:00</time>
      </trkpt>
      <trkpt lat="46.334164731591166" lon="7.081493862332366">
        <time>2013-06-23T17:35:21.000+02:00</time>
      </trkpt>
      <trkpt lat="46.334201859173085" lon="7.0818572579533425">
        <time>2013-06-23T17:35:21.000+02:00</time>
      </trkpt>
      <trkpt lat="46.33428359550068" lon="7.08210347731087">
        <time>2013-06-23T17:35:21.000+02:00</time>
      </trkpt>
      <trkpt lat="46.33430183168579" lon="7.082181280613302">
        <time>2013-06-23T17:35:21.000+02:00</time>
      </trkpt>
      <trkpt lat="46.33432967582819" lon="7.082453828322345">
        <time>2013-06-23T17:35:21.000+02:00</time>
      </trkpt>
      <trkpt lat="46.33432255651979" lon="7.083051284038607">
        <time>2013-06-23T17:35:21.000+02:00</time>
      </trkpt>
      <trkpt lat="46.33430521733402" lon="7.083259191836402">
        <time>2013-06-23T17:35:21.000+02:00</time>
      </trkpt>
      <trkpt lat="46.33427863798622" lon="7.0833892370077">
        <time>2013-06-23T17:35:21.000+02:00</time>
      </trkpt>
      <trkpt lat="46.33425185497378" lon="7.0834543476994405">
        <time>2013-06-23T17:35:21.000+02:00</time>
      </trkpt>
      <trkpt lat="46.334225316093196" lon="7.083597379511931">
        <time>2013-06-23T17:35:21.000+02:00</time>
      </trkpt>
      <trkpt lat="46.33429756506442" lon="7.083687817717874">
        <time>2013-06-23T17:35:21.000+02:00</time>
      </trkpt>
      <trkpt lat="46.33438739823603" lon="7.083648269702084">
        <time>2013-06-23T17:35:21.000+02:00</time>
      </trkpt>
      <trkpt lat="46.334486104841844" lon="7.083569702032131">
        <time>2013-06-23T17:35:21.000+02:00</time>
      </trkpt>
      <trkpt lat="46.33461183866073" lon="7.0835039447428665">
        <time>2013-06-23T17:35:21.000+02:00</time>
      </trkpt>
      <trkpt lat="46.334818450717904" lon="7.083411684185578">
        <time>2013-06-23T17:35:21.000+02:00</time>
      </trkpt>
      <trkpt lat="46.33498924349077" lon="7.083371606282034">
        <time>2013-06-23T17:35:21.000+02:00</time>
      </trkpt>
      <trkpt lat="46.335160036250166" lon="7.083331528126525">
        <time>2013-06-23T17:35:21.000+02:00</time>
      </trkpt>
      <trkpt lat="46.33528609571263" lon="7.083369666409743">
        <time>2013-06-23T17:35:21.000+02:00</time>
      </trkpt>
      <trkpt lat="46.335430512555725" lon="7.0835245716811475">
        <time>2013-06-23T17:35:21.000+02:00</time>
      </trkpt>
      <trkpt lat="46.33554826802148" lon="7.083783551418173">
        <time>2013-06-23T17:35:21.000+02:00</time>
      </trkpt>
      <trkpt lat="46.33563915824017" lon="7.084081669904371">
        <time>2013-06-23T17:35:21.000+02:00</time>
      </trkpt>
      <trkpt lat="46.335810641910015" lon="7.084262376635749">
        <time>2013-06-23T17:35:21.000+02:00</time>
      </trkpt>
      <trkpt lat="46.335982247066205" lon="7.0844820463608915">
        <time>2013-06-23T17:35:21.000+02:00</time>
      </trkpt>
      <trkpt lat="46.33614558618266" lon="7.084935547866447">
        <time>2013-06-23T17:35:21.000+02:00</time>
      </trkpt>
      <trkpt lat="46.336192103132014" lon="7.085428773969618">
        <time>2013-06-23T17:35:21.000+02:00</time>
      </trkpt>
      <trkpt lat="46.33619238645926" lon="7.0855196853185385">
        <time>2013-06-23T17:35:21.000+02:00</time>
      </trkpt>
      <trkpt lat="46.336301101403016" lon="7.085765744032599">
        <time>2013-06-23T17:35:21.000+02:00</time>
      </trkpt>
      <trkpt lat="46.33649981146112" lon="7.086024207655428">
        <time>2013-06-23T17:35:21.000+02:00</time>
      </trkpt>
      <trkpt lat="46.33662635480926" lon="7.086218202398811">
        <time>2013-06-23T17:35:21.000+02:00</time>
      </trkpt>
      <trkpt lat="46.33673535073396" lon="7.086555176736832">
        <time>2013-06-23T17:35:21.000+02:00</time>
      </trkpt>
      <trkpt lat="46.33680800068524" lon="7.0867754978851165">
        <time>2013-06-23T17:35:21.000+02:00</time>
      </trkpt>
      <trkpt lat="46.33699775321437" lon="7.087047013318278">
        <time>2013-06-23T17:35:21.000+02:00</time>
      </trkpt>
      <trkpt lat="46.33705188752802" lon="7.087098614420051">
        <time>2013-06-23T17:35:21.000+02:00</time>
      </trkpt>
      <trkpt lat="46.33725934849006" lon="7.08727910280629">
        <time>2013-06-23T17:35:21.000+02:00</time>
      </trkpt>
      <trkpt lat="46.337475683940085" lon="7.087420571528845">
        <time>2013-06-23T17:35:21.000+02:00</time>
      </trkpt>
      <trkpt lat="46.3376376436326" lon="7.087432513111677">
        <time>2013-06-23T17:35:21.000+02:00</time>
      </trkpt>
      <trkpt lat="46.33776333944332" lon="7.087353773229827">
        <time>2013-06-23T17:35:21.000+02:00</time>
      </trkpt>
      <trkpt lat="46.337897950183276" lon="7.087248999353832">
        <time>2013-06-23T17:35:21.000+02:00</time>
      </trkpt>
      <trkpt lat="46.33809540863937" lon="7.087104854444076">
        <time>2013-06-23T17:35:21.000+02:00</time>
      </trkpt>
      <trkpt lat="46.338059627965094" lon="7.087170026036338">
        <time>2013-06-23T17:35:21.000+02:00</time>
      </trkpt>
      <trkpt lat="46.33816701017818" lon="7.0869874988107">
        <time>2013-06-23T17:35:21.000+02:00</time>
      </trkpt>
      <trkpt lat="46.3382566429589" lon="7.086883014281196">
        <time>2013-06-23T17:35:21.000+02:00</time>
      </trkpt>
      <trkpt lat="46.338328445886226" lon="7.08683059724219">
        <time>2013-06-23T17:35:21.000+02:00</time>
      </trkpt>
      <trkpt lat="46.338471648275146" lon="7.0865958839376155">
        <time>2013-06-23T17:35:21.000+02:00</time>
      </trkpt>
      <trkpt lat="46.33863340631257" lon="7.086542883683034">
        <time>2013-06-23T17:35:21.000+02:00</time>
      </trkpt>
      <trkpt lat="46.33865091301947" lon="7.086386912071436">
        <time>2013-06-23T17:35:21.000+02:00</time>
      </trkpt>
      <trkpt lat="46.33866833873154" lon="7.086204964503996">
        <time>2013-06-23T17:35:21.000+02:00</time>
      </trkpt>
      <trkpt lat="46.33881202474035" lon="7.086126103626066">
        <time>2013-06-23T17:35:21.000+02:00</time>
      </trkpt>
      <trkpt lat="46.338991935222396" lon="7.086124936978883">
        <time>2013-06-23T17:35:21.000+02:00</time>
      </trkpt>
      <trkpt lat="46.33911819571947" lon="7.0862280246021605">
        <time>2013-06-23T17:35:21.000+02:00</time>
      </trkpt>
      <trkpt lat="46.33922646507458" lon="7.086331229301671">
        <time>2013-06-23T17:35:21.000+02:00</time>
      </trkpt>
      <trkpt lat="46.339225980441995" lon="7.086175372569274">
        <time>2013-06-23T17:35:21.000+02:00</time>
      </trkpt>
      <trkpt lat="46.339333280220956" lon="7.085966863289429">
        <time>2013-06-23T17:35:21.000+02:00</time>
      </trkpt>
      <trkpt lat="46.33945897501802" lon="7.085888117561633">
        <time>2013-06-23T17:35:21.000+02:00</time>
      </trkpt>
      <trkpt lat="46.3395841844104" lon="7.085653513715027">
        <time>2013-06-23T17:35:21.000+02:00</time>
      </trkpt>
      <trkpt lat="46.33960160894522" lon="7.085471562788928">
        <time>2013-06-23T17:35:21.000+02:00</time>
      </trkpt>
      <trkpt lat="46.33960071812076" lon="7.085185823491103">
        <time>2013-06-23T17:35:21.000+02:00</time>
      </trkpt>
      <trkpt lat="46.33958159225507" lon="7.08482227240532">
        <time>2013-06-23T17:35:21.000+02:00</time>
      </trkpt>
      <trkpt lat="46.33952672665301" lon="7.084536884799884">
        <time>2013-06-23T17:35:21.000+02:00</time>
      </trkpt>
      <trkpt lat="46.339381823866184" lon="7.0842261080075914">
        <time>2013-06-23T17:35:21.000+02:00</time>
      </trkpt>
      <trkpt lat="46.33921901048657" lon="7.083941426384204">
        <time>2013-06-23T17:35:21.000+02:00</time>
      </trkpt>
      <trkpt lat="46.33905627775677" lon="7.083682722503035">
        <time>2013-06-23T17:36:21.000+02:00</time>
      </trkpt>
      <trkpt lat="46.338948005990254" lon="7.083579523402403">
        <time>2013-06-23T17:36:21.000+02:00</time>
      </trkpt>
      <trkpt lat="46.338803589210144" lon="7.083424607963845">
        <time>2013-06-23T17:36:21.000+02:00</time>
      </trkpt>
      <trkpt lat="46.338641344073636" lon="7.083321762633556">
        <time>2013-06-23T17:36:21.000+02:00</time>
      </trkpt>
      <trkpt lat="46.33849700841883" lon="7.08319282452241">
        <time>2013-06-23T17:36:21.000+02:00</time>
      </trkpt>
      <trkpt lat="46.3383166905282" lon="7.083064122449301">
        <time>2013-06-23T17:36:21.000+02:00</time>
      </trkpt>
      <trkpt lat="46.338118544500894" lon="7.082987490123863">
        <time>2013-06-23T17:36:21.000+02:00</time>
      </trkpt>
      <trkpt lat="46.337938471002396" lon="7.082936716131934">
        <time>2013-06-23T17:36:21.000+02:00</time>
      </trkpt>
      <trkpt lat="46.337704424348885" lon="7.082886295678865">
        <time>2013-06-23T17:36:21.000+02:00</time>
      </trkpt>
      <trkpt lat="46.337542260292516" lon="7.082809429346003">
        <time>2013-06-23T17:36:21.000+02:00</time>
      </trkpt>
      <trkpt lat="46.33738001460256" lon="7.082706588237248">
        <time>2013-06-23T17:36:21.000+02:00</time>
      </trkpt>
      <trkpt lat="46.33719953292348" lon="7.082525940124919">
        <time>2013-06-23T17:36:21.000+02:00</time>
      </trkpt>
      <trkpt lat="46.33696483279669" lon="7.082267721840282">
        <time>2013-06-23T17:36:21.000+02:00</time>
      </trkpt>
      <trkpt lat="46.33682049594836" lon="7.082138790503368">
        <time>2013-06-23T17:36:21.000+02:00</time>
      </trkpt>
      <trkpt lat="46.33663984984149" lon="7.081906196376237">
        <time>2013-06-23T17:36:21.000+02:00</time>
      </trkpt>
      <trkpt lat="46.33649518534312" lon="7.081673367529514">
        <time>2013-06-23T17:36:21.000+02:00</time>
      </trkpt>
      <trkpt lat="46.33640465723241" lon="7.08149213482574">
        <time>2013-06-23T17:36:21.000+02:00</time>
      </trkpt>
      <trkpt lat="46.33633220177615" lon="7.081336759204731">
        <time>2013-06-23T17:36:21.000+02:00</time>
      </trkpt>
      <trkpt lat="46.33631339144631" lon="7.081077130223204">
        <time>2013-06-23T17:36:21.000+02:00</time>
      </trkpt>
      <trkpt lat="46.33642027173127" lon="7.080738748192178">
        <time>2013-06-23T17:36:21.000+02:00</time>
      </trkpt>
      <trkpt lat="46.33647367045672" lon="7.080556569278826">
        <time>2013-06-23T17:36:21.000+02:00</time>
      </trkpt>
      <trkpt lat="46.33663591809419" lon="7.08065940225623">
        <time>2013-06-23T17:36:21.000+02:00</time>
      </trkpt>
      <trkpt lat="46.33681640274617" lon="7.08084004229826">
        <time>2013-06-23T17:36:21.000+02:00</time>
      </trkpt>
      <trkpt lat="46.33696098699531" lon="7.08104689527086">
        <time>2013-06-23T17:36:21.000+02:00</time>
      </trkpt>
      <trkpt lat="46.33708741597698" lon="7.0812019174322955">
        <time>2013-06-23T17:36:21.000+02:00</time>
      </trkpt>
      <trkpt lat="46.337285481291445" lon="7.081252566609444">
        <time>2013-06-23T17:36:21.000+02:00</time>
      </trkpt>
      <trkpt lat="46.3375728463517" lon="7.081094822272717">
        <time>2013-06-23T17:36:21.000+02:00</time>
      </trkpt>
      <trkpt lat="46.33775275677609" lon="7.081093639001809">
        <time>2013-06-23T17:36:21.000+02:00</time>
      </trkpt>
      <trkpt lat="46.33795041235175" lon="7.081014410881502">
        <time>2013-06-23T17:36:21.000+02:00</time>
      </trkpt>
      <trkpt lat="46.33811183978805" lon="7.080857492202618">
        <time>2013-06-23T17:36:21.000+02:00</time>
      </trkpt>
      <trkpt lat="46.33825519391751" lon="7.0806747154010345">
        <time>2013-06-23T17:36:21.000+02:00</time>
      </trkpt>
      <trkpt lat="46.33836248357281" lon="7.080466198991124">
        <time>2013-06-23T17:36:21.000+02:00</time>
      </trkpt>
      <trkpt lat="46.338469854988105" lon="7.080283657509438">
        <time>2013-06-23T17:36:21.000+02:00</time>
      </trkpt>
      <trkpt lat="46.33859554583304" lon="7.080204899893091">
        <time>2013-06-23T17:36:21.000+02:00</time>
      </trkpt>
      <trkpt lat="46.338704477559794" lon="7.0805158985100265">
        <time>2013-06-23T17:36:21.000+02:00</time>
      </trkpt>
      <trkpt lat="46.338794925188154" lon="7.080671161346785">
        <time>2013-06-23T17:36:21.000+02:00</time>
      </trkpt>
      <trkpt lat="46.33901073564331" lon="7.080643763694556">
        <time>2013-06-23T17:36:21.000+02:00</time>
      </trkpt>
      <trkpt lat="46.339352155086" lon="7.080511631707349">
        <time>2013-06-23T17:36:21.000+02:00</time>
      </trkpt>
      <trkpt lat="46.3396392727284" lon="7.08027594852312">
        <time>2013-06-23T17:36:21.000+02:00</time>
      </trkpt>
      <trkpt lat="46.33987290982557" lon="7.08019647742001">
        <time>2013-06-23T17:36:21.000+02:00</time>
      </trkpt>
      <trkpt lat="46.34019641989862" lon="7.0800904357761105">
        <time>2013-06-23T17:36:21.000+02:00</time>
      </trkpt>
      <trkpt lat="46.340465956747465" lon="7.079984748971821">
        <time>2013-06-23T17:36:21.000+02:00</time>
      </trkpt>
      <trkpt lat="46.34071733797866" lon="7.079827226205964">
        <time>2013-06-23T17:36:21.000+02:00</time>
      </trkpt>
      <trkpt lat="46.34102252754469" lon="7.0796173916239935">
        <time>2013-06-23T17:36:21.000+02:00</time>
      </trkpt>
      <trkpt lat="46.34130989035269" lon="7.079459627793229">
        <time>2013-06-23T17:36:21.000+02:00</time>
      </trkpt>
      <trkpt lat="46.34145357167501" lon="7.079380745252192">
        <time>2013-06-23T17:36:21.000+02:00</time>
      </trkpt>
      <trkpt lat="46.34179507203814" lon="7.0792745767287615">
        <time>2013-06-23T17:36:21.000+02:00</time>
      </trkpt>
      <trkpt lat="46.34202846124729" lon="7.079117165816881">
        <time>2013-06-23T17:36:21.000+02:00</time>
      </trkpt>
      <trkpt lat="46.34217205990451" lon="7.079012303808814">
        <time>2013-06-23T17:36:21.000+02:00</time>
      </trkpt>
      <trkpt lat="46.34238754017426" lon="7.0788809873789695">
        <time>2013-06-23T17:36:21.000+02:00</time>
      </trkpt>
      <trkpt lat="46.342657488264756" lon="7.078905179065106">
        <time>2013-06-23T17:36:21.000+02:00</time>
      </trkpt>
      <trkpt lat="46.34289137181329" lon="7.078903631239982">
        <time>2013-06-23T17:36:21.000+02:00</time>
      </trkpt>
      <trkpt lat="46.34314308147897" lon="7.078850008371379">
        <time>2013-06-23T17:36:21.000+02:00</time>
      </trkpt>
      <trkpt lat="46.34343085568378" lon="7.078822124924184">
        <time>2013-06-23T17:36:21.000+02:00</time>
      </trkpt>
      <trkpt lat="46.34377252052588" lon="7.078767905591651">
        <time>2013-06-23T17:36:21.000+02:00</time>
      </trkpt>
      <trkpt lat="46.344186561942664" lon="7.07884310146187">
        <time>2013-06-23T17:36:21.000+02:00</time>
      </trkpt>
      <trkpt lat="46.34442085777894" lon="7.0789714462894775">
        <time>2013-06-23T17:36:21.000+02:00</time>
      </trkpt>
      <trkpt lat="46.344763017314904" lon="7.0790730994464575">
        <time>2013-06-23T17:36:21.000+02:00</time>
      </trkpt>
      <trkpt lat="46.3449610836145" lon="7.07912374801101">
        <time>2013-06-23T17:36:21.000+02:00</time>
      </trkpt>
      <trkpt lat="46.34528549909672" lon="7.07930345911989">
        <time>2013-06-23T17:36:21.000+02:00</time>
      </trkpt>
      <trkpt lat="46.34564614332942" lon="7.079560872155822">
        <time>2013-06-23T17:36:21.000+02:00</time>
      </trkpt>
      <trkpt lat="46.34588035608037" lon="7.079663244230758">
        <time>2013-06-23T17:36:21.000+02:00</time>
      </trkpt>
      <trkpt lat="46.34613247752211" lon="7.079739518989114">
        <time>2013-06-23T17:36:21.000+02:00</time>
      </trkpt>
      <trkpt lat="46.34642016968925" lon="7.079685659163786">
        <time>2013-06-23T17:36:21.000+02:00</time>
      </trkpt>
      <trkpt lat="46.34654586014" lon="7.079606888639518">
        <time>2013-06-23T17:36:21.000+02:00</time>
      </trkpt>
      <trkpt lat="46.34670769724064" lon="7.0795798393932525">
        <time>2013-06-23T17:36:21.000+02:00</time>
      </trkpt>
      <trkpt lat="46.346942156788046" lon="7.07976015294664">
        <time>2013-06-23T17:36:21.000+02:00</time>
      </trkpt>
      <trkpt lat="46.347248498007296" lon="7.079914013186421">
        <time>2013-06-23T17:36:21.000+02:00</time>
      </trkpt>
      <trkpt lat="46.34753684797437" lon="7.080067993849441">
        <time>2013-06-23T17:36:21.000+02:00</time>
      </trkpt>
      <trkpt lat="46.34768159794062" lon="7.080326845869174">
        <time>2013-06-23T17:36:21.000+02:00</time>
      </trkpt>
      <trkpt lat="46.34782675759834" lon="7.080715600386494">
        <time>2013-06-23T17:36:21.000+02:00</time>
      </trkpt>
      <trkpt lat="46.34788155085495" lon="7.080975047461301">
        <time>2013-06-23T17:36:21.000+02:00</time>
      </trkpt>
      <trkpt lat="46.34791900766123" lon="7.0814424555141775">
        <time>2013-06-23T17:36:21.000+02:00</time>
      </trkpt>
      <trkpt lat="46.347848025543335" lon="7.081754691276856">
        <time>2013-06-23T17:36:21.000+02:00</time>
      </trkpt>
      <trkpt lat="46.34774114219933" lon="7.0820931424651565">
        <time>2013-06-23T17:36:21.000+02:00</time>
      </trkpt>
      <trkpt lat="46.34756253857153" lon="7.082510004250759">
        <time>2013-06-23T17:36:21.000+02:00</time>
      </trkpt>
      <trkpt lat="46.34741983396974" lon="7.082900647778916">
        <time>2013-06-23T17:36:21.000+02:00</time>
      </trkpt>
      <trkpt lat="46.347241145924954" lon="7.0832915244989865">
        <time>2013-06-23T17:36:21.000+02:00</time>
      </trkpt>
      <trkpt lat="46.3471339324513" lon="7.083526049297457">
        <time>2013-06-23T17:36:21.000+02:00</time>
      </trkpt>
      <trkpt lat="46.347081098283155" lon="7.083890120134784">
        <time>2013-06-23T17:36:21.000+02:00</time>
      </trkpt>
      <trkpt lat="46.34706432627195" lon="7.084279935524887">
        <time>2013-06-23T17:36:21.000+02:00</time>
      </trkpt>
      <trkpt lat="46.34704722833169" lon="7.084565831244737">
        <time>2013-06-23T17:36:21.000+02:00</time>
      </trkpt>
      <trkpt lat="46.346994147570236" lon="7.084851960993747">
        <time>2013-06-23T17:36:21.000+02:00</time>
      </trkpt>
      <trkpt lat="46.34699418811619" lon="7.084864950909967">
        <time>2013-06-23T17:36:21.000+02:00</time>
      </trkpt>
      <trkpt lat="46.34700302144842" lon="7.084812932686573">
        <time>2013-06-23T17:36:21.000+02:00</time>
      </trkpt>
      <trkpt lat="46.346968903126175" lon="7.085410702788176">
        <time>2013-06-23T17:36:21.000+02:00</time>
      </trkpt>
      <trkpt lat="46.3469694697376" lon="7.085592561538668">
        <time>2013-06-23T17:36:21.000+02:00</time>
      </trkpt>
      <trkpt lat="46.3470601126286" lon="7.085812806095419">
        <time>2013-06-23T17:36:21.000+02:00</time>
      </trkpt>
      <trkpt lat="46.34707830584402" lon="7.085877638994301">
        <time>2013-06-23T17:36:21.000+02:00</time>
      </trkpt>
      <trkpt lat="46.34707846754872" lon="7.085929598742943">
        <time>2013-06-23T17:36:21.000+02:00</time>
      </trkpt>
      <trkpt lat="46.347016024244766" lon="7.08609887634944">
        <time>2013-06-23T17:36:21.000+02:00</time>
      </trkpt>
      <trkpt lat="46.34689980943682" lon="7.086333452946902">
        <time>2013-06-23T17:36:21.000+02:00</time>
      </trkpt>
      <trkpt lat="46.34682837000407" lon="7.086502787811867">
        <time>2013-06-23T17:36:21.000+02:00</time>
      </trkpt>
      <trkpt lat="46.346774921370255" lon="7.086672005730375">
        <time>2013-06-23T17:36:21.000+02:00</time>
      </trkpt>
      <trkpt lat="46.346730709895354" lon="7.086919104222241">
        <time>2013-06-23T17:36:21.000+02:00</time>
      </trkpt>
      <trkpt lat="46.346704488934094" lon="7.087166085974594">
        <time>2013-06-23T17:36:21.000+02:00</time>
      </trkpt>
      <trkpt lat="46.34670537476637" lon="7.087451862652419">
        <time>2013-06-23T17:36:21.000+02:00</time>
      </trkpt>
      <trkpt lat="46.3467060587796" lon="7.087672690091799">
        <time>2013-06-23T17:36:21.000+02:00</time>
      </trkpt>
      <trkpt lat="46.346697746836035" lon="7.0878935755852925">
        <time>2013-06-23T17:36:21.000+02:00</time>
      </trkpt>
      <trkpt lat="46.34670734516673" lon="7.088088365287194">
        <time>2013-06-23T17:36:21.000+02:00</time>
      </trkpt>
      <trkpt lat="46.346752925269605" lon="7.088282923121927">
        <time>2013-06-23T17:36:21.000+02:00</time>
      </trkpt>
      <trkpt lat="46.34674469239012" lon="7.088529788431714">
        <time>2013-06-23T17:36:21.000+02:00</time>
      </trkpt>
      <trkpt lat="46.346754289627384" lon="7.088724578414507">
        <time>2013-06-23T17:36:21.000+02:00</time>
      </trkpt>
      <trkpt lat="46.346863438369475" lon="7.08911358012074">
        <time>2013-06-23T17:36:21.000+02:00</time>
      </trkpt>
      <trkpt lat="46.3470172832812" lon="7.089411364999945">
        <time>2013-06-23T17:36:21.000+02:00</time>
      </trkpt>
      <trkpt lat="46.34734288189972" lon="7.0899808444102765">
        <time>2013-06-23T17:36:21.000+02:00</time>
      </trkpt>
      <trkpt lat="46.34747941198411" lon="7.0904995802990305">
        <time>2013-06-23T17:36:21.000+02:00</time>
      </trkpt>
      <trkpt lat="46.347498400061056" lon="7.090824216090254">
        <time>2013-06-23T17:36:21.000+02:00</time>
      </trkpt>
      <trkpt lat="46.34753649278223" lon="7.091512458506715">
        <time>2013-06-23T17:36:21.000+02:00</time>
      </trkpt>
      <trkpt lat="46.347583020844596" lon="7.092018783675974">
        <time>2013-06-23T17:36:21.000+02:00</time>
      </trkpt>
      <trkpt lat="46.347611515918985" lon="7.09251223420882">
        <time>2013-06-23T17:36:21.000+02:00</time>
      </trkpt>
      <trkpt lat="46.34766806442059" lon="7.093356245905286">
        <time>2013-06-23T17:36:21.000+02:00</time>
      </trkpt>
      <trkpt lat="46.34771529525731" lon="7.094096395599454">
        <time>2013-06-23T17:36:21.000+02:00</time>
      </trkpt>
      <trkpt lat="46.347790138099334" lon="7.095044217705482">
        <time>2013-06-23T17:37:21.000+02:00</time>
      </trkpt>
      <trkpt lat="46.34779183000169" lon="7.095602792636654">
        <time>2013-06-23T17:37:21.000+02:00</time>
      </trkpt>
      <trkpt lat="46.34784776705454" lon="7.09625195841766">
        <time>2013-06-23T17:37:21.000+02:00</time>
      </trkpt>
      <trkpt lat="46.34780514112717" lon="7.097031648875405">
        <time>2013-06-23T17:37:21.000+02:00</time>
      </trkpt>
      <trkpt lat="46.34787053433763" lon="7.097836641483732">
        <time>2013-06-23T17:37:21.000+02:00</time>
      </trkpt>
      <trkpt lat="46.34799036251284" lon="7.098797180382781">
        <time>2013-06-23T17:38:21.000+02:00</time>
      </trkpt>
      <trkpt lat="46.34809114230441" lon="7.09940710056902">
        <time>2013-06-23T17:38:21.000+02:00</time>
      </trkpt>
      <trkpt lat="46.34812895008352" lon="7.100017415322162">
        <time>2013-06-23T17:38:21.000+02:00</time>
      </trkpt>
      <trkpt lat="46.348120420146536" lon="7.100173353728772">
        <time>2013-06-23T17:38:21.000+02:00</time>
      </trkpt>
      <trkpt lat="46.34808532980687" lon="7.100472352138259">
        <time>2013-06-23T17:38:21.000+02:00</time>
      </trkpt>
      <trkpt lat="46.34803217016454" lon="7.100745481646063">
        <time>2013-06-23T17:38:21.000+02:00</time>
      </trkpt>
      <trkpt lat="46.3480612457532" lon="7.101446783778084">
        <time>2013-06-23T17:38:21.000+02:00</time>
      </trkpt>
      <trkpt lat="46.34818861206539" lon="7.101926640410918">
        <time>2013-06-23T17:38:21.000+02:00</time>
      </trkpt>
      <trkpt lat="46.34818096626184" lon="7.102381353587349">
        <time>2013-06-23T17:38:21.000+02:00</time>
      </trkpt>
      <trkpt lat="46.34818246809877" lon="7.102887971914784">
        <time>2013-06-23T17:38:21.000+02:00</time>
      </trkpt>
      <trkpt lat="46.34830925177314" lon="7.103172979328495">
        <time>2013-06-23T17:38:21.000+02:00</time>
      </trkpt>
      <trkpt lat="46.3483814467046" lon="7.10325047672742">
        <time>2013-06-23T17:38:21.000+02:00</time>
      </trkpt>
      <trkpt lat="46.348562625046185" lon="7.10367804661842">
        <time>2013-06-23T17:38:21.000+02:00</time>
      </trkpt>
      <trkpt lat="46.34852783225156" lon="7.10408096757795">
        <time>2013-06-23T17:38:21.000+02:00</time>
      </trkpt>
      <trkpt lat="46.34846628117232" lon="7.104561995632871">
        <time>2013-06-23T17:38:21.000+02:00</time>
      </trkpt>
      <trkpt lat="46.34847734207569" lon="7.105263415764286">
        <time>2013-06-23T17:38:21.000+02:00</time>
      </trkpt>
      <trkpt lat="46.34848870360653" lon="7.106068758497025">
        <time>2013-06-23T17:38:21.000+02:00</time>
      </trkpt>
      <trkpt lat="46.34840976178687" lon="7.106757738215965">
        <time>2013-06-23T17:38:21.000+02:00</time>
      </trkpt>
      <trkpt lat="46.348338823927016" lon="7.107108914500957">
        <time>2013-06-23T17:38:21.000+02:00</time>
      </trkpt>
      <trkpt lat="46.34813317963622" lon="7.107538853275635">
        <time>2013-06-23T17:38:21.000+02:00</time>
      </trkpt>
      <trkpt lat="46.347747736664246" lon="7.108008853677385">
        <time>2013-06-23T17:38:21.000+02:00</time>
      </trkpt>
      <trkpt lat="46.347380396329946" lon="7.108517708207279">
        <time>2013-06-23T17:38:21.000+02:00</time>
      </trkpt>
      <trkpt lat="46.34733575909394" lon="7.1086348915264495">
        <time>2013-06-23T17:38:21.000+02:00</time>
      </trkpt>
      <trkpt lat="46.34711238230944" lon="7.109155855421637">
        <time>2013-06-23T17:38:21.000+02:00</time>
      </trkpt>
      <trkpt lat="46.34707666445253" lon="7.109247003220061">
        <time>2013-06-23T17:38:21.000+02:00</time>
      </trkpt>
      <trkpt lat="46.34705946581614" lon="7.10951990120236">
        <time>2013-06-23T17:38:21.000+02:00</time>
      </trkpt>
      <trkpt lat="46.347032818619134" lon="7.109636974106527">
        <time>2013-06-23T17:38:21.000+02:00</time>
      </trkpt>
      <trkpt lat="46.34703278091229" lon="7.1096239841624875">
        <time>2013-06-23T17:38:21.000+02:00</time>
      </trkpt>
      <trkpt lat="46.34708660329459" lon="7.109571697621003">
        <time>2013-06-23T17:38:21.000+02:00</time>
      </trkpt>
      <trkpt lat="46.34709552340188" lon="7.109545663242045">
        <time>2013-06-23T17:38:21.000+02:00</time>
      </trkpt>
      <trkpt lat="46.347104518939325" lon="7.109545608776745">
        <time>2013-06-23T17:38:21.000+02:00</time>
      </trkpt>
      <trkpt lat="46.347185591919406" lon="7.109584088529697">
        <time>2013-06-23T17:38:21.000+02:00</time>
      </trkpt>
      <trkpt lat="46.34728495757607" lon="7.109726379526315">
        <time>2013-06-23T17:38:21.000+02:00</time>
      </trkpt>
      <trkpt lat="46.34753777456356" lon="7.110049606942962">
        <time>2013-06-23T17:38:21.000+02:00</time>
      </trkpt>
      <trkpt lat="46.34784505281603" lon="7.1105413831948265">
        <time>2013-06-23T17:38:21.000+02:00</time>
      </trkpt>
      <trkpt lat="46.34811559556433" lon="7.110773577811303">
        <time>2013-06-23T17:38:21.000+02:00</time>
      </trkpt>
      <trkpt lat="46.348385687140485" lon="7.110849891518689">
        <time>2013-06-23T17:38:21.000+02:00</time>
      </trkpt>
      <trkpt lat="46.34901556264353" lon="7.110911046013945">
        <time>2013-06-23T17:38:21.000+02:00</time>
      </trkpt>
      <trkpt lat="46.34908752695101" lon="7.110910612082942">
        <time>2013-06-23T17:38:21.000+02:00</time>
      </trkpt>
      <trkpt lat="46.34936683926026" lon="7.111064816623102">
        <time>2013-06-23T17:38:21.000+02:00</time>
      </trkpt>
      <trkpt lat="46.34949311462303" lon="7.111180972392335">
        <time>2013-06-23T17:38:21.000+02:00</time>
      </trkpt>
      <trkpt lat="46.349719315703645" lon="7.111634288013069">
        <time>2013-06-23T17:38:21.000+02:00</time>
      </trkpt>
      <trkpt lat="46.34973764401607" lon="7.1117510950961424">
        <time>2013-06-23T17:38:21.000+02:00</time>
      </trkpt>
      <trkpt lat="46.34981185347993" lon="7.112530098859742">
        <time>2013-06-23T17:38:21.000+02:00</time>
      </trkpt>
      <trkpt lat="46.34985003814508" lon="7.113296329512922">
        <time>2013-06-23T17:39:21.000+02:00</time>
      </trkpt>
      <trkpt lat="46.34985044820891" lon="7.113439226334323">
        <time>2013-06-23T17:39:21.000+02:00</time>
      </trkpt>
      <trkpt lat="46.34989650612264" lon="7.113815685521538">
        <time>2013-06-23T17:39:21.000+02:00</time>
      </trkpt>
      <trkpt lat="46.34997809863063" lon="7.114036042734919">
        <time>2013-06-23T17:39:21.000+02:00</time>
      </trkpt>
      <trkpt lat="46.350023336708446" lon="7.114126708743233">
        <time>2013-06-23T17:39:21.000+02:00</time>
      </trkpt>
      <trkpt lat="46.35010552308218" lon="7.114554917847453">
        <time>2013-06-23T17:39:21.000+02:00</time>
      </trkpt>
      <trkpt lat="46.34992620636221" lon="7.114763840856237">
        <time>2013-06-23T17:39:21.000+02:00</time>
      </trkpt>
      <trkpt lat="46.34980063990627" lon="7.114894497410829">
        <time>2013-06-23T17:39:21.000+02:00</time>
      </trkpt>
      <trkpt lat="46.349693694671956" lon="7.115245886165732">
        <time>2013-06-23T17:39:21.000+02:00</time>
      </trkpt>
      <trkpt lat="46.34986505459765" lon="7.115400756696606">
        <time>2013-06-23T17:39:21.000+02:00</time>
      </trkpt>
      <trkpt lat="46.349955158175426" lon="7.115452184291657">
        <time>2013-06-23T17:39:21.000+02:00</time>
      </trkpt>
      <trkpt lat="46.3501083416104" lon="7.115542209731203">
        <time>2013-06-23T17:39:21.000+02:00</time>
      </trkpt>
      <trkpt lat="46.35034300296345" lon="7.115813624880348">
        <time>2013-06-23T17:39:21.000+02:00</time>
      </trkpt>
      <trkpt lat="46.35043351318023" lon="7.116007951986589">
        <time>2013-06-23T17:39:21.000+02:00</time>
      </trkpt>
      <trkpt lat="46.350552043807426" lon="7.116565861756003">
        <time>2013-06-23T17:39:21.000+02:00</time>
      </trkpt>
      <trkpt lat="46.35049939842507" lon="7.117033849589891">
        <time>2013-06-23T17:39:21.000+02:00</time>
      </trkpt>
      <trkpt lat="46.350446162044285" lon="7.117293984269567">
        <time>2013-06-23T17:39:21.000+02:00</time>
      </trkpt>
      <trkpt lat="46.350447597225575" lon="7.11780062413215">
        <time>2013-06-23T17:39:21.000+02:00</time>
      </trkpt>
      <trkpt lat="46.350386208184524" lon="7.1183595981586585">
        <time>2013-06-23T17:39:21.000+02:00</time>
      </trkpt>
      <trkpt lat="46.350368584089765" lon="7.118489611654009">
        <time>2013-06-23T17:39:21.000+02:00</time>
      </trkpt>
      <trkpt lat="46.35026181094667" lon="7.118905950621104">
        <time>2013-06-23T17:39:21.000+02:00</time>
      </trkpt>
      <trkpt lat="46.3503075212379" lon="7.1191655006914925">
        <time>2013-06-23T17:39:21.000+02:00</time>
      </trkpt>
      <trkpt lat="46.350425378179764" lon="7.119489582339676">
        <time>2013-06-23T17:39:21.000+02:00</time>
      </trkpt>
      <trkpt lat="46.35061505236755" lon="7.11976128000828">
        <time>2013-06-23T17:39:21.000+02:00</time>
      </trkpt>
      <trkpt lat="46.35078629653593" lon="7.119877194856934">
        <time>2013-06-23T17:39:21.000+02:00</time>
      </trkpt>
      <trkpt lat="46.35095797870966" lon="7.120149001111132">
        <time>2013-06-23T17:39:21.000+02:00</time>
      </trkpt>
      <trkpt lat="46.35097626175918" lon="7.120252822835179">
        <time>2013-06-23T17:39:21.000+02:00</time>
      </trkpt>
      <trkpt lat="46.35104181756254" lon="7.121174808552993">
        <time>2013-06-23T17:39:21.000+02:00</time>
      </trkpt>
      <trkpt lat="46.3510511041288" lon="7.121278683309885">
        <time>2013-06-23T17:39:21.000+02:00</time>
      </trkpt>
      <trkpt lat="46.350989843154494" lon="7.121889623212606">
        <time>2013-06-23T17:39:21.000+02:00</time>
      </trkpt>
      <trkpt lat="46.35096325575268" lon="7.122032680305086">
        <time>2013-06-23T17:39:21.000+02:00</time>
      </trkpt>
      <trkpt lat="46.35079379063888" lon="7.122553310020219">
        <time>2013-06-23T17:39:21.000+02:00</time>
      </trkpt>
      <trkpt lat="46.35066977089066" lon="7.123242556036875">
        <time>2013-06-23T17:39:21.000+02:00</time>
      </trkpt>
      <trkpt lat="46.350670132284144" lon="7.123372464267425">
        <time>2013-06-23T17:39:21.000+02:00</time>
      </trkpt>
      <trkpt lat="46.35072540533681" lon="7.123839821293553">
        <time>2013-06-23T17:39:21.000+02:00</time>
      </trkpt>
      <trkpt lat="46.35076246919707" lon="7.124229338247202">
        <time>2013-06-23T17:39:21.000+02:00</time>
      </trkpt>
      <trkpt lat="46.35079114777232" lon="7.124839752206581">
        <time>2013-06-23T17:39:21.000+02:00</time>
      </trkpt>
      <trkpt lat="46.35081849397137" lon="7.124969504989661">
        <time>2013-06-23T17:39:21.000+02:00</time>
      </trkpt>
      <trkpt lat="46.3508744421814" lon="7.125683691512036">
        <time>2013-06-23T17:39:21.000+02:00</time>
      </trkpt>
      <trkpt lat="46.35091149970544" lon="7.126073210792705">
        <time>2013-06-23T17:39:21.000+02:00</time>
      </trkpt>
      <trkpt lat="46.3508942247631" lon="7.126333131831463">
        <time>2013-06-23T17:39:21.000+02:00</time>
      </trkpt>
      <trkpt lat="46.35085003410898" lon="7.126619189384481">
        <time>2013-06-23T17:39:21.000+02:00</time>
      </trkpt>
      <trkpt lat="46.35086963288524" lon="7.127203675386418">
        <time>2013-06-23T17:39:21.000+02:00</time>
      </trkpt>
      <trkpt lat="46.35101495251897" lon="7.127709496060502">
        <time>2013-06-23T17:39:21.000+02:00</time>
      </trkpt>
      <trkpt lat="46.35132179830386" lon="7.1280714938046055">
        <time>2013-06-23T17:39:21.000+02:00</time>
      </trkpt>
      <trkpt lat="46.35139401179625" lon="7.128162019573509">
        <time>2013-06-23T17:39:21.000+02:00</time>
      </trkpt>
      <trkpt lat="46.35156620721472" lon="7.128628720653891">
        <time>2013-06-23T17:39:21.000+02:00</time>
      </trkpt>
      <trkpt lat="46.35173967688355" lon="7.129563103670544">
        <time>2013-06-23T17:39:21.000+02:00</time>
      </trkpt>
      <trkpt lat="46.351830517456186" lon="7.129887369720682">
        <time>2013-06-23T17:39:21.000+02:00</time>
      </trkpt>
      <trkpt lat="46.35195755135497" lon="7.130289379469712">
        <time>2013-06-23T17:39:21.000+02:00</time>
      </trkpt>
      <trkpt lat="46.3521833583742" lon="7.130625874473624">
        <time>2013-06-23T17:39:21.000+02:00</time>
      </trkpt>
      <trkpt lat="46.35225546395039" lon="7.130677431450625">
        <time>2013-06-23T17:39:21.000+02:00</time>
      </trkpt>
      <trkpt lat="46.352607031197174" lon="7.1309482606094114">
        <time>2013-06-23T17:39:21.000+02:00</time>
      </trkpt>
      <trkpt lat="46.3529226860671" lon="7.1312452795412815">
        <time>2013-06-23T17:39:21.000+02:00</time>
      </trkpt>
      <trkpt lat="46.35309455215045" lon="7.131595080844928">
        <time>2013-06-23T17:39:21.000+02:00</time>
      </trkpt>
      <trkpt lat="46.353294527821994" lon="7.132360458671998">
        <time>2013-06-23T17:39:21.000+02:00</time>
      </trkpt>
      <trkpt lat="46.35346600469626" lon="7.1325673594200065">
        <time>2013-06-23T17:39:21.000+02:00</time>
      </trkpt>
      <trkpt lat="46.35351098244265" lon="7.132567106113689">
        <time>2013-06-23T17:39:21.000+02:00</time>
      </trkpt>
      <trkpt lat="46.35370909496986" lon="7.132643940895999">
        <time>2013-06-23T17:39:21.000+02:00</time>
      </trkpt>
      <trkpt lat="46.35372750679334" lon="7.132799738322236">
        <time>2013-06-23T17:39:21.000+02:00</time>
      </trkpt>
      <trkpt lat="46.353710006268926" lon="7.132981721355587">
        <time>2013-06-23T17:39:21.000+02:00</time>
      </trkpt>
      <trkpt lat="46.35367524922942" lon="7.133436627908945">
        <time>2013-06-23T17:39:21.000+02:00</time>
      </trkpt>
      <trkpt lat="46.353666218700496" lon="7.133423686880276">
        <time>2013-06-23T17:39:21.000+02:00</time>
      </trkpt>
      <trkpt lat="46.35364885699887" lon="7.133657635676335">
        <time>2013-06-23T17:39:21.000+02:00</time>
      </trkpt>
      <trkpt lat="46.35370317975496" lon="7.1337872483422915">
        <time>2013-06-23T17:39:21.000+02:00</time>
      </trkpt>
      <trkpt lat="46.353865379112136" lon="7.133890272820419">
        <time>2013-06-23T17:39:21.000+02:00</time>
      </trkpt>
      <trkpt lat="46.35397332571143" lon="7.1338896675076455">
        <time>2013-06-23T17:39:21.000+02:00</time>
      </trkpt>
      <trkpt lat="46.354044800992796" lon="7.133707381046406">
        <time>2013-06-23T17:39:21.000+02:00</time>
      </trkpt>
      <trkpt lat="46.35404476604461" lon="7.133694389409533">
        <time>2013-06-23T17:39:21.000+02:00</time>
      </trkpt>
      <trkpt lat="46.35404494077065" lon="7.133759347594073">
        <time>2013-06-23T17:39:21.000+02:00</time>
      </trkpt>
      <trkpt lat="46.35399124695522" lon="7.133863583373541">
        <time>2013-06-23T17:39:21.000+02:00</time>
      </trkpt>
      <trkpt lat="46.353937553044005" lon="7.1339678189470455">
        <time>2013-06-23T17:39:21.000+02:00</time>
      </trkpt>
      <trkpt lat="46.35381161534445" lon="7.133968524963454">
        <time>2013-06-23T17:39:21.000+02:00</time>
      </trkpt>
      <trkpt lat="46.35381203424736" lon="7.134124423940425">
        <time>2013-06-23T17:39:21.000+02:00</time>
      </trkpt>
      <trkpt lat="46.35375847963533" lon="7.134280625187632">
        <time>2013-06-23T17:39:21.000+02:00</time>
      </trkpt>
      <trkpt lat="46.35370485507744" lon="7.134410843014809">
        <time>2013-06-23T17:39:21.000+02:00</time>
      </trkpt>
      <trkpt lat="46.35365130007082" lon="7.134567043671767">
        <time>2013-06-23T17:39:21.000+02:00</time>
      </trkpt>
      <trkpt lat="46.35365140461085" lon="7.134606018302007">
        <time>2013-06-23T17:39:21.000+02:00</time>
      </trkpt>
    </trkseg>
  </trk>
</gpx>